GFSSGP_850_thetae_000.txt.gz
Theta_e
344 347 346 354 346 340 348 348 345 347 348 348 348 347 348 347 347 346 343 347 347 347 345 345 344 344 344 345 346 345 345 342 339 339 336 334 333 332 331 330 333 331 332 335 334 333 334 335 335
344 345 353 354 340 345 345 345 346 346 348 349 349 349 349 348 345 343 344 346 348 349 347 346 345 344 344 346 346 345 343 335 335 335 334 334 334 333 330 333 332 330 331 333 334 336 335 336 336
345 352 354 350 335 343 346 345 347 349 350 350 349 349 349 348 345 343 343 347 349 349 348 346 344 345 345 345 344 344 337 335 335 334 333 333 332 332 333 333 332 332 333 332 333 335 336 336 337
352 351 350 335 336 339 344 343 348 350 350 349 348 351 349 347 343 341 342 346 347 346 345 344 345 345 344 344 343 343 338 337 336 335 336 335 334 334 334 332 333 333 331 331 333 335 336 337 338
350 345 334 337 340 347 344 344 347 347 351 350 350 351 350 347 341 340 341 343 343 343 344 345 345 345 345 344 341 340 340 337 335 334 334 333 333 334 334 334 332 329 329 332 334 335 335 336 336
341 337 336 340 342 347 343 344 348 352 351 350 350 349 350 349 340 340 341 342 343 344 344 345 344 344 343 341 337 335 334 333 333 336 336 335 336 335 334 331 331 331 332 335 335 335 334 334 334
343 335 339 339 346 348 346 346 351 351 350 350 348 349 350 348 342 340 342 343 343 345 344 343 342 338 339 338 338 338 338 338 338 338 338 337 336 334 331 335 338 335 337 339 336 334 337 334 332
341 332 341 339 346 347 346 350 351 349 351 349 348 349 350 348 344 341 341 344 343 344 343 342 340 338 342 342 340 340 340 339 338 337 337 336 335 335 337 341 338 339 338 337 339 340 341 341 339
341 335 338 339 340 341 346 351 350 351 350 348 348 348 348 348 345 343 343 343 343 344 343 342 341 340 340 342 342 341 339 338 339 336 336 336 338 341 336 339 339 336 341 342 340 341 341 341 341
337 338 338 336 336 343 345 349 351 349 349 350 349 347 347 348 347 345 344 344 344 344 343 342 342 341 342 342 342 341 339 338 336 336 337 338 340 344 344 343 343 345 342 342 340 340 340 339 341
338 338 337 337 339 344 344 349 349 347 348 350 348 347 348 349 349 346 344 343 343 343 348 345 342 342 341 340 339 339 339 337 336 337 337 341 343 345 344 343 342 342 343 343 342 341 341 341 339
336 337 339 338 341 343 343 346 348 345 346 346 347 343 348 348 349 348 345 344 343 342 342 343 344 342 342 342 341 340 340 338 336 336 337 343 343 343 343 344 342 340 340 342 342 341 340 339 339
328 328 337 340 341 341 343 346 348 345 348 348 346 345 347 347 347 346 344 344 345 342 340 342 342 342 340 341 341 340 339 338 340 339 338 345 346 343 343 345 343 342 341 340 340 339 340 340 338
328 335 338 340 339 341 344 346 347 347 348 349 346 347 347 347 347 348 347 348 346 344 343 343 344 344 342 342 343 342 342 342 345 345 346 347 344 343 343 344 343 341 341 341 342 341 340 340 339
337 337 337 338 340 345 345 347 347 348 348 350 351 350 349 349 351 350 348 347 345 345 345 344 343 344 344 344 345 346 349 347 346 348 347 346 345 343 344 343 342 342 342 343 342 341 340 339 334
335 336 340 338 340 344 342 346 347 348 349 351 353 353 352 351 350 349 349 347 347 347 344 347 347 347 345 348 347 345 344 345 344 347 348 345 346 345 346 343 342 343 343 344 343 341 338 334 332
332 339 339 341 339 342 343 346 347 347 348 350 353 353 352 352 352 349 349 349 349 348 347 346 349 348 347 346 345 345 348 347 346 348 346 345 344 346 345 344 344 343 344 342 339 338 336 334 331
337 340 337 342 338 341 342 344 347 346 346 348 349 350 351 352 351 350 350 350 349 348 349 349 349 349 347 347 344 344 344 347 348 348 348 347 345 343 343 344 343 344 340 337 333 331 334 331 332
332 337 341 340 338 340 342 344 348 346 345 345 346 347 348 350 349 350 350 350 348 348 349 349 350 348 347 345 345 346 346 346 347 347 347 344 344 344 344 346 340 337 336 333 332 332 328 332 332
333 332 337 334 336 340 343 345 347 346 345 345 345 346 346 348 349 349 349 350 349 347 348 347 346 346 347 346 345 347 349 350 350 348 347 347 346 345 345 339 335 333 329 326 326 326 333 332 335
326 326 326 336 338 341 344 346 344 346 346 345 345 345 345 346 347 347 347 347 348 347 347 346 346 347 348 346 347 349 351 349 346 344 343 345 339 341 338 335 330 323 325 328 329 327 329 334 335
326 324 327 334 338 339 339 342 342 343 345 343 344 344 345 346 345 345 346 346 347 346 347 346 345 346 347 347 347 347 344 339 337 333 334 334 332 339 335 325 324 328 329 331 329 324 328 332 333
327 325 327 332 334 337 344 338 337 342 344 343 342 343 344 345 346 346 346 346 346 346 346 346 345 346 346 347 346 347 342 340 340 335 335 333 338 340 333 324 327 329 332 331 326 325 327 329 329
324 322 322 323 328 334 336 340 335 344 346 344 343 344 344 344 345 346 346 347 347 347 347 346 346 342 342 346 346 346 340 341 340 336 329 327 336 335 331 327 331 332 331 327 324 325 327 329 331
321 322 324 327 333 333 331 340 338 335 342 342 342 344 345 346 346 347 347 347 347 347 349 347 346 336 337 340 339 335 333 333 336 334 323 328 332 333 331 326 329 331 328 322 323 327 328 329 328
322 322 323 326 328 335 332 341 340 337 336 341 342 343 344 346 347 348 348 348 349 349 350 344 341 334 332 333 329 326 331 326 324 325 321 325 332 331 320 320 322 326 325 323 321 325 329 329 330
322 322 321 321 322 325 328 327 329 330 332 336 340 342 343 344 347 348 348 349 350 350 350 343 337 330 328 328 326 326 327 327 321 320 316 321 325 321 322 325 321 324 326 326 324 322 321 327 330
322 320 324 318 326 329 326 327 330 330 332 332 336 340 342 343 346 347 348 349 350 349 349 348 339 327 326 327 326 327 325 324 323 319 316 316 318 321 323 325 322 324 324 323 324 323 319 319 323
323 322 319 319 320 324 325 325 323 327 330 332 334 338 340 341 344 346 347 347 349 349 349 349 344 337 327 326 327 327 329 330 330 322 317 319 320 321 323 320 321 323 325 322 319 318 322 324 325
322 321 321 325 322 320 321 324 324 326 327 332 333 336 337 338 341 343 344 346 347 348 348 348 348 342 337 330 333 329 330 336 339 325 319 319 318 318 319 319 321 322 324 322 322 321 322 325 328

GFSSGP_850_thetae_003.txt.gz
Theta_e
347 348 353 355 349 347 352 351 348 350 350 350 348 348 349 348 347 350 346 345 344 343 342 341 340 341 341 344 345 344 343 343 342 339 336 335 333 332 331 333 331 331 334 335 334 335 335 336 336
347 347 354 353 346 348 350 347 351 349 350 349 350 350 348 348 347 346 346 345 343 343 343 343 342 341 342 344 345 343 341 340 339 338 335 334 333 332 330 333 330 331 333 335 335 336 336 336 337
346 350 356 347 345 345 349 346 351 349 350 349 350 349 348 347 346 346 345 346 346 344 344 344 343 344 345 345 345 342 336 336 336 336 334 334 334 331 332 332 332 333 334 334 336 336 336 336 336
350 352 346 340 345 344 346 347 350 351 350 349 348 348 348 348 346 345 347 348 348 346 346 344 343 344 346 346 345 338 335 335 334 333 334 333 331 333 333 332 333 333 332 333 335 335 336 335 336
349 341 340 344 347 347 345 348 351 351 351 349 349 348 348 347 343 345 348 350 349 347 345 343 344 344 345 344 344 336 337 336 335 335 334 334 334 334 334 334 332 329 330 333 335 335 335 334 334
341 338 341 345 349 347 345 347 350 352 351 349 347 346 349 346 341 345 349 348 347 345 344 344 345 344 344 342 343 340 338 336 334 335 334 333 333 335 335 333 332 332 333 336 338 335 336 334 332
343 341 343 345 350 349 346 347 350 351 350 349 347 350 350 346 341 343 345 346 344 344 344 345 345 345 343 341 339 338 335 333 335 336 335 335 336 335 332 336 339 336 338 337 337 338 339 337 334
340 340 342 344 350 348 347 348 350 349 350 349 348 349 348 346 341 342 344 347 345 345 344 344 344 344 342 340 337 336 336 337 338 338 338 337 336 334 335 341 338 338 339 340 339 341 342 341 339
340 342 342 342 348 347 348 348 351 350 350 349 349 349 346 346 344 345 347 347 346 347 346 346 344 343 341 340 340 340 339 338 338 337 337 336 336 338 338 339 341 341 339 343 340 341 341 341 342
340 344 342 340 343 346 348 348 350 352 349 348 350 350 347 348 346 346 347 349 348 348 346 347 342 340 343 342 341 339 338 339 339 337 336 336 337 340 344 344 342 344 342 341 340 339 341 340 339
340 343 340 339 340 345 348 348 349 349 349 348 350 351 349 349 347 347 347 347 348 347 346 344 342 341 341 342 342 340 339 338 337 336 336 336 339 343 344 343 343 341 341 342 342 341 340 339 338
337 338 339 339 342 344 347 348 348 347 344 346 350 350 350 349 349 348 347 347 347 344 344 343 342 341 341 341 341 340 339 338 336 336 336 336 342 344 344 344 343 342 342 340 341 341 338 339 339
332 332 336 338 342 344 346 348 348 348 345 348 349 351 350 350 349 349 348 347 344 343 346 344 342 344 343 341 340 339 339 339 337 336 335 337 345 343 342 344 344 342 342 340 341 341 340 340 339
329 332 334 340 342 343 346 347 346 346 349 350 351 351 350 350 350 351 351 350 348 343 343 342 342 342 341 341 340 339 339 338 337 340 338 339 344 345 342 342 343 342 341 340 341 341 340 340 338
338 341 341 341 342 345 345 350 349 347 350 350 350 350 351 351 351 351 350 350 348 345 343 341 342 342 341 340 340 340 340 340 340 344 346 346 347 342 342 342 342 341 340 341 343 343 342 338 334
340 342 344 343 344 345 344 345 347 349 350 350 349 350 351 351 351 351 350 346 345 346 344 343 343 343 343 341 342 343 346 348 347 345 346 346 344 344 342 343 342 341 343 342 344 341 339 336 334
340 342 344 345 344 347 346 346 347 349 350 350 350 350 350 351 351 352 351 346 345 345 345 343 344 343 344 343 346 346 344 344 344 344 346 345 344 344 343 343 343 343 343 342 342 336 332 331 333
340 343 344 345 344 347 347 347 349 349 349 350 351 351 351 352 353 353 351 349 347 347 347 344 345 347 346 344 345 344 343 344 345 346 347 348 346 345 344 342 344 344 342 340 337 335 334 334 330
338 342 343 344 342 345 347 346 349 349 348 349 351 352 352 351 351 352 349 349 349 349 349 348 347 348 347 346 345 345 344 343 344 345 345 347 346 344 343 344 344 344 336 334 332 332 333 335 330
340 342 343 342 342 344 345 346 347 349 348 348 349 350 351 351 352 352 352 350 350 350 349 349 349 349 348 348 345 345 343 344 346 347 349 346 346 344 345 345 343 334 331 327 326 329 331 331 330
333 339 342 343 340 343 346 346 348 349 348 347 347 347 348 349 350 350 351 351 349 350 350 348 349 346 347 348 347 346 346 347 347 348 349 347 347 345 340 338 334 328 321 328 328 329 327 336 333
332 335 339 343 343 346 343 345 347 348 351 349 347 347 347 347 348 348 349 349 349 347 348 348 348 346 346 347 348 348 347 349 350 347 346 343 344 338 337 338 327 321 326 325 327 324 325 329 335
333 331 335 340 342 341 345 344 341 347 350 351 348 347 346 346 346 347 348 345 345 345 346 347 348 347 347 347 349 349 348 350 349 343 339 339 337 332 338 334 323 324 326 327 327 322 323 324 327
328 330 331 335 337 338 337 342 338 348 348 347 347 346 346 346 346 346 346 344 345 345 346 347 347 347 346 346 347 348 348 349 346 342 339 338 334 335 341 333 324 328 328 328 324 322 323 325 327
329 331 333 334 337 336 335 343 340 340 343 344 345 345 345 345 346 346 347 346 345 346 346 347 347 347 346 346 346 346 347 348 342 335 336 334 328 329 330 331 323 326 330 326 322 324 327 327 327
329 331 334 336 336 334 336 340 339 340 338 340 343 344 344 345 345 346 346 345 346 347 347 347 349 347 345 343 342 342 343 343 331 328 330 328 327 328 332 329 323 325 328 326 322 323 325 327 327
329 331 331 333 329 333 335 339 335 337 338 338 340 343 345 345 345 346 346 345 346 347 347 348 350 348 340 336 338 340 341 339 330 327 330 327 323 328 329 321 323 323 324 324 324 325 322 322 327
328 329 330 330 337 336 334 335 333 339 340 341 341 342 343 345 346 347 347 345 346 347 348 347 347 347 334 333 334 334 335 329 327 326 328 327 318 327 322 320 325 324 322 323 325 325 324 320 321
326 328 329 331 331 335 335 334 336 342 345 342 342 341 343 345 346 347 348 346 345 346 348 348 348 347 343 332 330 331 330 326 327 327 319 318 318 317 319 321 324 323 322 322 320 319 318 317 322
326 328 330 332 334 331 332 332 333 335 338 339 338 339 340 345 344 347 348 348 346 347 347 348 350 349 347 337 329 329 329 327 324 323 341 319 317 321 318 321 322 320 322 323 322 322 325 323 322

GFSSGP_850_thetae_006.txt.gz
Theta_e
347 352 359 361 360 349 355 353 349 352 352 349 348 348 350 349 350 355 348 351 350 349 345 341 344 344 345 345 344 343 338 339 336 336 336 334 332 333 334 332 332 334 334 335 335 335 336 336 337
357 357 358 356 346 350 353 350 351 351 349 349 350 350 349 350 349 347 349 349 350 347 347 346 342 342 345 344 344 342 340 341 338 335 335 333 332 331 333 332 331 333 334 334 335 335 335 337 337
353 355 356 344 340 349 352 350 352 350 348 348 350 349 349 349 348 348 348 348 348 348 348 344 341 342 345 345 342 342 341 340 339 336 334 333 333 331 333 332 333 334 334 333 334 335 335 335 336
354 353 350 340 339 343 348 351 351 351 349 348 348 350 349 348 349 349 349 349 349 349 351 342 343 345 345 345 342 339 339 338 337 334 333 333 331 333 333 332 334 331 330 332 334 335 335 333 334
351 346 340 340 342 342 345 349 350 351 349 348 347 349 349 350 349 349 350 350 350 350 351 346 344 345 345 344 337 335 334 334 334 334 333 331 333 334 333 334 331 330 330 334 336 336 335 333 332
346 342 341 341 341 343 345 348 349 350 350 349 348 350 351 349 349 350 351 351 350 350 351 349 344 345 345 343 335 336 335 335 334 333 333 334 333 335 335 333 336 334 335 339 337 336 338 334 331
345 343 342 343 343 343 344 346 348 350 351 348 347 351 351 349 351 352 352 352 350 351 352 352 349 345 343 343 337 336 337 335 335 334 333 333 335 335 334 339 339 339 339 337 339 341 341 341 336
344 343 342 343 345 343 342 345 346 346 350 348 348 350 351 348 350 351 351 351 352 351 351 354 351 350 350 344 342 339 337 334 336 336 336 337 337 335 335 340 341 336 340 342 340 341 341 341 340
343 345 343 343 345 345 343 345 347 347 349 349 348 347 347 347 349 350 352 351 352 351 351 351 352 351 351 349 340 335 335 336 338 339 337 339 348 349 349 344 343 342 342 343 339 339 339 340 344
341 345 343 341 342 346 344 344 348 349 348 348 349 347 347 346 349 350 351 352 351 351 351 350 352 354 352 350 349 349 348 346 347 347 347 347 349 349 346 347 341 342 342 342 341 340 341 347 346
337 343 342 341 340 344 344 345 347 345 348 346 349 348 347 347 349 350 350 351 351 351 351 354 351 354 352 351 350 350 349 348 348 349 347 348 348 348 350 349 349 347 344 349 348 348 347 347 345
336 336 337 340 341 343 346 345 346 344 343 344 346 348 348 348 348 349 349 350 350 350 350 351 351 351 351 352 350 349 348 348 347 348 343 348 346 350 350 350 350 345 349 349 348 347 346 346 344
333 334 333 335 339 341 345 346 346 345 345 345 347 349 348 348 348 348 348 349 349 350 350 351 351 353 353 351 350 349 349 348 347 348 348 347 348 348 348 346 346 345 349 348 348 347 347 346 346
333 333 334 334 339 342 346 347 347 346 344 349 349 350 348 348 348 349 348 348 349 349 350 350 351 352 351 351 350 350 349 349 348 347 347 339 346 347 349 349 348 348 349 348 347 346 346 347 346
332 336 340 340 341 345 345 350 349 347 347 351 350 350 349 349 349 349 349 349 350 350 350 351 352 352 354 352 351 351 350 349 348 348 350 343 345 345 344 349 348 348 348 341 346 347 348 345 342
334 337 341 343 344 346 346 346 348 348 348 351 350 350 349 349 349 350 350 350 350 351 351 352 351 352 353 353 352 351 350 350 350 349 351 346 347 345 348 349 348 348 344 348 349 347 345 341 339
337 339 339 346 345 348 348 345 347 348 349 350 350 348 349 350 350 351 351 350 350 352 353 353 352 351 352 352 352 352 352 351 351 352 349 350 346 344 348 349 348 346 346 345 345 346 342 338 336
338 339 339 341 347 348 349 346 349 349 349 348 350 349 348 349 349 351 351 352 352 353 354 354 352 353 353 353 351 351 351 351 350 350 351 346 346 349 345 349 347 344 345 347 346 342 340 338 336
336 339 340 340 346 348 347 346 347 350 349 349 350 350 349 348 348 350 352 352 352 353 355 356 355 355 353 351 351 351 350 350 350 350 350 349 348 347 344 349 348 346 345 344 342 339 338 335 337
336 337 339 340 345 346 345 347 346 347 350 348 348 350 351 350 349 351 352 352 352 354 356 357 356 355 351 354 352 351 352 350 352 352 353 351 351 348 347 347 347 344 341 342 339 338 336 336 336
335 337 338 342 345 345 345 347 346 345 348 348 347 347 350 350 350 350 351 352 352 353 356 357 357 356 354 352 353 353 352 351 352 352 353 351 350 349 345 343 342 342 332 333 338 338 336 335 339
335 335 337 340 344 346 345 346 343 345 349 349 349 347 346 349 350 350 350 351 352 353 355 357 357 355 355 352 353 353 352 349 347 348 347 350 350 349 346 344 343 328 333 338 338 336 336 332 335
334 335 336 337 342 343 346 347 343 344 346 349 349 349 346 344 348 349 350 349 351 352 354 355 352 349 353 355 353 355 354 348 347 348 351 350 347 347 344 342 331 324 333 339 337 337 336 335 334
332 334 336 337 338 343 344 344 341 342 344 343 345 347 347 344 344 346 348 348 350 351 353 354 353 347 349 355 355 355 354 351 348 350 348 344 345 346 345 342 332 326 335 337 336 330 333 328 334
331 335 339 340 340 341 341 343 341 338 338 340 338 342 347 346 344 344 346 348 350 351 352 353 351 346 347 348 354 354 355 354 353 352 347 343 343 343 345 338 333 336 337 337 331 325 334 333 334
330 334 337 340 338 338 339 341 339 338 337 336 336 340 345 347 344 344 345 346 349 350 351 353 353 346 347 347 346 347 351 355 353 352 347 344 342 340 341 333 335 334 337 336 326 331 333 334 333
331 334 334 336 337 337 336 338 337 337 338 338 338 341 343 346 346 343 345 346 348 350 351 350 350 348 347 348 346 345 345 347 352 352 352 346 344 340 344 331 333 334 337 334 331 331 333 332 332
329 332 334 336 342 340 337 337 339 338 337 336 338 341 343 345 346 345 344 345 347 348 350 350 349 348 349 350 344 342 343 342 346 353 351 339 346 336 342 334 329 324 332 332 329 332 333 332 328
328 330 333 335 335 337 339 338 336 337 337 337 336 340 341 344 346 346 345 345 347 347 348 350 353 353 350 350 341 337 344 348 338 343 334 338 337 331 327 328 326 329 321 332 333 332 331 331 330
328 329 333 335 339 336 337 335 335 336 336 335 335 334 335 342 345 347 347 347 347 348 347 348 350 352 353 343 339 339 347 345 342 333 330 322 331 323 318 321 324 328 327 334 336 334 331 331 330

GFSSGP_850_thetae_009.txt.gz
Theta_e
347 351 358 356 361 353 356 354 350 352 352 348 348 351 351 350 354 359 349 351 350 348 345 342 341 342 341 339 338 338 338 337 336 337 335 333 334 334 331 331 333 333 334 334 334 335 336 335 338
355 359 362 360 356 359 355 352 354 351 348 348 349 349 349 352 350 351 350 350 349 347 347 346 344 345 344 343 340 338 338 337 336 336 334 332 331 333 331 331 332 334 333 333 334 335 335 335 335
360 358 359 358 348 352 354 351 351 349 349 349 349 350 350 349 349 351 350 349 348 348 348 344 344 345 344 344 341 340 340 335 335 336 333 332 331 333 332 333 334 332 330 332 335 335 334 333 334
356 355 354 340 343 349 351 349 348 348 348 349 349 351 349 348 350 348 348 349 349 348 350 341 343 345 344 342 342 342 340 338 336 335 333 333 332 334 333 334 331 329 329 333 335 335 334 332 334
354 351 351 338 341 345 349 347 347 349 348 349 349 351 350 350 349 349 349 348 350 350 349 343 345 345 345 341 339 339 338 337 335 333 333 332 333 334 334 333 333 332 333 337 337 334 337 331 332
352 344 344 340 339 342 346 347 347 348 348 348 350 350 352 350 350 349 350 349 350 351 349 346 345 345 344 339 336 334 334 334 334 333 332 333 334 335 335 335 339 336 338 336 338 340 340 336 334
350 349 344 340 341 340 343 343 345 347 348 349 350 353 351 350 350 350 352 350 350 350 351 350 348 345 343 337 335 335 335 334 333 333 334 333 335 335 334 341 338 339 339 339 339 341 341 340 337
345 343 342 346 341 339 340 342 342 344 348 347 350 353 352 351 350 352 352 351 350 351 352 350 351 351 349 339 336 337 335 334 335 334 332 334 336 334 339 342 344 339 339 343 339 339 339 339 340
339 345 345 344 346 342 340 341 342 344 345 346 347 349 350 351 351 351 352 351 351 351 350 350 350 351 353 351 342 337 336 334 337 337 337 337 349 350 348 349 342 342 343 342 339 338 340 348 346
341 347 344 341 345 343 341 340 342 343 344 346 346 349 350 351 350 351 351 351 350 350 351 350 352 350 350 348 345 347 345 346 346 348 346 346 349 350 345 348 343 341 340 342 343 342 346 347 347
338 347 344 341 340 343 341 341 341 342 344 345 346 348 349 351 350 351 350 350 349 348 350 351 350 349 349 349 348 349 349 349 348 350 350 348 350 349 350 349 351 349 347 351 349 348 348 347 346
338 339 339 341 340 342 342 342 341 339 341 343 345 346 348 350 350 350 350 349 350 349 350 350 353 351 349 350 348 349 348 347 347 348 351 349 349 349 348 350 350 348 349 348 350 347 347 347 346
336 337 336 337 339 339 343 343 341 340 340 342 346 346 347 349 350 349 348 348 349 349 350 349 351 351 353 349 349 349 348 347 347 348 350 349 349 348 347 351 349 350 349 348 347 346 346 346 347
335 335 335 336 336 339 343 343 343 341 341 344 347 346 346 347 349 349 349 348 348 349 349 349 352 353 351 352 354 351 348 349 346 348 348 349 349 349 351 349 349 348 348 347 348 347 346 346 343
334 336 337 338 337 340 341 343 343 342 344 344 346 346 345 346 347 348 348 349 349 349 350 350 351 353 352 353 352 351 350 347 349 347 350 350 350 351 348 349 350 348 346 347 347 347 346 341 340
335 336 339 340 339 339 341 345 344 344 344 344 346 347 346 346 346 347 348 348 349 349 350 351 350 351 353 354 354 352 349 350 348 349 348 351 351 350 352 349 349 347 350 348 348 349 346 341 338
336 337 339 341 340 343 343 346 345 345 343 344 344 346 346 347 347 348 348 348 349 351 351 351 351 351 352 353 353 351 351 350 351 351 349 352 350 351 352 349 348 349 348 348 346 347 344 339 337
338 338 340 345 340 345 344 347 347 346 345 343 344 344 346 346 347 348 349 349 350 351 352 353 352 352 353 352 351 353 350 354 352 353 349 351 351 350 351 348 351 348 348 347 346 344 340 339 339
337 339 339 340 340 343 345 345 346 347 347 344 344 343 344 345 347 348 350 350 350 351 353 354 354 353 354 353 352 353 351 351 350 348 353 353 347 351 349 349 349 349 346 347 342 340 337 338 338
336 338 340 340 340 342 344 345 346 350 347 347 345 344 344 344 345 348 350 350 350 352 353 354 354 354 354 355 352 353 350 350 348 350 350 351 352 353 351 350 348 348 345 343 341 339 338 337 337
336 337 339 340 345 344 345 346 345 345 348 347 346 346 345 344 343 347 349 350 351 352 353 355 355 355 355 354 353 353 354 351 352 351 354 352 351 352 351 350 346 348 339 332 339 340 338 337 338
335 335 337 339 343 347 342 346 346 344 345 349 348 347 346 344 344 345 349 351 351 352 354 355 355 354 356 353 355 354 352 349 346 346 347 350 355 350 352 352 347 342 334 338 339 338 336 334 336
333 335 337 338 342 347 342 343 345 343 345 346 348 348 346 345 345 345 347 350 351 352 354 356 356 356 356 356 353 354 352 348 349 346 347 350 354 350 349 348 346 342 333 338 339 339 332 340 335
332 334 336 337 339 342 344 344 345 345 344 345 345 347 348 347 345 347 346 349 350 351 353 356 357 357 355 357 352 352 354 349 347 347 349 350 349 350 347 345 344 341 336 340 340 339 338 333 337
331 334 337 339 339 339 340 344 348 344 343 342 342 342 345 348 345 345 348 348 350 351 352 354 357 357 357 358 356 353 355 355 351 353 351 349 345 346 347 345 345 342 335 340 339 339 338 337 336
330 333 335 340 340 339 339 341 342 343 340 339 339 338 340 346 347 344 346 348 350 350 352 354 356 358 355 358 356 355 353 354 351 352 352 348 346 345 345 345 345 342 340 341 339 335 334 336 336
329 333 334 336 338 339 339 339 340 341 341 339 338 337 337 342 346 346 344 346 348 349 352 353 355 355 355 359 356 355 355 353 352 351 350 351 346 344 343 347 345 343 339 340 337 331 336 333 335
327 330 333 338 343 341 338 339 340 341 340 338 339 337 337 339 345 346 345 345 346 349 351 353 355 356 354 357 358 358 358 356 352 353 351 352 347 343 342 346 342 338 332 333 329 334 335 335 334
327 328 332 334 336 339 340 340 338 341 340 339 339 336 337 338 344 346 346 345 346 347 349 352 353 355 354 356 357 357 356 357 354 349 351 352 348 348 344 337 329 324 331 322 318 333 334 336 335
328 328 329 336 340 336 340 338 338 338 338 338 337 336 336 337 341 345 346 346 346 346 347 348 350 352 355 356 356 354 351 353 355 351 352 350 347 347 338 323 319 324 324 329 323 320 333 334 334

GFSSGP_850_thetae_012.txt.gz
Theta_e
348 351 355 355 359 353 359 356 352 354 351 349 349 350 353 353 355 356 349 349 347 347 343 342 342 341 337 336 333 333 333 335 336 333 334 335 333 331 332 333 333 334 334 334 335 334 335 335 338
349 356 359 348 357 361 358 353 356 348 348 350 350 350 351 353 351 351 350 349 348 347 345 342 342 340 338 338 335 335 334 336 336 333 333 332 333 331 331 333 333 332 333 334 335 334 333 334 334
356 359 357 361 352 359 357 353 352 351 349 351 351 351 351 352 352 351 349 349 346 348 347 342 342 340 339 338 338 337 337 336 336 333 332 331 332 332 332 333 329 329 331 334 335 334 333 333 336
361 352 360 363 354 351 350 348 349 351 351 350 350 349 350 351 350 349 350 348 347 349 346 345 344 344 343 340 339 338 336 336 336 334 332 331 332 332 334 331 332 330 334 337 335 337 332 331 337
352 356 360 349 351 350 347 348 348 349 350 350 349 352 350 349 349 349 349 348 349 351 344 345 345 343 343 341 341 341 338 335 336 332 332 331 333 334 333 333 337 333 337 336 338 338 333 331 336
355 353 357 340 340 346 346 348 348 350 350 349 349 350 350 348 350 349 350 349 350 349 346 344 345 344 340 341 340 339 338 336 334 332 332 333 334 334 334 338 339 337 336 339 340 340 340 335 338
349 353 347 344 340 342 344 344 346 348 350 349 351 351 349 350 350 349 349 350 349 348 349 345 345 345 340 339 336 335 335 334 333 332 331 333 335 334 336 341 337 336 340 341 338 340 339 339 338
346 347 348 344 341 339 341 342 344 344 350 348 350 350 351 350 352 351 349 349 350 351 351 351 345 344 338 335 334 334 332 332 331 332 332 333 336 339 346 346 342 341 342 341 338 337 341 345 345
342 345 348 344 342 339 340 340 344 346 347 350 350 348 350 350 352 351 349 351 350 349 350 351 352 348 343 335 336 335 334 334 333 332 333 337 349 350 348 350 347 340 340 340 338 339 346 347 347
344 347 345 344 343 341 340 340 339 342 344 346 350 349 349 350 352 350 350 349 352 348 352 352 350 350 348 350 337 337 335 335 336 338 339 343 348 351 347 348 347 345 341 338 345 346 347 347 347
342 345 342 343 342 341 341 340 339 341 343 344 350 350 349 351 352 351 350 350 349 351 351 349 348 352 350 351 341 337 343 347 344 348 350 350 350 350 349 345 338 349 347 345 348 348 348 346 342
338 341 342 342 343 343 341 341 340 341 342 344 350 351 350 350 351 349 350 348 350 351 351 351 348 348 352 349 346 348 349 349 348 349 345 345 348 346 349 348 349 346 342 349 348 348 345 343 346
336 340 339 338 339 340 342 342 341 340 342 343 346 350 350 349 348 349 347 348 349 349 353 351 349 348 349 349 348 349 349 347 348 349 349 346 349 350 347 349 348 345 350 347 346 346 346 345 342
335 336 337 336 337 338 344 343 340 339 340 343 345 347 350 350 347 348 348 347 349 347 352 349 353 348 349 348 348 351 344 349 347 348 348 349 345 349 349 348 347 345 347 346 346 343 343 343 342
334 335 336 336 336 339 339 344 342 340 340 343 344 345 347 349 349 347 347 347 349 348 351 351 353 352 348 350 351 349 350 348 347 345 348 348 348 342 349 346 349 349 348 345 344 346 346 343 342
333 334 336 337 338 338 339 345 340 342 341 342 344 344 345 346 348 348 347 348 348 349 349 350 351 355 350 348 350 348 347 348 347 349 349 351 349 343 344 347 350 349 347 347 347 348 346 343 339
333 335 336 337 339 339 339 344 344 343 342 342 343 344 345 346 346 348 348 348 348 349 350 350 350 352 353 350 348 349 350 347 350 348 351 348 349 348 348 347 350 348 347 344 347 345 346 341 339
333 335 337 338 341 340 346 347 342 343 343 343 342 343 345 345 346 347 348 348 349 349 350 350 351 350 351 352 348 354 346 351 349 350 348 351 348 345 348 347 346 346 343 347 344 345 342 334 337
333 336 338 338 342 341 348 345 341 340 345 342 343 342 344 345 345 347 348 348 348 350 351 351 350 351 355 353 353 352 354 350 347 346 350 352 352 351 344 346 346 347 345 349 346 341 336 338 337
333 335 338 339 343 343 345 348 344 346 348 343 343 342 342 343 345 347 349 349 349 350 351 352 352 352 351 354 354 351 348 348 349 350 349 350 349 346 347 346 346 349 348 343 343 334 336 338 337
333 335 337 339 341 341 341 343 350 348 345 345 343 343 342 343 343 347 348 349 350 351 352 352 353 353 353 353 352 349 352 352 352 351 349 346 346 347 351 349 346 350 349 337 336 340 339 337 339
334 334 335 337 342 344 342 345 346 346 348 346 345 345 344 343 343 345 348 350 350 351 351 353 353 353 353 353 353 350 351 354 351 351 351 347 351 349 350 345 346 347 339 339 338 337 332 333 338
334 335 335 336 340 344 347 346 349 348 349 350 347 346 346 345 344 343 348 349 350 351 353 353 353 354 353 352 354 356 352 350 348 345 345 350 349 349 352 350 349 343 321 335 337 340 327 339 335
332 334 335 336 338 341 345 345 346 348 345 344 348 346 346 346 345 345 346 348 350 351 354 353 354 356 354 354 353 356 355 349 349 349 350 349 351 352 348 350 346 338 324 339 336 330 326 336 338
329 332 336 337 339 340 341 346 348 347 346 344 345 345 347 347 346 346 346 349 350 351 353 355 355 357 355 353 355 351 355 350 351 349 347 350 351 351 349 346 341 335 323 338 333 333 333 330 327
329 330 336 339 340 339 339 342 344 346 344 343 342 343 346 348 347 347 347 348 351 351 352 355 357 356 356 354 355 353 349 352 346 350 350 351 349 345 348 347 346 334 333 326 325 322 320 324 332
329 329 331 334 336 338 339 339 338 342 345 343 342 341 343 347 348 346 348 348 351 352 351 354 358 357 357 356 354 353 350 348 352 348 352 353 348 347 345 346 346 344 331 331 334 325 333 337 337
328 330 329 332 338 341 339 342 343 343 347 344 344 341 339 337 347 348 346 349 350 352 352 354 356 357 357 357 354 355 352 349 346 350 351 351 354 347 347 345 343 337 330 326 329 325 334 323 325
328 328 329 331 334 338 342 341 342 347 349 347 345 341 338 337 341 347 347 347 350 352 353 354 356 358 359 359 355 353 352 344 345 349 352 351 350 351 346 345 343 340 327 329 327 326 330 330 328
329 329 328 330 336 335 337 340 339 344 342 344 342 339 338 337 339 343 347 347 348 350 352 354 356 358 360 360 356 351 346 347 342 345 347 352 353 352 349 344 341 341 330 324 324 324 328 333 329

GFSSGP_850_thetae_015.txt.gz
Theta_e
347 350 351 350 357 355 359 357 353 352 351 350 350 353 353 351 352 352 347 344 344 344 343 343 342 339 335 334 330 332 335 335 333 332 334 332 331 332 333 333 332 333 334 335 335 333 334 334 338
348 352 349 344 358 360 357 353 355 351 349 349 352 352 351 351 349 347 346 345 343 343 343 343 339 336 333 330 330 333 335 334 333 333 332 330 330 332 333 331 329 331 334 335 334 332 333 335 335
349 354 353 352 356 360 358 352 348 351 350 350 351 352 351 350 349 348 346 345 343 342 342 341 337 336 333 333 331 332 334 334 332 330 330 332 332 333 332 330 329 331 335 336 334 333 331 336 337
356 353 354 360 356 353 351 350 349 349 350 350 350 350 351 351 350 346 347 347 345 342 341 340 339 338 337 335 334 333 334 335 332 331 331 332 332 333 331 334 332 334 337 336 338 331 330 336 337
349 349 360 361 352 350 349 351 351 350 350 350 351 352 351 347 347 348 347 348 346 344 343 343 341 339 338 338 336 335 334 335 333 332 331 333 333 333 336 338 335 336 336 339 339 338 334 338 337
346 351 358 352 349 348 347 350 349 350 351 350 350 349 349 349 349 347 348 349 348 345 344 343 343 342 339 339 338 335 334 335 333 332 331 333 334 334 339 337 336 338 340 338 340 339 338 336 340
349 349 350 347 342 348 349 349 349 349 351 351 349 350 350 349 347 348 347 347 348 344 344 344 342 342 340 340 339 338 336 335 332 332 332 333 334 336 342 344 341 341 341 338 338 339 345 340 344
346 347 348 347 346 341 344 348 350 349 351 349 348 350 349 349 348 348 349 350 348 345 344 345 343 339 339 338 337 336 334 333 332 331 333 335 344 346 347 346 344 341 341 337 342 346 346 346 342
348 346 351 347 344 339 342 348 349 351 350 349 349 349 350 349 349 348 349 349 349 350 344 344 344 339 337 334 333 332 332 331 331 332 332 342 346 347 348 345 346 342 341 340 340 345 346 346 345
341 343 346 344 342 338 341 348 348 351 350 350 349 350 350 350 350 347 348 350 351 350 349 346 343 338 334 333 333 333 332 332 333 333 338 346 345 347 347 345 341 345 342 335 342 344 344 344 343
339 339 342 342 342 341 339 338 343 348 351 349 349 352 352 350 349 347 347 348 350 348 350 350 345 340 338 335 335 335 334 335 336 339 344 347 346 347 347 344 341 346 336 342 340 344 346 343 342
341 339 340 342 342 341 338 339 342 341 347 349 349 351 351 348 350 348 346 349 349 350 352 351 346 346 350 347 345 335 342 341 345 345 343 345 347 345 347 344 346 343 346 345 345 345 348 345 343
335 338 341 342 342 342 340 340 341 342 348 350 349 350 351 351 347 347 348 346 346 350 351 350 347 345 350 351 346 346 348 347 348 348 348 347 344 345 348 344 346 344 346 345 346 345 344 342 341
334 335 338 338 341 342 340 341 342 344 350 350 350 349 352 351 349 349 350 349 347 351 350 349 347 344 348 349 347 350 350 350 349 349 349 349 346 344 343 347 346 346 344 347 344 344 342 340 343
332 332 332 333 335 341 342 342 342 343 347 351 351 350 349 350 350 348 346 350 349 351 351 351 347 347 346 347 349 350 350 349 347 347 348 348 349 348 344 345 347 345 348 347 344 343 343 343 339
330 328 329 332 334 335 341 345 342 341 346 349 350 350 350 350 349 349 347 350 348 348 351 350 349 351 346 344 348 350 348 347 346 348 347 350 349 345 346 343 345 347 348 347 345 345 343 342 340
326 327 329 331 334 337 339 341 340 340 344 345 347 348 350 349 349 348 348 348 349 348 350 350 352 351 350 347 345 348 346 347 346 347 350 350 350 347 346 346 345 351 346 348 346 343 345 341 336
326 328 329 331 335 337 339 340 340 341 342 344 345 346 347 348 349 348 346 348 349 348 349 349 351 352 353 351 347 343 345 344 345 346 348 349 348 348 346 346 343 345 348 345 345 341 343 339 336
328 329 330 332 337 344 344 343 342 338 342 342 344 344 345 346 346 348 348 347 348 349 348 349 350 350 352 352 351 346 344 347 348 348 348 348 346 348 347 346 342 344 345 343 342 342 332 336 337
327 329 330 332 338 342 344 344 342 338 336 341 343 344 344 346 345 347 348 348 348 349 348 349 349 349 352 353 351 351 351 350 349 346 343 348 349 350 347 346 343 345 347 346 341 333 327 338 337
326 327 329 331 339 341 344 346 342 339 341 341 343 343 344 345 345 346 347 348 348 348 349 349 349 349 351 353 353 352 349 352 351 352 350 351 351 347 346 344 344 342 349 343 338 331 334 338 337
327 329 330 332 333 343 344 349 346 347 349 345 345 342 343 345 345 345 347 347 348 348 348 349 350 351 350 352 353 352 349 346 349 352 349 347 348 346 348 344 344 345 349 345 331 330 326 338 338
326 330 331 331 332 339 340 339 345 346 346 343 343 342 342 343 344 346 347 348 348 349 349 349 350 351 352 350 350 351 347 345 350 351 351 350 349 350 348 348 343 344 343 334 333 327 318 335 336
326 327 329 331 331 334 338 341 341 347 345 343 344 343 342 342 342 343 345 348 348 349 350 350 350 351 352 352 351 349 348 348 350 349 348 348 348 351 347 347 348 345 333 320 330 334 331 330 336
324 322 327 330 332 332 334 340 342 341 341 344 344 344 345 344 343 342 346 349 349 349 351 351 350 351 352 352 352 350 349 350 348 344 347 347 350 349 350 349 346 341 330 318 322 319 320 323 329
323 323 325 329 332 332 331 336 341 340 342 343 345 345 343 343 344 343 343 347 349 349 350 351 351 351 352 352 353 351 349 351 349 344 353 353 349 348 349 348 345 335 329 318 324 323 320 321 318
324 323 324 323 328 330 332 332 332 341 340 342 342 345 344 343 343 344 344 346 348 349 349 350 353 353 352 353 353 351 350 350 347 347 351 353 350 351 347 345 347 346 344 324 321 321 320 321 327
324 325 323 324 325 330 331 332 336 340 342 341 341 341 342 342 343 345 345 346 347 348 348 350 352 353 352 353 354 353 347 350 346 346 350 351 350 348 347 346 346 346 345 340 321 321 322 327 329
326 324 322 323 325 327 331 332 332 337 342 342 341 341 342 343 344 346 346 346 346 349 349 350 352 354 354 353 354 354 349 348 349 345 346 347 354 352 349 346 347 346 345 342 322 320 323 326 329
326 324 322 324 324 326 326 328 330 331 341 341 341 340 341 341 342 345 347 347 348 350 350 350 351 352 354 354 354 354 353 345 349 347 345 344 347 352 352 349 346 346 344 342 329 320 323 324 327

GFSSGP_850_thetae_018.txt.gz
Theta_e
350 348 350 350 357 354 357 357 351 352 351 351 350 352 350 349 349 351 345 344 343 344 344 343 343 337 330 330 332 335 334 334 331 332 331 331 332 332 332 331 332 334 334 333 331 332 333 337 339
350 351 346 346 358 359 356 353 353 350 350 351 351 350 349 350 347 345 344 344 344 344 343 342 340 335 328 331 333 334 333 331 332 331 329 330 332 332 329 329 332 334 334 333 331 332 336 336 338
351 348 342 346 355 357 356 351 351 349 352 351 352 349 349 348 346 344 343 343 343 343 343 339 337 336 330 331 334 334 332 332 332 331 330 332 333 330 331 330 332 335 335 336 330 332 336 337 338
353 347 344 361 356 352 352 349 350 351 350 349 348 350 349 348 345 343 343 342 342 342 341 337 334 332 330 331 334 334 332 331 329 330 331 332 333 332 336 332 335 336 338 337 331 334 336 337 339
354 350 356 357 356 350 349 349 350 350 351 350 349 352 350 348 344 343 343 342 342 341 337 336 335 332 331 330 333 334 333 331 330 330 332 333 333 338 337 336 336 338 339 340 337 338 338 339 340
347 351 355 352 348 351 350 350 350 350 351 349 349 348 348 346 344 346 343 341 340 339 339 338 337 335 334 333 333 333 334 333 331 330 332 334 334 339 337 339 339 341 339 339 339 338 337 342 343
345 347 350 346 353 353 351 349 350 350 350 349 347 348 348 347 347 347 347 346 344 343 342 340 338 337 337 336 334 333 334 334 331 331 333 334 336 346 344 344 341 341 338 337 344 342 342 342 343
345 343 348 345 346 352 350 350 350 349 350 349 347 349 349 347 347 347 348 348 346 344 343 343 341 339 338 339 336 334 334 334 331 331 333 336 343 347 344 341 340 340 337 341 344 345 346 346 346
351 344 347 344 346 350 349 349 350 349 349 349 349 348 346 347 347 348 348 348 346 344 344 342 341 340 339 338 337 336 334 332 331 331 333 344 348 345 342 343 342 340 338 339 344 344 342 342 344
345 341 343 342 342 344 348 349 350 349 348 349 349 348 347 348 348 348 349 350 346 345 344 344 340 339 338 336 335 334 332 331 331 332 338 344 345 344 339 341 345 341 338 341 344 344 342 342 342
343 342 340 340 343 346 349 350 349 349 349 349 349 349 348 348 348 350 350 348 349 346 343 343 342 337 335 332 331 331 330 331 332 335 337 347 346 347 344 344 342 343 335 343 343 343 342 341 342
334 338 338 341 341 342 347 350 350 349 349 348 349 349 348 348 349 347 349 349 350 348 348 343 340 335 333 332 332 333 333 334 335 338 340 346 345 344 346 345 345 342 344 345 343 342 343 343 340
332 335 340 342 341 341 342 346 350 349 349 349 349 349 349 348 346 345 347 349 347 349 348 345 343 337 335 335 342 334 340 340 344 346 347 345 346 342 346 344 346 344 344 344 343 344 341 342 340
331 331 332 338 341 341 337 341 344 348 349 351 350 350 350 349 348 346 345 349 349 348 348 348 346 344 341 342 345 342 347 346 348 347 347 348 343 345 346 343 344 345 344 346 345 344 344 342 342
330 329 329 331 339 340 341 342 349 349 349 351 351 351 350 348 347 346 344 345 348 347 348 349 347 345 340 344 347 348 348 348 348 347 348 350 346 347 346 343 345 345 345 345 344 342 342 343 337
326 326 327 328 331 340 339 342 347 349 349 349 351 351 350 349 348 345 346 343 345 347 348 349 347 345 344 346 347 350 350 349 347 346 348 349 349 348 347 345 341 343 346 345 345 342 341 342 340
322 325 326 326 333 341 339 339 340 349 349 349 349 351 351 351 349 347 347 348 348 346 349 349 348 346 346 346 346 348 350 347 347 347 348 348 349 349 347 344 343 344 346 345 344 343 342 340 337
324 325 325 326 329 339 339 338 339 350 349 349 349 348 349 350 351 349 349 349 349 349 349 350 350 348 349 346 344 347 346 348 346 344 346 348 349 349 346 344 345 343 344 343 343 343 342 338 329
324 325 325 327 330 338 339 339 339 346 349 349 349 349 349 348 349 349 347 346 349 350 348 350 350 350 350 349 347 344 346 345 346 346 347 346 349 348 344 347 344 345 346 343 342 342 331 327 336
322 323 325 326 328 338 339 340 339 341 344 347 347 348 349 348 347 348 348 348 349 349 348 349 350 350 350 351 351 348 346 343 344 344 347 349 346 345 348 347 344 343 343 344 340 340 325 335 336
322 322 323 325 327 340 341 342 341 337 338 343 345 346 347 348 348 347 348 347 348 349 348 349 348 348 349 351 351 350 350 342 345 345 346 345 344 347 349 346 344 342 341 342 344 340 324 335 335
321 323 324 326 327 328 339 343 345 341 342 340 342 343 344 345 346 346 347 347 347 347 348 348 348 348 349 349 350 352 351 347 346 348 347 347 349 349 350 346 344 345 338 344 346 333 329 336 336
324 323 325 326 326 327 332 339 341 341 344 342 341 341 343 344 345 345 345 347 347 347 347 348 348 348 348 349 349 351 351 350 345 347 347 350 348 348 350 349 347 344 336 341 342 328 321 335 336
325 322 322 326 326 327 329 341 338 345 342 342 341 343 342 343 344 344 344 345 347 347 347 347 348 348 348 349 349 349 349 349 348 344 348 352 350 349 349 350 340 337 340 328 325 325 329 321 335
321 319 320 322 324 328 326 334 338 340 342 342 342 340 343 342 343 344 344 346 346 347 347 347 348 348 349 349 350 350 349 348 346 342 349 350 350 350 349 350 346 343 338 333 319 324 331 324 330
319 319 320 322 324 326 326 331 334 336 342 342 342 340 341 341 342 343 344 344 345 346 347 348 347 348 349 350 350 350 350 349 345 344 350 350 347 345 346 348 348 345 337 333 319 320 323 321 321
323 318 319 319 322 324 326 328 328 332 339 341 341 341 341 341 341 342 343 345 345 346 347 347 348 348 349 349 350 350 351 349 343 346 347 346 346 347 349 348 348 344 337 332 321 319 320 320 320
321 320 321 315 320 322 323 328 329 330 333 337 341 342 342 341 342 342 341 343 345 346 346 347 347 348 349 349 349 350 351 350 344 346 345 344 349 352 349 350 348 343 346 345 342 323 320 322 323
324 322 319 318 317 322 322 325 325 327 329 336 340 343 343 343 343 342 342 342 342 345 347 347 347 349 350 350 350 350 351 351 346 344 345 344 351 352 351 351 348 344 345 345 345 342 321 320 324
325 323 318 321 319 319 323 325 329 326 327 335 340 343 343 343 343 343 344 342 344 345 348 347 346 348 349 349 350 351 351 352 349 345 343 344 348 350 352 350 348 347 346 346 345 343 335 320 322

GFSSGP_850_thetae_021.txt.gz
Theta_e
347 348 349 349 355 352 358 356 350 350 350 350 348 348 349 348 349 350 346 345 343 341 342 342 342 338 334 334 333 335 333 330 331 330 331 331 332 331 331 333 334 334 333 332 333 334 338 339 339
349 349 345 347 356 356 355 352 352 350 350 350 350 349 349 349 346 345 344 344 344 341 342 342 339 333 334 336 336 334 331 331 330 329 331 332 330 329 329 333 334 334 333 331 334 336 336 339 340
349 340 343 349 353 356 355 351 350 351 352 352 349 348 348 348 345 345 344 343 343 342 343 343 336 331 333 334 334 332 331 331 329 329 331 332 330 332 330 334 335 336 333 330 335 337 337 339 340
344 342 346 355 356 352 352 350 349 352 349 350 348 349 348 346 344 343 344 344 344 343 343 340 331 329 331 333 332 332 332 331 330 331 332 332 335 334 333 335 337 339 335 333 336 337 339 340 342
349 349 355 356 353 352 348 349 350 350 350 348 349 348 347 347 343 343 343 343 343 342 341 338 333 329 331 333 332 332 330 329 330 332 333 334 337 337 337 338 339 339 338 336 338 338 340 341 342
351 350 357 351 347 349 348 350 350 350 350 348 347 347 348 346 343 342 342 342 342 341 337 334 333 330 330 332 332 332 330 329 329 332 333 336 338 338 339 340 340 338 338 337 337 340 342 344 344
345 348 351 346 352 353 351 349 350 349 348 347 346 347 347 344 342 341 341 342 341 337 336 334 332 330 329 330 331 333 332 331 330 333 333 337 343 342 342 341 340 337 338 342 341 342 342 343 344
348 342 346 346 354 350 349 349 350 348 349 346 344 347 346 344 343 341 341 340 339 338 337 336 334 333 332 331 331 332 333 331 330 332 334 338 346 344 341 340 339 336 338 344 344 344 344 344 341
348 342 345 342 344 350 349 350 349 349 348 346 348 344 343 344 345 345 345 344 342 340 339 338 337 337 337 335 333 332 333 332 330 332 338 345 344 342 343 343 338 337 342 344 345 342 341 341 343
348 341 342 339 340 349 349 349 349 349 348 349 348 344 344 347 347 347 348 347 343 343 342 341 339 338 338 337 334 333 333 331 330 332 341 343 344 341 342 343 340 337 341 344 343 342 340 341 342
348 346 340 340 342 348 349 349 349 348 349 348 347 347 346 347 347 347 348 347 344 343 343 341 340 339 338 337 336 334 332 331 330 331 341 344 345 344 346 342 344 339 338 342 342 342 340 342 338
335 342 343 340 342 348 348 349 348 348 347 347 343 345 346 347 347 347 347 347 344 343 343 343 340 339 337 335 334 332 330 330 331 335 340 345 344 344 344 343 343 342 344 343 341 341 342 341 337
336 334 333 335 338 347 348 349 348 347 348 347 346 346 347 347 347 347 347 346 347 346 343 343 342 337 335 332 330 330 331 332 333 339 341 343 343 344 345 343 344 344 344 342 342 342 342 342 340
327 328 330 332 337 342 349 349 349 348 349 348 348 347 347 347 347 347 348 346 348 347 346 343 341 336 333 331 333 333 334 337 338 343 345 346 344 344 346 343 342 343 343 344 341 343 343 344 342
327 328 326 327 330 340 347 347 350 348 349 349 349 348 347 347 347 347 345 345 348 347 347 341 340 337 334 333 341 334 342 340 346 345 346 347 345 345 347 345 344 344 344 344 345 344 343 343 337
325 324 327 327 328 338 341 344 348 348 349 349 349 348 348 347 347 346 345 345 342 344 347 347 345 344 341 336 344 342 347 347 348 345 346 348 349 347 347 346 344 343 345 345 345 344 342 342 338
320 325 325 326 326 337 337 338 347 348 350 349 349 349 349 348 348 346 345 344 343 345 344 348 348 346 344 340 345 346 348 347 347 347 346 347 349 349 347 346 343 344 346 345 343 342 339 341 339
324 324 324 325 331 338 338 338 348 348 350 350 350 350 350 349 349 347 346 344 344 344 344 346 349 347 345 343 345 345 349 349 348 346 346 347 348 349 348 345 344 345 341 343 340 343 340 340 335
323 324 323 324 330 338 339 337 348 348 348 350 350 350 350 349 349 348 347 344 345 344 345 345 348 349 346 345 347 346 347 350 348 347 345 345 346 348 348 347 346 345 342 343 340 339 342 330 331
321 322 322 322 325 330 332 336 343 348 348 348 349 350 350 350 349 349 348 346 346 347 346 346 348 349 347 347 346 345 344 347 347 347 345 345 346 347 348 345 347 344 342 343 342 341 339 328 336
320 320 323 322 325 332 337 339 339 348 348 348 348 348 349 349 349 350 350 349 348 348 348 348 348 348 349 348 348 347 346 345 346 346 345 345 346 348 345 347 348 343 342 341 343 341 337 332 335
321 320 322 323 323 324 336 342 340 337 349 348 348 348 348 348 348 349 350 349 349 347 346 348 349 348 350 349 349 349 348 347 346 344 345 345 345 346 346 348 348 344 343 340 340 344 332 332 335
324 323 322 324 323 324 328 335 335 337 342 343 344 346 347 347 347 347 348 349 348 347 347 348 348 348 349 349 349 349 349 349 348 341 343 345 346 344 346 349 349 346 345 341 339 342 331 331 335
323 323 320 321 320 322 324 328 328 341 339 339 340 343 345 346 346 345 345 347 347 347 346 346 347 348 348 349 349 349 349 349 348 346 344 346 347 347 348 349 348 348 345 341 336 331 330 324 333
322 318 320 319 320 324 321 326 328 333 339 339 338 340 342 343 344 345 346 346 347 347 346 346 346 347 348 348 348 348 349 348 348 347 346 344 347 347 348 349 349 348 340 338 331 322 323 327 323
319 319 316 319 320 322 321 326 327 330 336 340 340 339 340 342 342 343 344 345 346 346 347 347 346 347 347 348 348 348 348 348 349 348 347 344 345 348 348 347 348 348 346 344 337 323 321 324 324
320 320 319 317 319 319 322 324 325 328 331 335 339 340 340 341 341 342 343 343 344 346 346 346 347 347 347 347 347 348 348 348 349 348 346 346 343 347 346 346 346 347 347 344 339 326 319 321 321
322 318 320 311 320 322 319 323 324 327 329 332 337 338 339 341 341 342 342 343 343 344 344 345 345 346 346 346 347 347 347 348 349 349 345 343 343 348 347 345 346 348 348 344 336 332 320 320 322
319 321 317 315 315 321 320 321 321 326 327 330 334 340 340 339 340 341 342 342 342 343 344 344 345 346 346 346 347 347 348 348 349 350 346 340 344 347 346 345 349 348 348 343 344 344 340 324 320
320 322 317 320 318 314 320 321 324 324 324 325 330 335 338 341 340 340 341 342 342 343 344 344 344 344 345 346 346 347 347 348 349 350 350 338 344 345 344 348 350 349 349 344 344 344 345 343 332

GFSSGP_850_thetae_024.txt.gz
Theta_e
346 348 348 349 354 351 356 356 349 348 349 349 347 346 348 348 349 350 346 345 343 342 342 343 344 336 330 332 332 332 332 330 331 331 331 331 331 331 333 333 332 331 336 339 337 337 338 339 338
347 348 346 346 353 353 353 351 350 349 349 348 348 349 348 349 345 345 345 344 342 341 342 342 342 332 329 330 332 331 331 330 331 331 331 330 329 330 333 334 333 331 332 336 340 338 339 339 339
348 344 344 349 352 355 353 350 351 350 350 350 348 348 348 348 345 345 344 343 341 342 342 342 336 333 332 334 333 330 331 329 330 331 331 330 331 331 335 336 336 331 332 336 338 338 339 340 340
347 341 346 353 353 351 351 349 350 350 349 349 347 348 346 346 344 344 344 342 341 342 341 340 333 335 335 334 332 331 330 329 330 332 331 336 332 334 336 338 338 335 334 336 337 338 339 341 343
349 349 353 356 353 351 348 349 351 350 348 349 348 347 345 347 344 344 344 343 341 342 342 336 331 333 334 332 331 331 330 330 331 332 335 336 336 336 338 338 339 337 337 337 338 340 342 342 343
349 348 352 350 345 347 349 350 350 350 349 346 345 345 347 345 343 343 343 342 342 343 342 334 330 331 332 331 331 330 329 331 332 333 338 336 337 339 339 338 338 338 338 338 341 343 344 343 343
344 349 348 345 348 352 350 349 349 348 347 346 345 347 347 344 344 344 344 343 343 342 340 336 328 330 332 331 331 330 329 329 332 333 336 340 341 341 340 339 337 338 340 339 342 342 342 342 342
350 340 346 346 352 351 349 349 349 347 347 346 345 346 346 343 343 342 342 342 340 339 338 335 332 329 330 331 331 331 330 330 331 333 338 345 343 342 340 339 336 338 342 342 342 343 342 340 340
349 342 344 342 346 344 349 348 348 348 346 346 346 344 343 342 342 341 341 342 340 337 334 333 332 330 329 329 331 332 332 331 330 333 340 343 343 342 342 338 336 341 344 345 342 340 339 341 340
349 343 343 338 339 347 349 349 348 347 346 348 347 344 342 341 341 341 341 341 338 336 335 334 332 330 330 330 330 331 333 332 330 333 342 345 343 341 342 340 336 338 341 344 342 339 341 342 339
351 351 340 339 340 346 349 348 348 347 347 347 346 344 343 342 342 341 340 339 338 338 337 337 336 335 336 334 333 332 332 333 331 332 344 341 343 343 344 342 342 337 340 343 343 341 341 341 336
342 341 347 340 341 348 348 348 347 346 346 345 345 342 343 343 342 343 344 343 342 341 340 339 338 337 337 337 335 333 333 332 330 331 340 344 344 344 342 343 338 341 342 342 342 341 342 341 334
340 339 336 334 335 346 348 348 348 347 346 346 343 342 344 344 345 345 345 345 343 342 342 340 340 338 337 337 335 334 332 330 330 334 338 344 341 344 344 344 343 344 343 341 342 342 341 342 339
325 330 330 329 329 335 346 348 348 348 348 346 345 345 346 344 344 345 345 345 344 342 343 343 340 339 338 336 334 331 330 330 331 338 341 343 342 342 345 343 343 343 342 342 343 341 341 342 341
323 324 325 326 328 334 344 349 349 348 347 346 346 345 346 345 344 344 344 345 344 344 342 341 342 339 337 334 330 330 331 333 334 341 344 345 345 344 346 346 343 344 344 344 344 344 342 342 337
323 323 325 326 326 333 346 349 348 348 348 347 346 346 346 346 345 344 345 344 344 346 344 343 341 340 336 333 331 334 334 335 342 343 342 345 347 346 346 346 345 344 343 345 344 344 342 341 338
319 323 324 325 325 334 344 342 344 348 348 348 347 346 346 347 346 346 345 345 343 346 344 345 339 338 336 333 333 339 335 341 345 347 345 345 347 348 346 347 346 343 343 345 345 343 342 341 339
322 322 323 325 330 335 343 336 341 347 348 348 348 347 347 347 346 346 346 345 343 344 344 344 341 343 341 338 335 342 341 346 346 347 347 346 346 347 348 348 345 344 344 344 343 341 342 339 338
321 323 325 324 327 337 335 337 346 347 348 348 348 348 348 347 346 346 346 346 344 343 343 343 345 347 345 344 338 345 345 348 349 347 346 346 346 346 347 347 346 345 345 342 343 337 340 340 329
321 322 322 322 323 325 328 336 344 346 348 348 348 348 348 348 347 347 347 346 345 343 343 344 343 346 347 346 342 342 343 346 348 348 347 346 344 345 347 348 347 347 346 342 343 342 341 336 333
319 320 321 324 323 326 334 334 335 346 347 348 349 348 348 348 348 347 348 348 346 344 343 344 345 345 347 347 345 344 345 345 344 347 348 347 345 345 346 346 346 347 347 343 341 343 341 329 334
319 319 321 322 321 322 331 332 337 341 348 346 348 349 349 349 349 348 348 348 347 346 344 345 345 346 346 348 347 346 345 345 344 344 347 347 345 345 346 346 347 348 347 343 340 343 343 327 332
323 320 320 321 320 321 324 330 328 338 349 347 346 347 348 349 349 349 348 345 348 348 347 345 346 347 347 347 348 347 347 346 346 345 344 345 346 343 343 345 346 348 348 345 342 339 343 330 332
320 322 317 316 317 321 321 324 323 337 343 348 346 347 347 347 348 348 347 346 347 349 349 348 346 346 347 348 348 348 348 347 347 347 347 343 344 344 343 344 345 348 349 347 341 339 340 329 329
320 318 319 320 320 324 319 323 326 327 336 339 345 346 346 347 347 347 347 347 347 347 348 348 348 347 346 348 348 348 348 348 347 347 346 341 342 344 344 345 348 348 348 345 338 336 331 326 324
318 316 317 320 319 322 318 322 322 324 333 337 337 339 343 345 347 347 347 346 345 344 346 347 347 347 346 347 347 347 348 348 348 348 348 346 342 344 344 344 346 347 348 347 339 335 331 324 325
318 320 316 316 317 317 318 319 323 325 324 332 336 336 337 340 343 345 346 346 345 344 343 345 347 345 346 345 346 347 347 348 348 348 348 348 345 341 342 347 347 346 347 348 346 341 337 322 324
317 316 320 312 321 321 319 320 324 324 327 328 333 336 338 338 339 342 343 345 345 344 343 343 344 344 344 345 345 346 346 347 347 348 348 348 346 345 341 344 347 346 346 348 347 343 336 330 322
318 318 315 317 314 319 318 320 317 323 324 325 329 334 337 338 338 339 341 342 343 343 344 343 344 344 345 345 345 346 346 347 347 347 347 348 347 344 343 340 346 344 344 347 348 345 338 337 322
324 321 315 320 318 313 315 320 319 319 322 324 326 330 334 334 337 339 340 340 341 342 343 343 343 343 344 344 345 345 346 346 347 347 347 348 349 346 343 341 346 345 344 348 348 344 343 343 342

GFSSGP_850_thetae_030.txt.gz
Theta_e
346 346 349 350 356 359 359 356 351 352 352 350 350 350 352 350 351 359 346 347 345 344 345 345 342 341 344 343 337 338 335 331 331 332 332 333 334 334 333 337 341 338 337 337 339 339 337 338 340
350 349 349 351 361 362 359 354 353 353 351 350 350 350 351 350 348 347 348 349 346 347 346 346 345 344 343 339 338 336 332 331 331 332 331 332 334 334 334 341 340 339 338 338 338 339 338 339 341
352 349 351 356 356 359 357 354 354 352 350 351 352 352 352 349 349 346 348 349 349 345 348 346 343 342 340 338 337 333 331 331 332 330 329 332 335 335 336 340 342 339 337 337 339 340 340 340 341
350 348 348 360 354 353 353 352 352 354 352 351 351 352 349 350 349 349 348 348 346 348 350 340 340 341 338 336 333 331 331 331 331 331 331 334 336 338 341 343 344 337 337 339 341 342 343 343 343
350 353 358 355 351 352 351 351 352 352 352 351 351 351 349 349 349 348 347 347 348 349 348 341 338 336 334 332 331 331 331 331 331 335 333 335 338 338 338 342 340 337 341 343 343 343 342 340 340
357 351 355 349 349 352 352 351 351 352 352 351 350 350 350 349 348 347 347 347 347 348 346 344 331 332 332 331 331 330 330 332 334 336 336 338 339 338 339 339 337 340 343 343 343 342 341 340 341
354 352 352 349 352 351 353 351 351 352 351 349 349 352 350 348 348 348 347 347 347 348 345 344 342 337 332 332 330 330 331 333 337 336 338 339 340 339 338 338 337 339 342 342 342 340 340 341 339
353 351 352 351 351 352 352 351 350 350 350 349 349 351 350 348 348 347 347 347 347 347 344 344 345 346 346 334 330 331 331 333 336 338 341 341 340 340 339 338 340 341 342 342 339 340 340 340 340
354 355 351 349 350 351 351 352 350 348 348 348 348 349 349 349 348 347 347 348 347 347 344 343 344 346 346 346 333 330 331 333 334 343 344 345 352 351 350 341 340 343 344 341 339 339 340 342 337
353 352 347 344 343 345 350 351 351 349 348 348 349 348 349 349 348 347 348 348 348 347 344 343 344 345 345 344 342 343 342 343 346 347 347 351 350 349 349 343 341 341 344 343 340 340 342 341 338
350 350 344 341 341 343 350 351 351 348 349 348 350 349 349 348 349 349 348 348 348 348 344 343 345 346 345 345 346 345 345 345 345 343 348 351 350 348 351 349 347 347 343 347 348 348 346 342 339
350 345 344 343 340 342 347 350 351 349 346 347 349 349 349 348 348 348 348 348 349 348 346 344 344 346 346 345 345 345 345 345 344 344 342 346 349 351 352 350 348 344 347 347 348 347 347 346 343
349 343 340 341 340 338 339 347 349 349 348 347 348 348 348 348 348 348 348 348 348 347 347 346 346 346 346 346 344 344 346 345 344 344 344 350 350 351 351 351 349 348 349 348 347 346 347 342 340
338 341 340 336 333 334 335 343 346 347 349 348 348 348 348 348 348 347 347 347 346 346 346 346 346 346 344 345 346 347 347 346 345 344 344 343 348 346 351 350 349 349 350 350 346 346 347 342 342
336 330 330 330 331 333 334 341 345 345 350 350 348 347 347 347 347 347 347 346 346 346 345 346 346 347 341 341 340 345 346 346 344 343 339 342 342 344 346 349 349 349 351 343 345 346 346 344 340
330 330 333 335 332 332 333 340 341 344 349 351 350 347 347 347 346 347 346 346 346 345 346 347 346 347 346 346 345 345 346 346 343 342 344 342 344 345 346 347 349 350 347 346 350 347 345 341 338
330 334 336 337 333 335 335 339 339 343 348 350 350 348 347 347 347 346 346 346 346 347 348 349 349 348 349 347 348 345 346 344 343 342 346 345 343 345 347 353 352 347 351 349 348 347 346 341 340
332 332 336 338 336 334 337 339 339 345 346 348 350 349 348 348 347 347 346 347 349 349 349 350 350 350 349 349 348 348 346 342 342 343 345 344 342 344 346 352 346 348 350 350 349 343 344 342 340
331 332 334 335 334 334 336 337 338 342 346 347 350 350 349 349 347 346 347 348 349 350 351 351 351 350 348 349 348 346 344 343 342 344 343 344 342 344 345 351 348 351 350 347 347 347 345 342 340
328 329 331 333 332 332 337 338 338 341 347 347 349 350 350 350 349 347 347 347 348 349 350 351 350 346 341 347 348 346 344 343 343 345 348 346 345 346 345 345 349 350 351 345 346 341 345 342 335
326 328 330 332 332 331 332 335 336 337 345 346 348 349 349 350 350 348 347 347 347 348 350 351 348 347 342 348 350 348 345 345 346 346 350 350 345 345 345 343 346 350 348 350 346 345 345 341 337
326 326 327 328 330 333 334 338 339 338 342 345 346 348 349 350 350 349 347 347 347 348 350 351 351 350 348 340 348 346 345 344 345 346 349 351 347 346 346 344 345 345 351 352 348 349 346 343 338
325 325 326 326 328 330 332 335 336 337 338 340 343 345 348 349 350 350 349 347 347 349 350 351 351 346 351 342 346 351 348 347 346 347 349 351 352 347 351 346 345 346 346 350 349 347 343 346 337
325 325 326 327 326 329 332 334 336 337 339 338 340 343 347 348 349 350 351 349 348 349 350 351 351 341 343 341 341 349 351 349 348 349 350 351 350 351 347 350 345 346 347 347 351 348 344 341 336
326 327 328 327 328 328 331 333 334 335 336 338 339 339 346 348 349 350 351 351 350 349 351 351 352 346 342 342 343 345 346 348 351 352 352 351 350 349 350 345 344 348 343 345 347 349 345 338 335
327 327 327 328 327 327 329 331 333 334 334 334 335 336 342 347 349 349 351 351 352 351 349 351 351 343 342 343 343 344 345 349 353 353 353 353 351 350 351 351 343 343 343 344 346 349 346 338 326
328 330 327 327 327 328 328 329 330 332 334 334 334 335 336 343 348 350 350 351 352 353 352 350 346 343 344 344 344 345 345 346 352 352 352 353 353 352 353 352 341 342 342 343 345 349 342 336 324
328 328 327 327 329 329 327 329 330 332 333 334 334 335 337 342 347 349 350 350 352 353 354 353 344 339 340 344 345 345 345 346 346 347 348 349 353 350 353 352 347 346 343 341 344 347 346 342 334
327 328 328 328 328 329 329 329 331 331 333 333 335 335 336 340 345 347 347 349 350 352 354 355 355 349 342 340 340 343 344 345 345 345 346 347 347 348 347 348 345 348 349 341 342 346 351 344 341
327 328 328 328 330 328 330 330 329 329 330 333 333 334 336 338 339 341 344 346 348 350 352 353 354 355 349 343 339 339 340 341 343 344 345 345 347 347 347 348 348 345 351 347 343 344 349 345 345

GFSSGP_850_thetae_033.txt.gz
Theta_e
345 348 350 351 358 359 363 359 351 354 353 351 350 353 353 352 356 357 343 339 334 339 337 339 337 338 341 341 335 333 332 331 332 333 333 335 339 333 336 340 338 337 337 339 339 337 337 340 342
346 352 352 354 362 365 360 353 355 353 352 351 351 351 352 352 351 351 344 337 335 337 343 345 337 338 343 338 338 336 332 331 332 332 333 337 335 336 341 342 340 338 338 339 339 339 339 341 341
350 352 354 357 363 362 360 354 354 352 351 351 353 353 353 351 351 351 347 348 342 343 349 346 340 344 342 338 337 333 331 331 332 330 332 334 335 336 341 342 338 337 338 339 340 340 340 341 342
352 352 351 359 360 355 354 353 354 353 351 351 352 353 352 351 350 351 348 346 349 349 348 344 344 343 339 337 333 331 331 332 330 330 332 336 344 343 343 342 336 339 341 342 343 343 342 342 340
353 352 361 362 353 352 352 352 352 352 352 351 353 354 352 350 350 350 349 350 346 350 350 345 343 342 338 334 331 331 331 331 333 332 335 337 338 337 341 337 339 343 343 343 343 341 340 339 339
357 356 361 358 351 351 351 350 351 352 352 352 353 352 352 350 350 350 349 347 350 349 346 346 342 342 335 332 331 332 331 331 336 334 336 338 338 339 338 337 341 343 343 342 341 341 340 340 341
357 358 358 348 348 350 351 349 351 351 351 352 351 355 351 350 350 349 349 349 349 346 345 347 346 338 332 331 330 330 332 334 336 336 339 339 338 338 338 337 340 343 342 341 340 340 341 338 338
354 354 354 352 351 349 346 347 347 350 352 351 352 354 352 350 348 349 349 349 349 346 344 344 345 346 346 334 329 331 332 336 336 339 340 340 339 338 338 338 339 342 341 339 339 338 336 334 335
352 356 355 346 347 349 346 345 346 348 350 350 350 352 351 349 349 349 348 349 348 345 343 342 344 346 348 347 336 331 332 334 339 341 340 347 350 349 348 342 341 342 342 339 339 336 343 342 337
350 353 354 345 343 347 347 344 345 347 348 349 350 352 350 350 348 349 348 348 348 345 343 342 344 345 346 344 338 345 344 344 347 349 342 351 350 350 352 337 341 341 342 341 340 341 343 345 346
348 354 350 343 342 346 346 346 344 345 349 349 351 352 350 350 349 348 349 348 348 345 343 344 345 345 345 344 343 345 344 346 348 350 351 350 350 351 347 347 346 345 342 346 347 348 344 342 342
348 347 346 343 341 343 346 346 347 344 343 347 350 351 351 350 349 349 349 349 348 346 344 343 345 345 345 346 344 344 344 345 345 347 344 348 350 350 351 349 349 347 348 349 349 348 347 344 341
346 346 344 344 342 340 343 347 348 347 344 345 349 351 351 350 350 349 349 349 349 346 344 344 346 346 347 348 345 345 345 344 344 346 348 351 350 349 349 350 349 349 349 348 346 347 346 344 341
343 344 344 342 341 340 339 345 346 348 347 348 348 350 350 350 349 349 348 348 348 347 345 345 346 347 348 347 348 346 345 346 345 345 347 344 349 347 350 349 349 348 349 349 348 347 346 346 342
342 340 343 343 339 338 337 342 346 347 349 349 349 349 349 350 349 349 348 347 347 347 346 346 347 348 348 348 349 348 347 346 345 345 346 350 346 347 349 350 348 349 349 344 346 349 348 342 342
341 341 340 339 337 336 337 341 343 345 349 350 349 348 348 349 349 349 348 348 347 347 348 347 346 348 349 349 349 348 347 346 345 344 345 346 343 349 350 352 350 351 348 347 348 345 344 343 338
334 338 339 339 338 338 337 340 341 344 347 349 350 349 347 348 348 348 348 348 347 348 348 348 348 347 349 350 350 350 347 347 346 344 344 346 344 345 351 351 350 347 350 349 345 347 342 339 339
335 336 338 340 340 338 338 339 340 342 345 347 350 350 348 347 347 348 348 347 347 348 348 349 349 348 349 351 351 350 348 348 346 344 344 349 349 346 349 352 353 347 351 348 348 345 343 342 339
336 335 336 339 339 339 339 340 340 341 344 346 349 350 350 348 347 346 347 347 347 347 349 350 350 350 351 351 351 349 348 347 345 344 344 348 351 352 353 354 353 349 349 348 348 347 344 343 338
335 335 336 337 338 339 339 340 340 340 343 345 348 349 350 350 349 346 347 346 346 349 350 351 351 351 351 352 351 349 348 345 344 344 345 348 352 353 354 353 352 350 351 347 343 344 346 341 337
330 333 335 335 337 338 338 339 339 339 340 344 346 349 349 350 350 348 347 346 346 348 351 352 352 352 352 352 351 350 348 345 345 345 346 350 354 354 354 355 349 354 350 350 350 346 345 343 337
328 329 331 332 335 338 337 339 339 339 339 345 345 349 349 349 350 350 347 347 347 348 351 352 353 352 352 350 352 350 348 346 345 346 346 350 353 354 355 352 353 352 350 350 351 350 349 341 338
328 329 329 330 333 334 335 339 339 339 339 341 344 346 348 349 350 350 350 347 346 347 349 351 352 353 352 352 351 352 349 346 346 346 347 348 353 354 353 356 353 352 350 350 347 352 343 346 342
328 327 328 329 329 333 333 335 338 338 339 340 341 342 345 347 349 350 351 349 347 347 349 351 353 352 351 351 346 351 350 348 347 347 348 350 351 354 354 355 354 351 353 354 353 352 350 346 344
328 328 328 328 329 330 332 333 336 337 337 338 339 340 341 344 347 350 351 350 349 347 348 350 352 352 351 351 353 348 350 349 351 348 349 349 350 349 352 350 352 352 352 355 352 352 352 338 344
328 328 329 330 329 329 330 333 334 335 336 336 338 338 340 343 347 350 351 352 350 349 349 350 352 353 355 346 352 342 343 355 353 352 351 351 350 349 348 350 352 352 355 349 353 354 353 350 332
330 330 329 331 330 330 330 331 332 334 335 336 337 338 339 342 346 348 350 352 352 351 350 350 352 351 344 344 340 340 340 344 355 355 353 356 353 350 349 352 354 355 354 354 352 354 353 351 340
331 329 329 330 332 332 332 332 332 334 334 336 337 337 337 339 344 347 349 351 353 353 352 351 351 347 334 336 337 340 343 344 347 354 355 356 355 353 353 351 354 354 353 352 352 353 354 350 347
329 331 330 330 330 332 334 333 333 335 335 335 336 336 336 337 341 346 349 350 352 353 354 354 354 355 351 338 338 341 343 344 345 345 349 351 353 355 351 355 353 349 347 350 351 350 353 352 346
330 330 331 331 334 330 333 333 332 333 333 335 335 335 335 337 339 345 349 349 350 352 354 355 355 356 354 346 340 340 342 343 345 345 346 347 348 348 352 350 353 350 346 350 352 349 350 354 354

GFSSGP_850_thetae_036.txt.gz
Theta_e
346 349 352 352 359 360 363 360 354 355 355 352 353 354 354 353 354 357 343 341 335 335 335 337 341 342 341 339 332 333 332 333 332 334 337 338 332 336 337 337 337 337 338 338 337 337 340 340 339
349 351 352 354 361 365 363 355 356 354 352 353 352 352 352 353 347 344 342 335 334 334 338 336 340 341 340 337 334 332 332 332 332 341 343 336 336 341 339 339 337 338 339 339 339 339 340 341 338
350 354 353 358 361 362 361 355 354 352 352 353 354 354 352 352 348 344 342 334 335 341 345 336 338 342 341 339 336 332 331 332 330 333 335 335 333 341 339 336 337 338 339 340 340 340 341 343 341
352 352 352 358 361 356 357 356 352 354 353 353 353 355 352 351 349 342 337 335 334 346 348 338 339 342 343 338 333 331 331 331 330 331 335 338 339 342 337 338 341 341 342 342 341 341 341 337 337
353 354 359 359 359 355 353 353 352 352 352 353 354 353 352 352 346 340 343 341 345 348 351 337 343 343 337 334 331 331 332 331 332 333 337 337 336 340 336 341 342 342 342 340 339 339 339 339 338
355 347 357 362 357 353 351 350 353 352 353 354 353 351 351 350 348 349 346 348 350 349 350 342 342 342 335 331 331 331 331 334 333 335 338 338 338 338 337 342 343 342 341 339 339 339 338 337 337
342 349 354 353 353 353 352 351 352 351 352 354 352 355 351 350 348 347 350 348 350 348 350 341 343 338 333 331 331 331 332 336 335 337 338 337 338 337 336 342 342 341 340 339 338 338 336 337 336
354 358 360 358 348 348 349 349 350 352 352 354 352 353 352 350 350 349 348 349 348 345 348 346 345 335 331 330 330 331 333 336 336 339 340 340 338 338 336 339 341 340 339 337 337 337 334 332 334
350 355 359 354 349 346 344 348 349 350 351 352 354 351 350 351 349 349 350 350 347 346 346 347 347 338 343 332 329 332 334 337 339 340 340 345 348 348 347 342 340 341 339 338 338 340 344 338 336
350 352 350 350 347 349 344 345 347 348 349 353 352 351 350 349 349 349 349 349 347 345 344 345 345 347 346 346 331 332 333 337 346 348 334 346 347 349 351 338 339 340 341 341 338 343 344 345 347
348 351 346 345 346 346 345 344 346 346 349 353 352 351 350 349 349 349 349 348 348 343 342 344 345 346 345 345 334 340 343 345 349 347 335 343 348 347 348 345 347 345 345 346 338 343 344 346 345
348 347 347 345 345 345 346 344 343 345 347 352 352 350 350 349 350 349 349 348 346 343 342 344 345 345 344 345 341 345 344 347 348 347 344 348 346 348 342 347 349 349 347 346 347 346 345 340 337
345 347 347 345 344 346 343 346 346 345 348 350 352 351 351 350 350 349 348 348 347 345 343 345 346 342 344 347 343 345 345 345 345 347 340 350 348 350 346 351 348 350 349 346 348 348 346 342 337
344 346 346 346 344 341 342 346 343 343 345 348 351 351 351 350 350 350 349 348 348 346 344 345 346 343 345 347 345 346 345 344 346 346 345 347 352 350 349 349 348 348 349 347 349 346 345 343 341
341 344 345 345 343 341 339 342 347 346 346 348 350 351 350 350 351 349 350 349 346 346 344 344 346 347 345 346 348 345 347 347 344 346 346 344 350 348 347 350 349 349 347 346 344 344 345 343 340
342 344 345 344 344 341 338 339 344 348 348 348 349 350 351 350 348 349 349 349 349 346 345 345 346 348 344 345 346 345 348 346 347 345 346 344 343 350 346 349 351 344 347 347 345 344 346 339 341
342 343 345 345 343 340 338 339 342 348 348 350 349 348 349 350 348 348 347 348 347 347 346 346 346 347 347 346 347 345 347 348 346 346 345 345 341 344 348 348 348 349 349 348 346 344 344 340 339
341 338 342 343 340 339 338 338 341 342 348 350 350 349 348 349 349 348 347 347 347 348 347 346 347 348 348 347 348 350 349 347 347 346 344 345 346 342 345 351 351 350 349 346 344 345 340 342 340
339 336 337 339 339 339 339 339 342 343 346 349 351 350 349 348 348 349 348 348 348 348 348 348 347 347 348 348 348 351 348 348 347 346 344 344 347 344 343 349 352 348 348 350 344 341 342 343 339
339 338 335 335 338 340 340 339 340 342 344 345 349 351 350 348 347 348 348 348 348 348 349 348 347 348 350 348 349 348 350 348 348 345 345 344 346 349 346 346 353 352 351 346 341 345 347 342 337
339 339 337 336 336 339 340 341 342 341 341 343 348 349 350 349 348 348 348 348 347 349 348 348 348 349 349 349 351 350 349 348 348 345 344 345 346 348 349 351 349 352 351 351 347 335 344 341 337
333 335 335 336 336 339 342 343 344 340 340 344 343 348 350 350 349 348 349 348 347 348 348 348 349 349 350 349 351 351 349 349 347 345 345 346 347 346 352 352 348 351 346 351 348 340 345 346 336
328 330 332 332 334 335 336 339 340 341 341 342 345 347 349 350 350 350 348 348 348 347 351 349 349 350 352 349 354 351 351 349 345 346 346 346 347 351 349 354 348 344 348 354 350 348 343 340 343
328 328 329 329 331 336 335 337 341 341 342 342 343 344 349 349 350 351 350 348 347 348 352 353 351 352 351 351 348 354 351 349 347 346 347 346 349 353 352 354 353 348 344 353 352 347 342 344 341
328 328 329 330 331 331 333 335 338 337 340 341 341 344 348 348 350 352 352 349 348 349 351 353 354 352 351 349 346 347 354 351 349 347 346 348 350 351 352 349 354 352 347 347 352 346 348 335 341
328 328 328 331 330 329 331 333 335 336 336 337 339 341 343 347 348 352 353 351 349 348 350 352 352 351 349 347 346 342 349 352 345 347 348 347 350 352 351 351 349 346 344 348 352 345 352 347 333
329 329 328 328 329 329 329 330 331 335 335 337 337 339 342 344 346 350 352 352 350 349 349 351 352 351 350 346 347 343 343 344 340 347 348 351 349 351 350 349 350 350 349 345 348 349 346 351 345
329 330 329 330 333 334 332 336 334 335 337 337 338 338 340 341 344 349 352 353 352 350 349 350 352 351 347 346 340 337 334 336 338 342 349 350 354 349 352 350 349 350 351 350 350 347 346 352 349
329 332 330 329 330 332 335 332 337 338 337 338 339 337 339 341 343 347 352 352 354 352 351 351 352 353 352 347 337 335 336 334 333 338 345 350 353 357 349 356 352 350 350 347 350 349 348 348 350
330 331 332 332 335 332 334 334 334 337 338 337 337 337 338 339 344 346 350 352 354 355 353 353 353 354 354 351 349 342 338 334 334 337 340 346 351 351 357 351 357 353 352 345 346 345 343 352 351

GFSSGP_850_thetae_039.txt.gz
Theta_e
347 347 349 349 359 356 360 358 354 356 355 353 351 354 353 350 352 352 344 342 338 336 334 335 335 337 336 330 332 338 332 333 335 338 331 333 335 337 336 336 337 338 337 337 338 340 336 330 325
346 350 352 351 360 363 363 356 357 354 353 353 352 352 352 349 347 345 343 340 335 334 334 337 340 338 334 331 338 332 332 333 342 339 333 337 341 337 336 337 338 338 338 338 339 340 342 338 332
347 352 351 356 360 361 363 356 355 353 352 352 353 352 352 347 344 342 341 338 334 336 339 341 340 339 333 333 331 332 331 331 334 334 332 337 339 335 337 338 338 339 340 340 340 342 339 337 338
351 353 352 359 359 357 356 355 353 353 354 353 351 352 351 344 344 342 338 335 337 338 338 339 338 337 336 333 331 331 331 330 332 335 334 339 340 337 340 341 341 340 339 338 338 337 337 337 338
352 352 358 357 357 354 351 352 353 354 354 353 352 352 350 345 343 338 334 339 346 345 337 338 338 338 339 332 330 331 330 331 334 337 335 337 338 339 341 341 341 339 338 337 337 335 337 337 337
349 345 355 359 357 354 353 352 353 354 352 352 351 351 348 344 341 335 334 346 349 347 345 339 340 340 334 331 330 331 332 333 335 337 337 337 338 339 342 341 340 339 338 338 337 337 337 338 337
344 352 354 355 356 355 352 352 354 354 353 351 350 352 342 338 338 336 335 346 347 348 340 341 338 335 332 330 331 331 335 334 336 338 337 338 337 338 342 340 339 338 336 333 334 337 337 337 339
346 345 350 352 357 356 350 349 352 354 354 352 351 351 347 347 346 341 346 345 349 349 343 341 335 333 330 330 331 332 336 335 338 339 338 337 337 336 340 341 339 337 335 334 337 336 333 337 341
350 351 356 352 351 349 348 351 353 353 352 353 352 350 348 348 345 347 348 348 350 347 343 337 333 332 329 329 330 333 335 338 340 339 341 344 347 345 342 340 341 339 335 336 340 343 337 336 339
351 352 351 348 347 346 346 349 352 353 352 352 351 350 348 345 348 349 347 349 348 345 340 334 331 330 329 329 331 333 338 342 341 338 342 343 346 343 341 340 341 341 340 338 342 343 345 344 342
348 351 346 346 346 346 346 347 349 353 353 351 350 350 350 348 348 348 346 348 346 346 340 339 333 332 331 329 330 332 344 347 343 337 336 341 344 342 344 341 341 343 346 343 342 344 343 341 342
348 347 346 346 346 345 345 345 345 353 352 351 351 350 350 349 348 349 348 348 346 345 341 343 342 341 340 337 330 342 345 344 348 343 342 343 336 344 344 347 348 346 345 345 344 345 340 339 343
345 348 347 345 344 344 342 345 351 353 352 350 350 349 349 350 349 348 347 348 345 343 341 343 344 343 345 346 341 344 344 346 348 345 342 345 344 347 349 348 347 349 345 344 344 345 340 336 336
344 345 346 343 345 345 344 345 348 353 351 350 350 349 349 349 348 348 349 348 344 343 342 343 344 341 344 346 342 345 346 345 348 346 343 344 345 347 347 349 348 348 347 343 343 343 338 334 338
343 345 347 347 345 345 344 345 344 353 351 351 351 349 349 349 349 347 347 349 345 345 343 344 344 340 344 348 347 345 347 345 347 346 346 344 348 346 349 348 348 348 346 345 344 343 341 339 339
342 341 344 345 343 343 344 348 347 350 352 351 351 350 350 349 348 349 346 348 349 347 344 345 345 344 343 346 346 345 344 346 346 343 345 345 344 347 347 346 347 346 349 345 345 345 341 340 341
339 343 340 343 342 343 336 338 345 345 350 351 351 351 350 350 349 348 345 345 347 347 346 346 345 346 345 342 343 344 343 345 346 347 345 345 340 346 343 346 348 345 347 345 346 344 344 340 339
340 340 339 341 343 341 338 335 346 347 350 347 351 351 350 351 350 350 349 347 345 346 346 344 344 345 345 343 339 341 344 344 345 348 346 344 344 341 343 348 345 347 348 346 345 344 343 340 339
338 340 337 337 340 340 340 335 348 349 350 350 349 350 351 350 350 351 350 350 349 343 347 344 345 345 345 346 338 338 337 346 347 347 346 344 344 346 343 345 349 348 350 347 344 341 337 338 338
335 339 339 334 336 336 338 336 336 347 350 349 348 348 349 350 350 349 348 350 349 349 347 345 345 346 345 346 345 339 341 345 343 346 346 344 344 344 344 342 351 349 351 344 343 341 341 342 336
332 335 337 337 333 334 337 337 337 346 345 346 348 345 350 349 349 349 347 348 348 348 347 346 346 346 345 344 347 344 346 349 348 347 344 346 344 343 343 345 347 352 351 350 345 341 344 339 337
332 333 336 338 336 334 336 338 337 342 345 348 349 347 347 348 349 349 348 348 348 348 348 347 347 347 345 345 347 347 343 350 348 348 345 343 345 344 343 344 348 347 351 346 348 336 344 341 336
333 331 334 337 336 332 335 339 339 337 343 345 346 344 349 348 348 349 348 348 348 348 348 347 347 348 347 347 347 347 346 347 348 349 346 344 343 346 343 343 350 346 348 345 349 341 344 343 337
333 331 328 332 332 331 329 336 337 339 338 339 344 347 349 349 348 348 349 348 348 348 349 348 347 348 348 347 348 347 347 347 348 347 347 345 345 346 349 348 351 347 345 347 352 347 341 337 340
331 325 324 325 329 329 326 329 329 335 337 337 340 346 349 350 349 348 349 348 348 348 348 349 348 347 347 347 346 347 345 347 346 345 344 347 346 346 349 352 350 349 345 346 350 352 345 337 340
328 326 322 324 325 325 326 327 329 330 332 337 340 344 349 350 348 349 349 348 348 348 348 348 348 347 348 348 347 345 347 350 349 345 346 345 347 346 347 349 350 346 344 344 342 346 344 341 334
326 325 323 323 325 325 325 324 325 327 330 329 333 340 348 349 350 350 349 348 348 348 347 348 349 349 348 349 348 345 344 347 344 343 346 346 347 349 349 351 350 350 349 345 343 343 343 345 336
326 325 324 323 324 325 326 326 327 326 327 330 329 331 346 348 350 352 350 349 348 347 347 348 349 349 349 349 348 342 337 339 341 340 343 347 347 348 352 351 351 350 349 349 347 342 341 342 343
325 325 325 323 322 324 329 329 328 327 327 329 330 332 342 347 349 352 351 350 350 348 347 347 349 350 350 349 347 345 339 337 339 339 337 343 347 347 349 353 353 350 349 349 349 345 343 343 343
327 325 324 325 324 325 325 327 331 331 329 329 331 333 338 345 346 352 352 351 351 349 348 348 348 348 348 347 347 349 346 340 338 338 335 336 340 347 348 349 350 355 352 350 350 344 340 344 342

GFSSGP_850_thetae_042.txt.gz
Theta_e
346 341 347 350 357 354 360 356 354 356 355 351 347 350 351 348 352 347 343 341 339 338 336 333 334 330 330 333 332 332 333 336 332 332 335 335 336 339 343 345 336 336 336 339 337 331 326 332 332
347 348 350 351 360 362 359 350 357 355 353 353 352 351 351 348 346 345 342 340 337 336 334 334 336 329 330 334 331 332 336 343 333 336 338 337 337 337 337 338 338 338 338 339 341 341 334 327 339
347 350 351 353 357 361 361 353 354 352 352 352 351 352 350 346 345 343 341 338 335 336 333 335 333 330 332 331 332 331 334 334 333 334 338 336 336 337 338 339 339 339 339 341 339 336 338 331 337
350 352 351 358 358 356 357 355 353 353 353 352 351 350 344 345 343 342 340 336 333 334 337 339 332 330 330 330 331 330 331 334 334 335 345 336 339 339 340 340 338 338 337 337 336 337 336 336 341
351 352 356 356 356 354 353 351 352 354 353 351 351 348 343 344 343 340 338 335 335 340 339 339 333 331 330 330 330 330 331 335 335 334 338 337 341 340 340 338 337 337 338 337 337 337 336 337 340
348 346 354 356 354 353 350 352 352 354 353 351 348 347 340 343 341 338 337 336 338 339 339 336 337 335 330 330 331 332 332 336 337 335 337 337 341 341 339 338 337 337 338 337 337 337 337 338 338
345 350 351 353 354 354 352 352 353 352 352 351 349 343 340 342 338 339 342 340 341 337 338 337 339 332 330 330 331 334 333 336 336 337 336 337 341 341 339 338 336 336 336 335 335 336 338 338 340
344 345 353 354 355 355 350 353 353 352 352 350 345 339 337 341 336 345 346 348 347 343 338 336 333 330 329 330 331 335 334 337 337 336 336 336 339 340 339 338 337 335 336 337 331 334 338 341 340
345 348 356 353 353 350 350 353 353 352 351 351 350 343 339 337 336 346 348 347 347 342 338 336 331 330 329 330 333 335 336 338 337 336 337 337 336 340 340 339 338 337 337 340 342 339 336 341 342
351 353 354 348 347 348 348 351 353 352 352 351 346 340 338 334 335 344 349 349 349 344 339 334 330 329 329 331 334 335 338 339 337 341 344 339 337 337 339 339 340 340 338 341 343 344 343 340 341
352 352 347 345 347 347 346 353 352 352 353 350 347 346 346 339 340 346 350 349 348 343 341 333 329 328 328 331 334 339 341 338 336 340 343 344 339 337 338 339 343 345 343 340 343 343 340 343 344
349 351 348 344 345 347 345 347 352 352 351 350 347 347 346 343 347 346 348 349 348 345 338 332 329 328 328 330 333 344 345 343 342 341 341 339 345 345 343 345 345 346 344 343 344 341 339 343 343
344 345 347 347 344 344 343 346 352 352 351 349 348 347 346 346 347 348 348 348 348 344 336 330 329 329 329 330 336 343 343 346 345 343 341 337 343 345 345 346 346 345 344 344 342 342 337 338 339
343 343 345 344 341 343 342 346 352 351 350 350 349 347 347 347 346 346 348 348 346 345 341 330 332 331 330 340 341 344 345 346 347 345 341 345 346 346 344 346 346 347 344 343 340 338 340 338 339
337 343 345 342 342 342 343 347 354 351 350 350 350 349 348 347 345 346 348 347 346 345 340 335 336 336 340 340 343 345 346 346 346 346 344 344 344 344 345 346 346 343 344 342 341 340 336 335 335
336 339 347 345 344 345 344 350 353 350 350 350 349 349 349 349 347 347 348 348 345 344 340 341 340 338 342 344 343 345 347 345 345 346 345 345 344 342 346 346 347 345 344 346 344 341 338 336 338
331 336 341 346 345 345 345 348 352 350 349 349 349 348 348 349 347 347 346 348 347 344 341 342 343 342 342 343 343 346 346 346 346 344 344 345 343 342 342 346 349 343 345 344 343 344 340 339 338
332 338 337 340 339 344 346 348 352 350 350 349 348 348 348 348 347 347 345 346 348 345 344 342 343 343 341 342 341 344 346 345 346 348 346 345 344 339 342 344 347 344 344 345 344 345 341 341 339
330 335 338 337 337 339 344 351 353 351 350 350 350 349 349 349 347 347 346 346 348 348 347 345 343 344 343 343 342 342 346 344 345 347 348 345 344 344 342 345 343 345 344 346 346 344 341 340 338
327 329 336 337 337 334 336 350 349 349 350 351 351 350 350 349 349 348 347 347 346 347 347 346 344 345 345 344 342 339 343 342 344 346 347 346 345 343 344 342 347 346 346 348 343 342 340 339 336
326 327 329 336 336 333 335 342 347 348 350 347 348 351 351 350 350 349 349 346 345 347 347 347 345 344 344 344 342 338 336 339 341 344 346 345 345 344 343 342 346 347 347 349 345 340 341 336 336
325 326 328 332 335 336 333 339 349 350 349 346 347 350 350 350 350 350 350 350 347 346 346 346 345 344 344 344 343 342 335 334 336 340 345 346 345 346 344 342 342 345 350 349 348 340 342 336 336
326 326 328 331 332 333 335 333 343 350 352 349 346 347 349 350 350 349 349 350 350 349 346 343 346 345 344 345 345 340 341 335 337 342 345 345 344 346 344 344 343 347 346 349 348 336 344 341 337
329 329 329 329 328 333 334 331 333 352 352 348 345 342 342 346 349 349 349 348 350 350 349 347 346 345 345 345 346 344 341 340 339 345 347 348 344 343 343 346 342 347 345 345 345 346 339 344 336
330 328 330 331 328 330 331 326 330 337 347 346 346 345 345 343 348 349 348 347 348 349 348 349 347 346 346 346 347 346 341 342 338 343 346 348 346 344 344 346 348 345 345 342 343 348 344 341 338
330 326 326 332 326 329 322 323 325 326 335 344 346 348 345 343 347 348 348 348 347 347 348 348 347 347 347 347 347 346 342 342 341 341 343 346 346 345 345 346 349 349 346 344 342 349 349 346 338
330 330 322 319 319 320 322 322 323 324 324 328 341 346 345 346 348 347 348 348 348 347 347 347 347 347 347 347 347 346 345 343 340 339 342 342 344 346 346 346 346 348 348 347 343 342 342 345 340
325 323 325 317 323 323 322 322 323 323 323 322 326 343 344 348 348 347 347 348 348 348 347 347 347 347 347 347 347 346 346 344 341 340 342 342 342 345 345 347 348 349 349 348 346 343 341 345 343
328 325 322 321 317 321 322 324 323 322 323 323 323 340 346 348 348 348 347 348 348 348 348 347 348 347 347 346 346 346 347 347 345 344 340 342 341 344 346 347 348 350 350 350 349 348 346 341 341
331 323 321 323 320 318 320 325 326 324 324 324 325 328 346 348 349 348 347 348 348 348 348 347 347 347 347 345 345 346 347 348 347 343 341 339 341 342 346 346 349 352 353 351 349 349 348 346 340

GFSSGP_850_thetae_045.txt.gz
Theta_e
341 338 341 348 358 354 359 356 353 356 353 350 346 348 349 349 350 347 342 341 340 334 334 335 333 330 333 332 332 333 338 335 337 340 341 343 338 338 341 334 335 336 338 333 327 328 333 336 331
342 345 349 351 359 362 359 351 357 355 352 349 348 350 349 349 345 344 342 340 339 333 336 334 330 331 332 331 333 338 331 334 339 342 339 341 343 344 343 336 337 338 340 340 336 329 336 338 339
346 349 350 352 354 360 361 352 354 352 353 351 351 350 348 346 344 342 341 340 337 334 334 332 329 332 331 331 334 342 333 334 342 341 344 344 342 338 338 338 338 339 340 338 338 336 334 339 340
349 351 351 357 359 355 355 354 351 352 352 352 349 346 343 345 343 342 339 338 335 333 335 330 330 333 331 331 332 339 332 333 343 341 337 337 338 340 340 339 338 338 337 337 336 337 335 340 341
351 352 356 356 356 354 351 352 352 353 353 351 348 344 344 343 342 340 338 335 333 333 333 330 330 330 331 330 330 332 334 334 345 341 339 339 339 337 336 337 337 336 336 336 336 336 337 340 340
348 347 354 355 354 352 351 351 353 353 351 346 344 342 341 343 341 339 336 335 332 334 333 330 330 330 330 330 331 332 335 333 338 336 340 340 339 338 338 337 336 335 335 335 336 337 336 338 341
345 348 353 354 355 354 353 351 352 353 351 349 343 339 340 342 340 338 334 334 337 337 336 331 330 329 330 331 332 333 336 336 336 336 340 340 338 338 337 334 334 334 333 335 336 337 336 337 341
344 346 352 354 355 356 350 351 352 352 351 348 344 340 339 342 339 337 336 339 339 337 333 336 332 329 330 331 334 334 336 336 336 336 338 340 338 338 337 334 335 336 335 332 335 339 339 340 341
342 346 353 354 353 353 350 352 353 352 350 349 346 342 341 340 338 338 340 339 338 339 336 333 330 329 330 331 334 334 337 336 336 335 336 339 338 338 338 336 335 339 341 341 338 337 341 339 338
349 350 351 348 348 348 348 352 353 351 351 343 341 341 340 338 342 342 344 344 341 337 339 334 330 329 330 332 334 335 337 336 336 337 336 337 338 338 339 339 338 337 339 342 344 342 339 341 340
352 352 348 346 346 346 346 352 352 351 352 344 338 340 338 343 344 345 345 343 342 338 339 332 329 329 330 334 334 337 338 337 339 343 338 336 336 337 339 340 341 340 341 342 343 341 343 341 341
351 350 351 346 346 348 346 352 352 352 351 350 342 340 338 345 345 345 346 344 343 337 338 331 329 328 330 334 337 339 337 336 339 341 343 342 336 338 339 343 344 344 343 343 340 340 344 343 341
347 347 347 350 350 347 344 351 352 352 351 347 340 338 337 343 345 345 343 346 345 340 338 331 328 328 329 332 339 342 342 341 341 340 339 342 345 344 342 344 345 343 343 343 342 339 339 340 340
339 340 342 344 345 341 342 344 352 351 348 343 343 339 337 337 340 347 345 344 345 341 338 332 328 328 328 332 341 343 345 345 344 341 343 342 345 345 345 344 345 345 345 342 341 342 341 339 338
333 338 337 340 342 343 344 352 353 350 348 346 345 344 341 342 343 345 344 343 343 342 336 332 328 328 328 333 339 344 345 345 346 342 342 345 346 344 344 344 342 341 341 339 339 338 337 339 339
333 332 337 339 344 341 343 347 351 349 348 347 346 346 344 346 346 346 346 346 344 343 341 332 328 329 330 337 342 344 345 345 346 345 344 343 344 342 344 345 345 342 342 341 338 338 338 337 337
324 333 340 340 342 344 344 353 351 349 349 348 346 346 346 346 346 347 347 347 344 342 343 339 329 331 330 338 343 344 345 345 345 346 345 345 344 342 344 346 345 344 341 341 342 338 337 339 338
325 334 334 336 339 344 344 347 351 349 349 349 348 347 347 347 346 346 347 348 347 344 344 337 335 335 337 339 342 343 346 345 345 344 345 345 343 340 341 342 348 342 343 343 343 341 340 337 338
328 333 336 335 336 341 345 346 353 349 349 349 348 348 347 347 346 344 344 347 347 345 344 340 340 340 339 341 342 344 346 345 345 344 346 345 344 343 340 342 345 343 343 344 344 343 340 341 339
322 324 329 331 334 334 337 345 352 350 348 348 348 348 347 348 347 346 346 346 347 346 346 343 341 341 342 341 341 341 344 345 345 345 346 347 344 344 343 343 344 345 344 343 346 343 340 339 337
321 322 325 329 333 333 339 347 352 351 350 348 348 347 347 347 347 347 346 346 347 347 347 346 344 343 342 343 342 343 342 344 344 345 345 346 346 345 344 343 342 346 343 343 344 341 340 339 336
320 323 325 328 331 334 332 344 355 353 351 349 349 348 348 347 347 347 347 346 345 345 347 347 345 346 344 343 343 343 342 340 342 344 345 345 345 344 344 343 342 345 346 343 347 341 341 339 335
324 323 324 326 327 330 331 332 343 349 352 351 349 350 349 348 348 348 346 347 345 346 345 347 347 347 346 343 344 344 343 338 337 340 339 344 345 344 343 344 342 342 344 348 348 346 342 337 335
325 324 325 325 325 329 329 331 330 349 348 350 348 347 348 350 349 349 348 348 348 346 345 345 346 346 346 344 344 344 343 339 334 332 334 342 344 344 342 343 344 342 344 345 347 345 341 343 337
326 322 325 327 327 331 328 329 332 343 345 346 347 346 344 348 350 349 349 348 349 348 345 344 345 346 346 345 344 344 344 343 337 333 334 339 344 344 342 341 344 343 342 345 346 346 344 341 343
326 327 325 329 330 331 325 327 327 332 342 344 345 346 345 347 349 349 349 349 349 349 348 346 345 345 345 345 345 344 344 345 344 337 334 338 343 345 344 342 344 347 345 344 344 344 348 342 341
328 329 325 322 317 322 327 321 320 325 336 343 345 346 346 344 344 346 349 348 348 349 349 349 348 347 346 344 345 345 345 345 345 340 337 337 342 345 344 344 344 345 349 347 345 344 345 348 344
329 324 327 318 328 322 320 321 326 322 323 333 344 345 345 345 343 343 347 348 347 348 348 348 348 348 348 347 346 345 345 346 345 343 339 338 340 344 345 345 345 345 346 349 346 345 342 341 341
324 328 325 326 320 331 320 322 319 321 322 324 336 342 343 345 344 342 344 347 347 347 348 348 348 348 348 348 347 346 346 346 346 344 341 339 339 342 343 343 345 346 346 348 349 346 346 344 340
319 325 318 330 326 316 320 326 322 321 321 320 324 335 337 343 345 344 344 347 347 347 347 347 348 347 347 347 347 346 346 346 346 345 343 340 339 341 341 344 344 346 347 349 349 349 348 347 346

GFSSGP_850_thetae_048.txt.gz
Theta_e
338 335 340 348 356 352 358 355 352 353 352 349 345 345 347 348 348 346 342 340 335 333 334 335 337 336 333 331 332 334 339 340 341 340 341 340 339 340 337 338 334 340 338 327 330 339 336 328 329
340 337 347 349 356 360 359 351 355 353 351 347 347 348 348 349 345 343 342 340 334 332 335 333 340 333 332 332 339 339 340 340 339 343 341 339 341 339 334 337 339 341 339 336 331 332 332 330 328
340 346 351 352 354 359 359 352 351 352 351 346 350 349 347 345 344 342 341 339 333 334 335 330 341 332 332 338 339 332 339 340 340 340 341 343 342 341 337 337 339 341 339 338 331 339 341 340 339
347 350 349 356 357 355 355 353 353 350 352 350 348 344 344 344 342 341 340 337 331 335 331 330 340 331 332 342 342 332 342 341 342 343 343 340 339 338 338 339 340 337 336 336 335 334 339 339 338
350 352 356 357 356 354 352 351 353 352 352 350 346 344 344 343 342 341 340 336 332 334 329 332 336 331 331 340 336 332 340 342 337 343 340 341 341 339 340 338 335 336 336 335 336 337 340 340 340
350 346 353 354 355 353 352 352 352 353 350 346 344 344 342 342 341 343 339 335 332 331 329 333 332 332 330 332 333 333 338 343 339 343 338 337 343 338 336 336 335 334 335 336 336 337 339 340 340
347 346 353 354 355 356 352 347 345 353 350 346 343 340 341 343 341 343 337 334 332 331 329 331 330 335 330 331 333 334 333 338 341 340 338 337 336 335 334 334 333 334 335 337 337 336 336 341 340
346 344 352 354 354 356 351 349 353 353 351 343 343 341 343 342 340 338 337 333 333 332 329 330 330 330 331 332 333 336 335 336 338 339 338 337 336 334 334 334 334 333 334 337 339 336 336 339 341
343 346 349 354 353 354 351 352 352 351 348 346 343 343 342 342 338 337 336 335 337 336 331 331 329 330 331 333 334 336 336 336 336 339 337 337 336 334 334 337 339 339 339 338 340 340 339 337 337
346 347 347 348 348 349 350 351 353 351 349 341 343 342 342 340 338 337 338 342 340 338 335 334 329 330 331 334 334 336 336 336 335 336 338 337 337 337 336 336 338 338 341 344 340 340 339 338 338
350 351 346 347 346 347 347 352 352 350 350 342 339 341 341 340 338 338 341 339 336 333 334 332 329 330 331 334 335 337 336 335 335 335 336 337 337 338 339 339 337 341 343 343 341 342 341 339 341
351 350 350 347 347 347 347 352 351 350 351 351 344 342 340 339 338 338 339 337 336 334 333 331 329 329 331 334 335 338 337 338 341 338 336 335 336 337 340 342 343 343 342 342 341 342 341 341 339
348 349 348 349 350 350 348 349 352 351 351 348 342 341 340 338 339 338 338 336 335 334 333 330 329 329 332 334 337 337 335 338 341 341 341 339 337 340 341 343 343 343 342 342 340 341 341 339 341
340 344 344 344 343 343 346 346 351 348 347 341 340 340 340 340 340 340 338 338 337 334 333 329 328 328 331 335 339 338 339 339 340 339 339 342 342 344 343 344 343 343 343 342 340 339 339 337 337
336 332 332 335 340 341 341 351 351 345 344 339 338 339 341 340 341 339 337 338 336 334 334 330 327 327 330 334 342 344 344 343 342 343 342 344 344 344 344 343 344 343 342 340 337 340 338 337 337
328 330 336 337 338 341 343 348 351 345 342 339 337 337 339 340 341 340 339 341 339 336 336 333 328 327 329 333 341 343 345 346 346 342 344 343 343 343 345 345 341 341 341 340 339 337 337 337 338
321 335 337 339 338 342 341 351 350 346 345 342 339 337 337 339 342 343 340 340 340 337 337 335 329 328 328 331 338 344 344 345 345 345 343 344 344 343 345 345 343 341 341 341 339 337 337 339 339
326 328 334 338 337 342 343 347 350 347 346 345 343 341 340 340 341 342 343 341 341 340 337 334 330 328 328 334 342 343 344 345 345 346 344 344 344 344 343 345 344 340 340 341 340 338 339 340 338
326 331 334 334 333 343 343 348 351 348 347 346 345 345 344 342 344 343 342 341 342 343 341 339 333 328 329 336 340 342 343 345 343 343 344 345 344 342 341 342 346 341 341 343 343 341 339 338 337
322 323 328 329 333 336 339 343 351 349 348 348 346 345 345 345 345 345 345 345 345 345 341 342 342 330 332 332 338 342 342 344 345 345 344 345 344 343 342 342 343 343 341 342 344 343 341 340 338
320 321 322 330 328 332 335 338 350 350 348 348 348 347 346 346 345 345 346 347 346 346 344 342 341 332 335 336 339 341 343 345 345 345 345 345 345 344 343 344 343 344 345 343 345 341 340 339 337
317 321 324 323 327 330 333 338 346 351 350 348 348 348 347 346 346 346 345 346 346 345 346 344 342 338 340 341 340 341 341 342 344 345 344 344 344 344 344 344 343 342 345 343 345 342 340 340 339
318 320 321 323 325 327 328 331 332 349 353 350 347 347 347 347 346 346 346 344 345 344 345 346 344 343 341 341 342 342 342 342 342 343 344 344 344 344 344 344 344 342 342 347 345 347 339 341 335
322 323 321 322 321 326 326 331 331 345 352 350 348 348 347 346 346 346 346 346 345 345 345 345 344 345 344 344 344 342 342 343 342 342 342 342 343 343 344 343 344 344 343 344 345 347 341 342 335
322 321 322 323 324 329 327 329 330 329 343 347 349 348 348 348 346 346 346 346 346 346 345 343 343 345 345 343 344 346 343 343 343 341 336 337 339 337 341 343 343 343 343 343 346 344 344 340 341
323 320 321 325 326 330 323 328 328 329 334 344 346 348 348 349 348 347 347 346 345 345 346 344 344 344 345 343 344 345 344 343 343 343 339 333 331 331 338 341 342 342 345 343 346 344 343 344 337
323 324 320 322 318 323 329 323 323 324 328 338 342 344 347 347 347 349 349 348 347 346 347 346 344 344 344 343 343 344 345 344 343 343 343 340 332 333 340 342 342 342 344 347 346 344 342 346 345
322 322 325 320 328 323 323 320 332 324 328 331 338 342 344 346 345 346 349 349 348 348 346 348 348 346 344 343 344 344 345 345 344 344 344 344 338 334 338 342 343 343 344 345 348 347 344 342 345
320 327 325 324 322 327 323 322 320 323 326 327 329 341 342 344 344 345 347 345 348 349 348 348 347 348 347 346 345 345 345 344 345 344 344 345 342 337 336 340 342 344 344 345 345 348 345 344 341
317 319 321 331 327 318 322 327 320 321 321 322 327 330 333 341 344 345 345 346 347 348 348 348 348 348 348 348 347 347 347 346 344 345 345 345 344 340 337 338 341 342 344 345 346 347 348 346 345

GFSSGP_850_thetae_051.txt.gz
Theta_e
333 333 337 347 354 352 357 357 352 353 353 347 345 345 347 348 349 352 343 341 338 334 332 343 334 336 342 337 335 339 339 338 337 338 339 337 337 336 336 333 338 339 328 329 340 337 329 338 338
334 337 346 348 357 361 359 351 356 351 350 346 348 348 349 349 346 343 342 339 332 335 341 340 335 337 333 335 337 340 339 340 339 339 338 338 339 336 340 339 341 339 339 333 332 334 329 329 330
336 341 349 352 355 361 359 352 352 352 347 347 350 348 348 347 344 342 341 336 330 335 341 338 340 332 341 342 339 341 341 340 343 341 339 341 340 334 338 341 341 341 338 333 337 339 338 337 336
342 348 349 356 357 354 355 353 353 352 348 347 349 348 346 345 343 342 339 334 332 335 342 339 340 333 337 331 336 338 340 339 340 340 342 342 341 341 338 340 338 336 336 334 338 340 338 338 334
347 351 357 358 356 354 350 351 352 352 350 350 347 346 344 343 342 341 338 341 338 342 343 341 333 339 343 338 335 341 340 342 342 342 340 342 344 341 339 337 336 336 335 335 333 339 339 338 336
351 347 356 356 355 353 352 351 353 353 350 346 347 345 343 342 342 342 341 342 337 337 344 339 334 337 342 335 333 341 338 341 341 342 345 344 339 337 335 334 333 334 336 335 338 339 339 339 337
350 351 353 354 355 356 354 349 348 353 350 348 345 345 343 342 343 342 342 342 342 339 343 339 342 333 340 333 332 342 340 341 342 343 343 338 336 335 332 334 334 336 337 336 336 338 341 339 338
349 348 352 355 356 355 351 347 352 353 348 346 344 345 345 344 346 342 342 342 343 341 342 333 342 331 335 334 333 336 340 340 341 341 338 335 334 333 333 334 335 336 339 337 335 336 339 339 337
346 349 351 354 355 353 349 352 353 351 345 345 343 343 344 343 344 342 343 342 342 341 342 334 342 331 331 334 336 334 336 339 339 337 336 335 333 335 336 338 339 338 338 340 339 338 337 337 338
346 353 350 348 348 351 350 352 353 351 347 343 343 343 344 343 344 343 342 341 343 342 342 335 332 331 332 335 336 336 340 338 339 337 337 336 333 334 337 339 339 341 343 339 340 338 337 340 340
350 353 349 348 347 349 349 351 354 352 352 346 344 345 343 343 344 343 341 342 343 342 340 330 329 331 333 334 336 336 336 335 337 338 337 337 337 336 337 338 341 342 343 342 342 340 339 340 340
352 350 350 349 347 347 350 351 353 352 352 349 345 345 343 343 342 341 340 342 343 343 334 330 329 331 334 333 336 335 335 335 335 335 337 336 337 339 340 339 343 341 341 341 341 341 340 338 339
349 351 350 350 349 349 349 349 350 352 349 346 345 344 343 342 342 341 341 342 343 341 333 329 329 330 333 334 336 337 337 339 339 335 335 335 336 338 342 343 343 342 342 341 341 341 340 340 338
343 345 348 346 345 346 346 346 350 350 346 345 344 344 343 342 341 342 342 343 343 334 329 330 329 330 333 334 337 337 337 341 339 341 341 338 340 343 343 344 343 343 343 340 339 340 338 338 337
338 342 339 339 341 343 343 347 352 346 345 344 344 343 342 341 341 342 342 341 337 330 329 329 329 330 333 336 337 337 337 339 340 338 341 343 344 344 344 345 344 344 343 340 340 338 338 337 337
330 332 342 342 341 342 344 350 352 344 345 344 344 343 342 341 341 342 343 342 337 332 330 328 329 329 333 337 339 340 342 342 342 342 343 345 344 343 344 343 343 342 340 338 338 337 338 338 337
329 332 338 344 341 344 345 348 352 344 344 343 342 342 342 341 341 344 344 343 339 333 331 328 328 328 331 335 342 344 345 345 344 343 344 345 344 342 345 344 342 342 339 335 336 336 337 338 337
328 329 338 347 343 343 346 347 352 346 345 342 341 342 342 341 340 343 344 345 341 335 334 331 327 327 328 332 341 344 344 344 345 344 343 344 344 344 345 344 344 342 341 342 337 336 339 339 337
330 332 336 341 342 344 347 347 353 349 348 344 341 340 341 341 340 342 344 344 346 339 336 335 329 327 327 330 334 342 343 344 345 344 344 344 344 343 343 344 345 341 340 340 342 340 339 339 337
324 329 334 336 336 340 344 346 350 351 350 348 344 341 340 340 340 341 344 344 345 342 339 338 334 328 328 329 334 341 341 343 344 343 343 344 344 342 342 342 346 342 340 342 343 342 340 340 337
322 325 330 333 330 335 339 343 347 352 350 349 347 345 343 341 340 342 343 344 345 344 341 340 335 331 328 328 335 341 342 342 345 344 344 344 344 344 343 343 343 343 343 343 343 345 343 339 338
320 321 326 328 329 341 338 349 344 348 353 351 349 348 346 344 343 343 344 344 344 344 340 340 338 337 330 329 332 335 339 341 341 344 344 344 345 344 344 343 344 343 344 343 344 342 340 339 339
319 320 320 325 330 330 334 341 344 346 352 353 351 350 349 347 346 345 346 346 345 345 342 343 341 341 342 330 331 332 337 339 340 342 344 344 344 344 344 344 344 344 343 345 344 345 339 340 340
320 322 322 321 324 334 334 336 341 346 349 351 350 350 350 349 347 347 346 346 346 347 345 344 343 342 341 333 335 336 338 340 340 341 343 344 344 344 344 344 343 344 343 343 346 345 347 340 340
321 322 326 326 324 328 334 335 336 338 342 346 350 349 349 349 349 348 347 347 346 346 345 344 344 345 342 338 339 341 341 342 342 342 342 342 342 343 343 342 343 343 343 343 344 346 346 340 340
324 324 323 327 325 322 330 335 334 334 333 338 343 346 348 349 349 349 348 347 346 345 344 342 343 344 345 342 341 341 341 342 342 342 343 342 341 340 341 340 338 342 342 344 343 345 345 345 340
325 326 324 323 325 326 325 330 332 332 333 334 338 344 348 349 349 349 348 347 347 345 345 344 343 343 344 344 344 344 343 344 345 344 343 343 342 339 336 335 337 341 341 344 345 344 345 343 345
324 325 327 326 326 328 326 327 330 335 334 334 336 340 345 348 349 349 349 348 345 343 342 344 344 342 343 342 343 344 343 343 344 344 343 343 343 342 335 333 338 341 341 343 344 347 346 344 342
323 325 327 327 327 327 327 327 329 332 336 335 336 336 340 346 348 349 350 349 348 347 344 342 344 344 342 342 342 343 343 343 344 344 344 343 343 344 341 334 335 339 341 343 344 344 346 348 345
319 323 325 330 331 329 329 327 328 332 333 334 334 335 337 342 346 347 348 350 350 348 347 345 343 344 344 343 343 343 343 343 344 344 344 345 344 344 345 340 334 337 340 342 343 344 345 346 347

GFSSGP_850_thetae_054.txt.gz
Theta_e
335 337 344 348 354 357 360 359 354 356 353 349 347 347 350 349 352 357 347 346 346 344 345 338 337 336 336 335 333 333 332 333 335 336 335 333 335 338 333 337 340 330 330 342 340 328 342 340 335
335 334 345 352 361 364 363 355 358 353 351 348 347 347 348 351 348 347 346 347 344 343 345 344 340 341 341 340 339 339 339 337 338 338 338 338 337 336 334 340 338 340 335 333 336 331 329 331 333
343 343 350 352 358 361 362 357 356 352 348 349 351 349 351 350 347 346 346 346 343 343 345 341 337 335 334 339 341 339 340 339 339 339 338 340 337 340 341 341 341 340 337 337 336 337 337 336 333
344 349 350 358 358 355 356 356 353 351 349 350 350 352 349 348 347 347 344 344 342 343 344 339 334 344 343 339 341 342 339 342 341 339 341 339 335 338 340 340 337 336 335 339 340 338 338 334 332
350 353 358 361 358 354 353 353 354 353 347 349 351 352 346 346 346 346 343 342 342 343 345 345 336 339 332 338 338 340 340 341 339 341 341 342 342 340 339 336 338 335 335 333 338 339 337 336 337
352 352 359 360 356 354 350 350 353 352 351 350 351 349 346 346 346 345 343 342 342 343 344 344 340 343 338 339 341 340 341 341 341 342 344 342 340 338 334 333 335 336 335 338 339 339 336 337 336
353 355 357 357 356 355 354 353 354 354 353 350 351 352 347 347 347 345 343 342 341 343 343 344 346 343 335 334 341 337 341 340 343 342 341 338 335 332 332 333 337 337 336 338 339 341 339 337 337
353 352 355 356 356 359 353 347 349 354 353 351 350 352 349 347 346 344 343 342 341 343 343 345 345 349 346 337 343 339 342 340 342 341 336 334 331 331 334 336 338 338 335 334 339 340 339 336 336
350 352 355 355 355 355 351 351 352 352 349 348 349 349 348 347 346 343 343 343 342 343 343 345 343 345 346 346 342 343 341 342 341 338 334 345 345 345 347 339 338 340 339 338 337 339 337 339 339
350 355 353 349 349 349 350 352 354 354 350 348 347 347 348 346 346 342 343 343 341 342 342 344 344 345 346 346 341 348 348 347 348 347 346 346 347 347 346 342 341 340 339 339 337 337 342 346 345
352 354 350 348 348 349 351 352 354 354 354 350 349 348 348 346 345 342 342 343 341 341 341 343 344 346 346 348 347 348 348 348 348 344 346 346 346 345 347 347 348 347 346 345 346 343 345 345 345
350 349 350 348 349 348 349 352 353 353 353 352 349 348 347 346 344 342 342 342 340 341 342 343 345 347 346 348 347 347 347 347 346 345 337 342 346 347 347 348 348 348 347 347 347 346 346 347 347
346 348 349 349 348 349 349 350 350 352 352 350 349 348 347 346 344 342 341 341 341 341 343 342 345 347 347 348 347 346 346 345 345 343 340 346 347 349 347 347 349 348 347 346 347 346 346 347 346
340 342 350 349 348 348 350 349 348 351 351 351 349 348 346 345 344 342 341 341 342 340 342 343 345 345 347 348 348 348 348 348 346 345 343 337 347 348 350 344 349 349 346 345 345 346 343 341 342
336 344 344 345 345 345 347 349 350 352 351 351 350 348 346 345 344 342 342 341 342 342 342 344 345 344 346 348 347 348 348 347 348 347 339 340 344 343 349 350 349 349 348 343 343 342 342 340 341
330 337 347 347 342 344 346 351 351 351 351 351 350 348 346 345 344 342 343 341 342 341 342 344 343 343 345 347 346 346 347 347 347 347 346 343 344 344 343 346 348 349 347 344 344 343 341 341 340
326 333 340 346 344 345 347 351 353 350 351 351 350 348 347 346 344 343 343 342 342 343 343 345 344 343 344 344 346 347 347 349 349 349 351 345 345 343 346 349 346 346 345 344 342 341 340 340 338
329 329 335 341 348 348 349 349 352 349 350 351 350 348 347 346 344 343 343 342 342 343 344 345 344 344 341 343 342 346 347 348 349 349 350 344 347 343 346 350 342 344 346 344 344 343 342 341 339
329 332 333 344 346 348 349 349 353 350 350 350 350 348 347 346 344 344 344 344 343 344 345 345 345 345 337 340 345 347 347 348 349 349 346 344 344 343 344 346 345 346 347 349 345 342 341 341 341
326 332 335 338 343 347 348 349 349 353 351 350 349 348 347 346 345 344 345 344 344 346 345 345 345 345 330 339 343 346 347 347 349 349 346 344 344 340 348 348 347 347 346 347 345 344 344 343 340
325 326 331 336 338 340 346 349 348 352 352 351 348 347 346 346 345 343 345 344 344 346 347 346 344 342 329 340 341 345 348 349 351 351 348 347 344 343 343 342 346 345 349 346 344 344 345 342 343
323 323 324 331 335 344 344 351 348 349 354 353 351 348 346 345 345 344 344 345 344 345 348 348 346 335 329 329 340 342 346 346 346 348 348 349 344 344 344 343 343 343 348 346 346 348 347 342 341
323 323 323 323 332 337 340 348 347 347 352 354 352 351 349 346 344 344 344 346 346 345 346 349 348 340 337 328 336 341 344 343 345 347 350 351 346 345 348 343 343 343 342 345 348 345 342 343 343
323 323 323 323 324 333 338 342 346 346 347 349 351 350 350 349 347 345 344 346 347 347 346 348 349 339 336 332 328 335 341 342 344 347 349 349 349 349 345 344 343 343 346 343 346 349 343 345 343
324 324 327 326 324 324 332 338 341 341 344 345 348 349 349 350 350 348 346 347 347 347 347 348 348 344 337 337 333 329 331 337 347 349 347 346 347 347 350 344 343 346 342 346 343 344 349 345 345
326 326 327 329 327 324 324 332 338 338 338 340 344 347 349 350 350 350 349 348 348 349 348 348 348 345 343 339 341 336 330 343 346 347 348 348 346 346 349 351 346 340 343 342 343 350 349 352 346
328 328 327 328 329 329 326 325 328 335 337 338 338 342 347 348 350 351 350 350 349 349 349 349 348 343 342 344 340 336 333 338 348 347 347 349 349 346 348 350 350 350 346 343 349 350 353 352 346
326 328 329 328 330 331 329 329 326 334 336 337 338 338 342 346 348 349 351 351 350 349 350 351 350 347 343 345 344 342 337 340 342 347 345 348 349 346 347 343 346 348 349 344 342 351 352 353 352
325 327 328 329 329 331 331 330 328 330 332 336 337 337 339 344 347 348 350 351 351 351 350 350 351 351 348 346 347 347 347 343 341 343 343 344 345 346 343 343 336 345 351 346 341 347 352 354 354
323 326 327 330 332 330 331 331 329 329 330 332 335 336 337 339 344 347 349 350 351 351 351 350 350 350 350 348 345 344 345 344 349 342 342 343 344 344 343 344 342 336 349 352 341 342 351 353 354

GFSSGP_850_thetae_057.txt.gz
Theta_e
335 342 348 346 355 357 363 360 356 356 352 350 349 349 351 350 354 359 348 350 349 345 348 346 344 341 340 340 339 336 332 338 342 342 340 331 336 336 334 343 334 333 343 338 329 343 337 332 335
343 345 348 353 361 367 364 356 357 354 351 349 348 349 351 353 350 349 348 350 346 344 342 344 333 332 333 338 333 333 333 334 336 336 334 337 337 334 339 339 342 338 334 335 330 330 332 334 335
342 344 352 354 360 365 364 358 356 351 350 350 350 351 352 350 350 349 349 346 344 342 344 342 339 340 340 343 343 343 339 337 338 339 338 337 339 340 341 341 341 337 336 336 337 337 333 332 332
346 348 351 361 361 356 357 357 352 350 351 351 351 353 351 350 348 349 347 345 344 343 346 337 336 334 340 341 340 340 340 339 339 339 341 337 338 340 341 338 336 335 340 340 338 335 332 332 331
348 353 359 362 360 355 353 355 355 352 351 351 352 354 351 349 348 348 346 343 345 344 346 340 342 341 341 342 342 338 341 342 341 342 340 338 339 339 336 339 335 334 336 338 338 336 335 334 332
353 353 362 362 359 357 355 353 355 350 349 351 353 351 350 349 347 347 345 343 344 343 344 345 339 332 338 338 340 340 341 339 340 342 342 340 337 334 333 335 336 334 338 339 337 335 335 333 333
354 357 360 358 356 355 353 353 354 352 353 352 352 355 350 349 347 345 344 342 344 343 344 347 347 338 341 341 340 340 340 341 345 340 337 337 332 332 334 337 336 337 339 340 340 338 335 334 331
353 355 357 356 357 361 354 353 355 355 354 353 353 354 351 349 346 344 344 342 343 344 342 346 348 348 347 345 340 341 341 342 341 336 332 330 331 336 340 339 336 336 337 340 339 337 336 336 334
353 358 359 357 354 357 351 351 352 353 352 352 352 353 350 348 346 344 343 342 345 343 341 342 345 346 347 348 341 341 340 341 339 334 343 345 346 347 346 340 339 336 335 337 339 337 338 338 336
352 357 356 352 351 353 351 352 354 353 352 352 351 352 349 348 346 344 343 342 343 342 342 340 342 344 345 346 346 348 346 348 347 342 347 348 347 346 345 340 339 339 337 336 336 343 345 347 346
351 354 351 349 350 349 351 354 355 354 353 351 352 351 348 348 346 345 343 342 343 342 341 341 343 344 344 346 348 346 348 349 348 346 348 345 345 346 347 346 345 341 343 343 340 346 346 345 346
348 347 349 348 349 349 351 353 353 354 353 351 352 350 348 348 345 344 343 342 342 342 341 342 344 345 348 345 346 347 347 348 345 346 347 346 347 348 348 347 347 347 347 345 346 347 345 347 343
345 346 350 349 350 348 347 346 353 354 352 352 351 350 349 347 345 344 344 342 341 342 340 342 344 346 349 345 348 347 346 344 345 347 347 347 347 347 348 349 347 345 345 343 343 344 347 343 344
339 341 350 349 350 351 349 349 348 351 352 352 351 350 349 348 345 343 344 343 341 342 341 343 344 347 347 347 347 346 345 346 343 344 346 347 349 348 349 348 347 346 347 345 344 345 344 344 343
336 341 346 350 350 351 348 351 350 353 353 353 352 351 349 348 346 344 343 342 341 342 342 343 346 347 348 350 347 346 345 345 345 344 345 348 349 347 350 347 348 348 349 345 342 342 339 340 342
336 338 348 349 349 349 348 351 348 352 353 354 353 350 349 348 346 344 343 342 343 341 342 345 344 346 347 348 348 349 346 346 348 347 348 350 350 345 349 348 346 346 346 347 345 343 342 340 341
330 336 342 349 346 347 348 354 351 351 353 354 353 350 349 348 347 345 343 343 343 342 343 345 345 346 347 349 348 348 348 347 346 347 349 351 351 344 350 346 349 347 346 344 343 342 342 338 339
330 332 337 346 350 348 349 352 354 350 351 353 353 350 349 348 347 345 344 343 343 343 343 345 345 346 348 349 350 348 348 348 348 348 349 350 350 345 351 348 345 349 346 343 343 342 342 339 340
328 332 334 339 347 349 349 352 356 350 350 353 353 350 350 348 347 346 344 344 343 344 344 345 346 346 347 348 348 348 348 348 350 348 352 351 353 346 345 351 342 348 349 345 346 337 340 340 340
328 330 334 336 344 348 350 350 350 351 351 353 353 351 350 349 348 346 345 344 343 345 345 345 346 346 347 347 347 348 348 347 348 347 350 351 350 350 351 350 349 346 348 350 347 348 343 342 339
327 328 334 338 343 348 348 351 350 351 350 351 352 350 348 349 348 347 345 344 343 345 345 345 346 346 346 345 346 349 348 348 347 349 350 352 352 352 354 346 350 345 347 349 348 343 346 344 340
328 327 327 332 339 345 346 352 351 352 353 353 351 351 348 348 348 347 347 345 345 345 347 346 346 345 345 343 345 347 347 346 347 349 349 351 352 353 352 351 351 350 351 349 349 348 348 346 341
327 327 326 325 331 338 341 349 350 349 352 353 352 350 350 348 348 347 347 347 346 345 348 348 347 345 345 335 343 345 347 347 347 347 350 349 351 354 352 353 352 350 347 350 351 349 344 343 346
327 326 326 326 325 330 338 346 348 347 350 350 350 351 350 349 348 347 347 347 347 346 347 348 348 346 341 339 334 343 344 346 345 346 351 348 352 352 353 353 351 352 351 346 352 352 342 349 345
326 328 329 328 327 326 329 340 344 346 346 346 349 350 350 349 348 348 347 346 348 347 347 349 350 349 341 343 335 338 341 341 346 347 348 347 346 347 349 349 353 353 345 355 352 347 349 351 348
328 328 331 333 330 327 326 331 339 341 345 344 344 348 349 350 349 348 347 347 348 349 348 347 350 351 349 343 339 330 332 343 345 346 348 347 346 345 349 349 353 353 355 353 353 352 352 351 350
329 330 328 330 331 332 329 327 329 337 340 343 342 345 348 350 350 350 349 348 348 349 349 349 349 351 348 349 342 333 329 332 343 343 345 349 346 347 347 351 354 353 352 352 353 351 352 356 352
326 329 329 328 333 334 332 331 328 329 335 339 341 342 347 350 349 350 351 350 349 349 350 350 350 352 351 349 347 339 332 330 335 344 349 349 349 347 350 348 351 353 353 352 351 351 351 353 353
325 327 329 330 330 332 334 333 333 331 329 335 338 339 342 346 347 349 351 351 351 351 350 351 351 351 353 351 351 346 344 344 335 345 346 350 350 351 346 350 351 351 352 352 352 349 352 353 352
322 323 324 332 334 331 332 333 333 332 331 331 335 337 338 340 344 347 348 350 352 352 352 351 351 352 353 353 353 349 347 347 345 333 348 349 349 349 351 347 351 350 349 352 353 354 350 355 354

GFSSGP_850_thetae_060.txt.gz
Theta_e
337 343 347 347 353 356 364 362 355 355 353 350 350 351 352 352 353 355 345 348 350 350 346 346 346 343 343 342 342 340 343 343 341 342 333 337 337 334 341 337 333 342 334 333 342 331 334 338 338
342 347 350 351 361 366 365 359 359 353 351 350 351 351 352 353 350 348 350 348 347 350 349 345 342 340 340 337 333 332 335 340 341 336 335 337 335 338 339 341 335 338 336 330 335 337 335 333 332
347 346 351 356 360 365 353 358 356 350 350 351 352 353 351 350 348 349 348 346 344 344 347 337 333 334 337 337 336 334 335 336 338 337 338 338 338 341 341 339 337 336 337 337 336 331 330 333 331
344 347 352 361 359 358 360 358 352 352 351 351 352 352 350 349 348 349 347 344 341 346 344 332 338 339 341 342 340 345 344 342 338 340 339 340 340 340 337 336 335 340 339 338 332 332 331 331 332
348 351 359 363 361 357 355 357 354 353 351 354 352 351 350 350 348 347 345 344 344 349 337 336 335 340 341 340 340 341 339 339 340 341 338 338 339 335 340 338 334 338 338 338 335 333 333 330 333
351 353 363 364 360 357 356 356 353 354 354 352 352 350 350 349 348 346 345 344 348 347 345 337 341 342 343 341 337 341 341 341 341 340 340 337 334 333 334 335 333 338 338 334 335 333 332 331 329
350 357 361 360 360 359 356 355 352 350 354 354 352 353 350 349 347 345 345 345 344 345 348 342 334 339 341 341 341 340 339 341 344 337 335 331 330 334 337 335 337 339 339 338 335 333 329 330 332
351 356 360 357 360 359 353 353 353 354 353 353 353 353 351 348 348 345 344 344 343 345 346 348 343 346 343 342 340 340 341 339 335 330 328 334 340 342 339 335 336 337 339 334 334 332 329 326 329
350 359 360 357 355 355 352 351 351 354 354 354 353 352 350 347 347 344 344 343 346 343 346 346 347 349 346 340 340 339 338 335 334 337 341 347 347 344 341 334 332 336 338 335 336 335 333 334 340
349 359 357 352 352 356 354 352 355 354 352 353 354 353 350 347 345 344 343 344 343 341 343 343 346 347 348 347 344 338 338 340 343 346 346 347 349 346 339 338 336 335 336 337 341 339 340 346 344
347 355 353 351 351 352 351 352 353 352 354 352 354 352 349 346 345 344 343 345 342 340 339 345 346 344 348 344 344 343 348 348 343 347 346 348 347 346 346 341 341 339 336 341 344 345 345 346 346
348 348 350 349 349 349 353 347 345 351 355 352 353 351 349 346 345 344 342 345 342 341 340 342 344 345 347 341 348 347 345 350 343 344 346 345 346 346 341 345 347 347 347 347 345 346 347 343 345
344 347 347 348 350 349 351 350 349 354 351 354 352 350 348 346 344 345 343 343 343 340 342 343 342 348 348 344 346 345 346 345 345 342 348 346 349 347 348 346 343 347 347 343 344 338 346 346 342
341 341 345 350 350 350 348 350 350 353 349 354 351 350 348 347 346 344 343 342 343 339 343 343 342 345 347 344 348 349 346 347 346 341 346 347 347 348 349 348 345 346 345 348 349 342 344 343 346
334 340 343 349 349 352 350 352 350 353 354 353 351 350 349 347 346 344 344 342 343 340 342 343 346 342 347 345 348 346 345 348 343 345 346 349 350 346 346 350 346 347 344 345 340 340 342 343 340
333 337 340 346 351 349 352 356 353 352 354 352 351 350 349 348 346 344 345 343 342 342 341 344 344 346 343 346 347 341 346 348 344 349 345 338 351 349 347 342 347 348 346 340 341 343 342 343 343
331 336 340 343 351 351 349 355 349 351 353 352 351 350 349 348 346 344 345 343 342 343 342 343 345 346 345 349 344 346 347 347 345 348 346 342 348 344 347 341 345 348 345 345 341 343 342 339 342
331 333 335 341 349 350 349 353 352 351 350 352 350 350 350 348 347 345 344 343 343 343 342 344 346 346 346 350 345 348 346 347 347 347 347 346 346 343 348 350 343 349 346 345 345 343 342 342 341
330 330 332 334 346 350 348 350 349 343 347 350 351 350 350 349 347 345 344 343 344 343 343 345 346 346 345 349 346 347 347 347 349 349 347 346 348 345 347 350 341 347 343 344 344 341 341 342 340
332 331 330 333 342 349 353 351 349 344 344 348 350 349 350 349 348 346 344 344 344 344 344 344 346 347 345 349 348 349 347 348 345 350 352 345 350 345 346 348 344 347 347 340 346 339 342 342 337
328 329 329 333 338 346 346 354 348 344 346 351 349 349 349 349 349 347 345 345 344 344 344 343 346 348 346 350 347 349 349 349 347 351 351 346 350 347 350 347 347 344 346 347 344 343 345 345 339
328 328 328 329 334 340 347 357 354 350 351 353 349 348 348 349 349 348 346 345 344 345 345 344 346 348 346 347 346 349 349 349 343 351 349 344 349 351 351 347 348 344 346 349 342 341 346 344 341
328 329 329 327 328 332 339 346 351 356 356 347 344 348 347 349 349 349 347 346 345 346 346 345 344 347 346 344 348 347 349 347 349 347 349 350 347 349 353 348 343 343 349 350 345 345 345 350 345
327 327 329 329 327 328 330 338 342 353 349 347 347 345 348 348 349 349 348 347 346 346 346 346 346 344 344 340 346 346 345 347 348 345 352 351 350 346 351 352 346 343 345 350 345 346 340 342 344
327 327 329 329 328 328 326 329 339 344 350 347 345 345 350 348 349 349 349 348 347 346 347 347 347 346 341 339 339 345 345 347 346 347 352 351 352 350 344 350 348 344 342 350 347 347 340 342 343
327 327 329 331 331 329 329 327 329 335 341 347 347 347 349 350 349 350 349 349 348 347 347 349 349 348 345 340 332 340 341 340 346 349 346 350 347 351 350 347 345 339 350 346 351 343 344 340 338
328 329 327 328 330 332 331 329 329 331 336 345 347 347 349 346 346 350 350 349 350 349 348 349 350 348 347 339 330 329 331 331 344 346 349 346 348 348 347 350 349 348 349 352 347 348 350 353 350
324 327 329 330 332 334 331 335 331 331 333 340 346 344 342 343 344 347 350 349 350 350 350 349 351 351 350 349 341 329 328 327 328 342 346 349 345 346 354 348 347 345 348 348 350 349 350 350 351
324 325 326 328 331 332 332 333 335 337 333 337 346 345 342 342 346 349 348 350 349 350 350 350 350 354 353 351 348 342 331 329 328 334 338 344 348 348 345 352 349 349 347 351 349 346 353 351 347
323 324 324 329 331 332 332 332 333 334 334 333 334 338 344 345 347 343 341 347 350 350 351 352 351 351 354 354 353 349 343 334 331 329 335 341 343 350 348 346 351 350 349 348 350 347 347 353 354

GFSSGP_850_thetae_063.txt.gz
Theta_e
339 335 345 347 351 351 359 360 353 357 353 350 349 351 352 351 352 352 344 343 343 340 340 341 342 343 342 341 342 343 341 340 341 334 338 335 337 338 338 335 339 330 339 334 329 333 335 339 339
344 348 348 349 355 362 358 357 358 353 351 351 350 351 351 351 348 347 348 346 344 343 342 343 343 343 342 341 335 336 341 341 340 335 337 334 337 339 340 333 337 340 335 336 336 336 333 338 337
344 346 349 353 357 363 354 351 353 351 351 351 352 351 351 349 348 349 349 350 346 345 344 342 341 339 335 332 331 333 335 335 335 341 337 336 340 341 337 335 335 342 336 336 337 332 332 330 332
345 346 348 358 360 356 351 350 353 352 352 351 350 350 348 348 349 348 349 349 348 342 342 334 332 340 338 342 336 336 337 346 338 339 339 339 340 336 334 338 339 337 334 331 329 330 328 328 333
349 348 358 360 362 357 355 353 352 355 354 352 349 349 348 348 345 346 344 342 343 341 332 333 334 339 341 339 343 342 343 338 340 336 337 339 335 340 338 335 338 338 336 332 331 329 329 333 339
349 352 359 362 359 359 356 355 354 353 352 351 350 349 349 345 345 344 342 342 343 336 334 335 337 339 340 342 340 339 339 340 338 339 336 335 336 335 335 333 337 334 333 331 330 329 331 337 343
349 354 359 360 359 359 357 352 353 354 351 350 350 349 349 347 345 345 343 345 344 333 331 338 340 341 338 337 340 340 340 339 336 331 330 330 335 336 334 337 338 336 334 330 328 330 329 338 342
350 353 358 357 358 359 355 353 353 353 353 352 350 350 349 347 345 346 346 346 343 332 336 334 336 338 339 341 338 339 337 333 328 329 336 339 339 335 335 336 339 335 332 331 330 326 333 340 343
350 354 359 357 355 351 352 351 350 353 353 353 352 349 347 345 345 345 344 343 340 336 332 334 341 338 338 338 339 336 332 330 334 345 346 346 341 337 333 335 338 335 334 334 330 333 336 341 341
347 356 353 349 352 350 351 350 349 350 351 354 352 349 345 345 345 344 344 344 343 343 341 335 341 341 338 337 336 334 340 343 343 345 346 345 345 339 336 334 336 336 337 336 338 339 340 340 340
344 350 353 352 351 351 353 352 353 353 354 354 350 349 347 347 345 345 345 343 342 345 345 345 339 344 338 336 339 340 339 344 344 346 347 346 345 341 338 336 336 337 343 343 343 344 344 337 341
345 346 352 351 351 351 352 348 348 351 353 353 350 348 347 347 344 345 345 341 341 346 346 345 342 345 345 337 341 345 342 344 344 346 347 345 345 344 340 342 343 342 341 343 344 341 344 345 343
343 345 349 349 349 351 350 349 351 349 346 353 351 348 347 346 343 344 344 341 340 344 345 344 344 348 345 341 343 342 345 344 344 341 344 344 346 345 345 343 344 345 344 342 344 344 343 342 343
338 340 345 348 350 351 352 351 350 345 352 352 351 348 346 345 345 344 344 341 341 343 344 342 341 347 344 346 344 345 347 348 347 339 343 344 345 345 345 344 342 345 344 343 344 344 342 343 342
332 332 334 349 349 351 350 355 350 348 351 352 351 348 347 344 344 344 345 341 342 341 343 341 340 348 345 347 344 346 347 347 344 344 342 343 347 344 347 344 346 347 343 343 342 344 343 344 343
329 330 333 337 350 351 351 357 349 344 349 352 350 348 346 345 344 344 344 342 341 343 343 342 338 344 344 344 347 347 348 347 345 346 345 342 344 341 347 345 345 343 344 342 339 342 345 344 344
328 328 331 334 348 351 352 357 352 345 352 353 350 349 347 346 346 344 342 343 339 342 343 343 340 344 345 346 345 342 344 344 345 345 343 338 344 342 340 343 346 345 345 341 342 343 342 344 341
329 328 328 332 347 351 351 358 355 353 353 351 350 350 348 347 346 345 342 342 342 340 340 342 344 341 343 344 343 342 347 345 347 347 347 345 342 343 347 345 345 343 344 343 341 341 342 341 342
329 330 328 329 335 349 351 357 356 344 339 346 349 350 348 347 345 344 343 342 342 342 340 342 345 344 344 346 341 345 348 347 347 347 347 348 344 343 344 343 343 343 343 344 343 341 342 341 340
328 329 329 329 328 348 350 355 352 344 347 349 348 349 348 346 346 343 344 343 342 343 342 342 344 345 342 346 343 345 346 348 346 346 348 341 348 343 348 341 345 345 343 343 340 341 342 338 339
327 327 327 327 327 347 349 351 350 347 347 348 350 349 349 347 347 344 344 344 342 342 342 342 344 346 345 343 344 345 346 344 345 348 350 346 342 342 344 346 342 345 344 340 338 339 343 340 339
324 326 326 326 325 327 348 356 350 347 349 351 351 349 346 348 347 345 344 344 344 343 342 342 342 348 346 340 346 349 350 347 346 348 349 349 342 340 348 346 348 344 344 345 339 339 343 344 342
325 326 326 327 324 323 324 329 354 348 349 349 348 345 347 348 347 346 344 344 345 344 343 343 341 346 346 343 345 348 350 351 346 347 350 348 343 341 341 344 345 342 345 347 344 339 341 344 344
326 325 324 324 323 324 322 324 338 349 348 348 346 345 346 346 349 348 345 345 344 346 344 343 343 341 345 345 339 347 347 348 349 345 350 348 348 346 339 348 344 340 346 348 343 345 341 344 344
325 324 322 324 324 325 323 322 321 348 347 343 345 345 349 346 350 349 346 345 345 346 345 344 344 342 339 343 339 344 345 347 347 349 346 350 349 346 343 347 349 342 339 342 342 345 342 343 343
324 321 322 326 327 326 324 324 323 341 349 343 345 347 346 346 346 350 348 346 346 345 346 345 344 344 340 336 340 338 339 342 346 350 347 350 348 345 347 345 341 340 338 345 345 344 340 338 342
324 324 322 322 323 324 325 326 325 325 346 349 345 342 341 345 345 350 349 347 346 346 347 346 345 344 344 334 333 339 338 341 345 347 351 352 350 345 349 349 347 346 342 340 339 344 341 341 335
319 322 323 321 323 325 326 326 328 328 325 344 344 345 344 350 348 348 348 349 347 346 347 347 346 345 345 344 333 332 333 334 343 345 348 348 348 350 348 351 349 348 346 337 341 343 344 348 349
319 320 320 320 322 324 325 325 325 328 329 342 343 346 347 342 342 342 346 350 350 348 348 347 348 347 346 347 344 332 332 332 331 343 345 347 344 347 346 351 350 348 347 340 339 343 345 349 348
316 316 319 320 322 323 326 328 327 326 328 333 344 345 348 343 339 346 345 349 350 350 349 348 348 349 347 347 347 345 331 328 328 328 343 343 346 343 345 347 351 350 348 347 341 343 343 353 353

GFSSGP_850_thetae_066.txt.gz
Theta_e
338 333 343 346 348 350 357 357 353 356 353 349 347 347 350 350 352 347 342 337 337 338 341 341 341 341 340 339 339 339 340 340 335 336 334 338 337 335 341 335 329 332 328 338 334 332 335 338 337
335 347 348 349 353 362 359 354 356 354 351 348 350 350 350 350 346 345 342 341 338 340 341 341 342 341 341 341 342 341 340 340 339 336 335 338 341 336 340 341 341 339 338 340 336 335 338 338 339
346 348 349 352 355 361 356 351 350 352 351 351 351 351 350 348 345 345 341 342 339 340 341 342 342 341 340 342 342 342 341 338 338 336 335 340 341 341 334 341 338 337 340 335 335 333 337 337 342
345 346 347 354 359 352 350 349 347 351 351 351 349 348 347 347 347 346 343 342 340 341 343 341 341 338 332 332 335 336 339 341 340 339 339 341 336 340 339 338 336 333 333 337 332 330 331 338 341
346 348 355 358 359 351 350 352 353 353 351 349 348 348 348 349 348 347 348 344 342 343 341 337 342 335 340 335 336 341 341 339 338 338 339 336 339 333 337 337 337 331 328 329 328 329 332 337 343
349 350 358 360 360 355 353 353 354 352 351 348 348 348 347 348 348 349 345 343 340 338 332 334 339 339 338 343 342 340 339 338 337 337 334 338 337 334 334 337 332 331 332 330 330 332 337 343 344
348 352 356 358 360 359 356 353 352 350 350 349 348 346 346 348 349 344 339 338 333 330 332 334 337 339 338 339 339 339 338 337 334 330 334 335 335 332 337 334 334 333 332 331 330 336 343 344 344
350 351 357 356 358 358 353 352 353 350 351 349 346 346 346 345 343 341 342 340 331 331 332 336 338 337 338 339 339 338 334 330 328 336 337 335 334 336 338 338 333 331 329 329 329 337 343 344 345
350 351 358 354 355 355 353 352 354 353 350 350 351 346 344 347 343 342 346 339 332 331 334 335 336 336 338 337 338 331 328 335 340 341 340 336 335 335 337 334 333 333 330 326 332 338 342 343 344
351 354 355 349 352 353 352 351 354 353 352 351 350 346 347 347 345 346 345 339 333 334 332 334 336 337 339 337 331 329 336 343 343 340 340 338 337 332 335 335 335 334 331 337 337 341 342 343 342
350 352 351 350 351 350 352 352 351 351 354 353 350 347 346 346 346 346 342 335 334 330 331 335 336 336 337 334 335 339 342 345 345 344 339 340 338 336 335 335 338 338 340 341 340 340 340 341 342
345 344 345 351 352 353 349 349 350 352 353 352 352 346 346 343 345 344 342 342 339 336 334 336 335 336 335 332 338 343 341 345 346 346 343 343 344 339 336 335 340 340 341 343 344 341 342 343 344
340 341 344 348 352 353 350 350 351 349 351 351 349 347 346 344 344 343 343 340 343 342 342 338 338 338 336 339 340 342 340 345 346 345 343 344 345 341 341 342 340 342 340 341 342 341 341 343 343
338 337 337 350 352 352 351 350 350 346 348 351 349 347 347 345 344 343 342 343 344 343 343 340 340 342 339 344 344 344 341 341 344 344 342 344 345 343 343 343 342 342 341 343 342 344 343 344 343
335 330 332 350 351 352 351 353 352 348 353 352 350 347 347 344 344 344 342 342 344 344 344 341 340 345 343 343 344 345 346 345 344 344 343 342 345 344 345 343 343 342 345 342 343 343 344 342 342
329 326 329 348 350 351 350 357 350 351 350 352 350 347 347 345 344 344 342 340 341 345 343 342 347 346 344 346 345 346 347 346 344 344 342 345 342 344 342 344 343 343 341 341 343 343 343 342 342
324 328 327 331 349 350 351 355 349 351 352 351 351 347 346 345 344 344 343 342 342 342 342 341 345 346 345 345 346 346 347 344 344 346 345 343 341 344 345 344 342 343 344 340 342 342 342 343 343
329 328 326 327 342 350 352 356 348 350 352 352 351 348 346 346 344 344 343 341 341 341 342 341 339 341 343 347 346 347 346 344 347 346 340 340 343 344 342 345 345 344 342 343 343 342 342 341 339
326 326 327 328 328 351 353 356 351 351 348 349 349 349 347 345 344 344 343 341 341 342 342 342 341 338 339 344 344 343 348 344 346 347 347 344 341 345 344 342 342 343 343 343 342 341 341 342 343
327 326 326 326 332 343 355 357 350 351 347 347 349 349 348 346 346 345 343 341 341 342 342 342 340 339 338 344 342 342 347 344 346 348 347 347 344 343 345 341 343 344 342 341 342 341 341 341 341
327 326 327 326 341 351 353 357 356 350 345 348 349 349 349 348 347 344 343 342 340 340 341 341 340 339 340 344 343 345 347 347 347 347 348 344 345 343 348 340 344 344 343 342 340 341 340 338 340
325 323 325 325 322 340 349 359 352 346 345 351 351 349 349 347 347 344 343 343 342 342 342 341 341 340 339 340 339 345 344 347 346 345 347 345 341 341 346 340 342 344 343 341 338 339 342 338 338
326 324 323 325 323 321 332 336 340 347 350 352 352 349 347 348 347 344 343 343 342 342 342 342 341 341 337 343 338 344 345 343 346 345 347 347 341 341 345 345 344 343 343 337 337 339 343 341 341
324 323 320 319 319 321 321 321 331 349 348 351 350 346 346 348 348 346 344 343 343 342 342 342 341 341 339 344 340 343 346 345 347 347 348 348 343 344 342 343 343 343 342 345 343 338 339 344 343
323 317 319 321 320 322 320 320 319 345 345 346 351 349 349 347 348 346 343 344 344 343 342 342 342 342 341 340 341 345 348 349 350 347 348 350 347 347 343 343 340 339 341 346 342 340 337 344 343
323 318 319 323 322 323 321 323 322 327 342 344 349 347 345 345 347 347 344 344 344 344 344 344 343 343 343 338 341 341 345 348 350 349 347 347 348 347 344 340 345 341 337 339 342 341 339 339 342
318 322 318 319 319 320 320 322 323 324 337 342 343 344 344 346 347 347 345 344 344 344 344 344 344 343 343 343 335 338 341 346 348 348 349 347 347 347 345 345 342 341 339 335 341 341 340 334 339
313 317 319 315 322 323 321 323 323 327 334 343 341 345 346 346 345 348 346 344 345 345 344 344 344 343 343 343 343 334 335 340 346 346 349 346 349 347 345 348 346 345 345 343 340 340 339 340 335
312 312 313 314 317 320 321 321 324 330 330 333 341 345 344 345 345 349 348 346 345 345 345 345 344 344 344 344 343 342 333 335 341 343 347 348 347 352 348 350 349 350 347 347 340 341 340 342 345
313 312 309 313 317 317 320 322 325 327 328 332 341 342 344 344 346 348 349 348 346 346 346 346 346 345 345 344 344 344 341 330 334 338 345 347 351 350 349 349 348 350 349 348 345 336 341 342 344

GFSSGP_850_thetae_069.txt.gz
Theta_e
336 333 340 346 346 349 354 358 352 355 353 347 342 344 346 348 350 345 340 336 336 338 339 340 340 339 337 336 337 339 337 330 333 334 336 333 332 333 332 335 330 330 339 335 335 338 337 336 335
334 342 347 348 351 361 358 350 355 354 352 345 346 348 350 349 346 343 338 335 335 337 339 340 341 339 338 338 339 339 339 336 334 334 338 341 338 337 336 338 338 329 335 337 336 337 338 337 338
345 347 348 352 354 360 357 351 353 352 350 349 350 349 348 348 344 340 335 334 336 339 340 341 341 340 340 341 339 339 340 335 334 339 338 342 338 339 342 338 340 336 339 338 338 337 337 343 345
345 346 347 355 359 353 351 350 349 350 351 350 349 348 347 347 341 341 336 337 339 340 341 342 341 340 340 340 341 340 338 337 335 338 340 340 339 335 340 336 337 339 332 336 336 336 339 342 344
347 347 354 358 358 351 348 347 347 352 351 349 348 348 346 348 343 341 340 338 340 340 342 342 341 337 339 342 340 338 341 339 339 340 339 334 338 338 337 339 333 331 336 332 331 334 339 343 343
348 349 357 361 359 352 351 351 351 353 350 348 347 347 347 348 342 342 339 339 340 341 341 340 338 337 333 335 340 340 339 338 339 338 337 338 334 338 340 339 336 335 329 329 330 337 341 342 343
347 351 354 357 356 355 356 353 351 349 349 348 347 346 350 347 344 343 341 340 342 340 336 341 339 341 344 342 341 339 337 338 334 335 337 337 339 338 334 338 338 332 329 331 336 341 342 342 342
350 351 356 354 357 358 354 352 351 350 350 347 345 347 349 348 347 345 343 342 339 331 331 337 339 339 342 340 339 340 336 334 331 336 337 336 334 335 334 336 330 330 329 333 341 342 343 343 342
350 354 354 353 355 356 352 352 352 351 348 345 350 345 348 349 347 343 340 336 331 334 333 335 340 343 339 339 338 333 328 334 338 337 341 338 337 338 333 331 329 328 329 333 341 342 343 343 342
351 354 353 349 351 354 352 352 353 351 350 350 346 345 346 348 345 342 341 333 334 333 336 336 335 336 338 338 331 328 337 340 340 338 333 334 336 336 333 333 330 327 330 333 340 341 342 343 342
349 352 349 350 351 352 352 353 352 351 352 349 345 346 344 345 344 343 338 335 330 332 334 335 336 337 336 331 328 341 340 341 340 337 335 332 334 336 334 333 332 336 336 340 340 341 341 341 341
347 345 350 348 352 352 352 351 351 350 352 346 346 346 346 343 343 345 342 335 331 330 331 334 336 337 333 328 333 341 343 344 342 338 338 337 334 335 335 337 339 340 342 341 342 342 340 343 341
343 342 341 341 348 352 349 349 352 352 352 352 346 346 346 346 343 344 340 331 331 330 332 335 335 335 332 337 339 343 344 344 342 342 342 342 339 335 337 341 340 342 342 342 342 343 343 343 342
338 339 338 336 351 351 350 350 349 350 351 351 347 346 346 346 345 344 337 336 334 332 334 335 335 334 331 338 340 338 345 344 345 343 343 344 342 341 339 339 341 340 340 341 340 341 342 343 342
336 337 329 350 351 352 350 351 351 347 348 350 350 346 344 345 345 343 342 339 339 340 336 337 337 335 338 342 341 338 341 342 343 343 344 344 343 342 343 341 340 340 342 342 343 343 341 341 342
328 325 326 351 351 351 351 357 349 351 348 349 348 347 346 344 344 343 342 339 342 342 340 338 341 339 343 343 344 343 345 345 343 344 344 344 344 344 343 341 342 343 341 342 341 343 341 342 341
323 329 327 349 348 351 351 355 350 351 353 351 349 347 347 344 344 343 343 340 341 342 342 338 341 342 343 343 344 344 345 345 343 343 343 343 341 344 342 342 343 342 341 341 342 343 341 343 342
329 328 326 327 348 350 352 352 350 351 351 352 350 347 347 345 344 343 343 341 340 342 343 341 340 343 344 344 345 345 342 345 343 345 344 344 342 342 343 343 342 343 343 341 342 342 342 343 343
325 325 326 326 329 350 350 353 349 350 351 352 351 348 346 346 344 343 343 341 340 342 344 341 340 343 345 342 346 346 345 344 345 346 343 342 343 344 342 344 343 344 341 342 341 340 341 341 340
326 327 326 325 332 335 345 355 348 350 351 352 351 348 346 346 345 344 344 343 341 341 343 341 341 342 340 343 346 345 345 345 345 347 346 344 342 345 343 344 343 344 343 342 341 340 341 341 342
326 326 326 327 335 349 352 354 351 349 348 346 347 349 347 346 345 344 344 343 341 343 342 341 341 340 339 342 345 344 344 346 345 346 347 345 344 342 344 341 343 342 342 342 341 340 341 340 341
327 324 326 325 321 323 346 352 356 351 351 345 347 349 349 347 345 344 345 344 341 341 342 342 341 340 338 335 341 342 343 346 345 345 345 347 346 343 345 343 341 344 343 342 340 341 340 338 339
327 326 323 323 321 332 337 334 338 348 350 348 348 348 349 348 347 346 345 344 344 341 342 341 340 340 340 337 337 342 343 345 344 345 345 347 344 344 344 342 342 343 343 341 342 339 341 340 337
324 322 317 316 316 320 322 321 328 351 348 347 346 349 348 349 348 347 346 345 344 341 340 341 341 341 341 338 336 339 341 344 343 345 346 347 344 341 342 345 344 343 343 342 337 338 339 342 339
318 317 319 320 320 321 318 319 319 336 345 343 345 349 349 349 348 346 343 343 343 341 340 341 341 341 341 340 337 336 338 343 342 344 346 347 346 342 340 344 344 343 341 342 345 342 339 340 341
320 317 317 322 320 322 318 322 322 320 328 342 344 346 349 349 348 347 343 343 343 342 342 342 341 341 341 341 339 336 335 342 343 345 347 347 348 346 346 343 341 341 339 341 346 341 338 337 341
317 317 317 315 315 319 318 320 321 327 331 340 343 347 348 348 345 347 345 343 344 343 342 342 342 342 342 342 342 336 335 342 343 345 348 346 346 347 347 348 344 346 346 340 339 343 341 338 340
312 313 317 314 320 323 319 321 321 328 329 340 340 345 348 348 346 346 346 344 344 344 344 343 343 342 343 342 342 341 334 336 342 346 348 348 348 347 347 348 345 342 346 345 340 344 342 342 336
310 310 308 311 314 318 320 320 325 327 326 328 336 341 344 346 347 345 346 345 345 345 344 344 343 343 343 343 343 342 340 333 335 344 346 348 348 346 348 349 347 347 345 345 345 343 342 342 340
309 309 306 309 312 313 316 322 317 318 325 337 341 342 342 343 344 345 345 345 343 344 344 344 344 343 343 343 343 343 342 341 332 334 343 347 347 347 348 350 348 349 349 349 347 347 342 342 341

GFSSGP_850_thetae_072.txt.gz
Theta_e
333 332 342 345 345 348 352 356 351 353 351 345 341 341 342 345 347 344 338 338 339 338 338 337 337 335 333 332 336 334 328 330 334 336 330 328 327 339 341 332 336 338 338 335 340 339 342 340 343
333 338 346 348 350 359 358 351 356 353 350 342 343 346 348 348 345 340 338 338 338 339 339 339 338 336 334 335 338 338 332 333 334 337 338 339 337 332 338 335 329 341 337 333 337 338 341 339 341
340 347 349 352 354 359 356 352 352 351 345 343 349 348 348 346 344 338 337 338 338 339 339 340 339 336 336 337 339 339 338 334 338 338 343 339 338 343 341 337 337 337 338 338 339 339 337 340 344
347 346 346 354 358 355 351 350 350 350 350 350 348 348 346 346 339 338 336 337 338 339 340 340 339 338 339 339 339 339 339 335 339 338 340 338 334 341 336 339 338 338 338 338 339 338 342 343 344
346 347 353 358 357 353 348 348 348 352 350 350 348 347 346 343 341 335 335 336 338 340 341 340 340 339 338 338 338 337 339 336 339 340 340 339 339 340 340 334 337 337 338 336 337 339 342 343 343
348 348 356 359 357 353 351 347 348 351 350 348 345 346 348 344 337 335 335 337 339 340 341 341 340 336 342 340 338 341 338 338 339 339 338 333 337 339 339 330 329 330 330 333 336 340 343 343 341
346 351 354 356 355 352 353 351 352 350 349 348 346 348 349 346 338 338 337 339 340 341 341 339 335 332 335 336 341 340 338 338 339 335 336 336 337 338 336 338 339 338 329 330 336 340 341 342 340
349 351 356 354 357 354 351 351 349 350 348 347 347 348 349 345 341 338 338 339 340 340 340 339 343 341 342 342 340 338 338 336 335 335 335 337 337 338 338 337 337 331 331 334 339 341 342 341 340
350 355 356 353 354 355 352 351 351 350 345 348 349 346 347 345 342 340 340 342 341 337 337 339 340 343 340 340 340 337 336 331 337 338 335 336 337 337 334 338 331 330 333 340 341 342 341 342 341
350 353 351 349 350 353 353 351 351 349 346 346 347 348 347 345 346 343 343 341 335 333 335 337 340 338 338 339 334 329 334 335 335 338 335 337 336 332 332 334 329 329 336 341 342 342 342 342 343
351 352 349 349 352 352 352 352 351 351 353 346 348 348 348 348 346 342 339 330 330 332 335 337 338 338 337 330 328 336 338 336 333 332 334 335 333 333 332 329 329 332 335 339 341 341 341 341 340
348 347 347 349 352 352 352 351 351 350 351 346 345 347 347 345 341 336 331 329 330 332 335 334 335 336 334 327 337 338 337 337 337 335 333 333 334 333 332 335 337 339 340 340 340 340 341 341 340
345 344 343 342 350 351 351 351 351 352 348 346 344 347 347 344 341 337 333 333 331 332 332 334 336 335 329 332 341 340 341 338 339 339 337 334 334 335 337 338 340 341 342 342 341 340 342 343 342
338 340 338 337 343 350 349 351 351 353 349 347 346 345 345 344 343 343 338 335 331 331 333 334 335 333 328 332 340 342 342 340 341 342 343 342 336 335 340 340 340 341 341 342 343 343 343 342 341
335 332 331 350 350 348 349 352 351 351 352 350 348 346 344 343 342 343 343 331 331 330 333 334 334 331 332 337 339 341 343 343 343 342 343 343 341 342 338 339 341 339 341 341 342 341 342 342 341
325 324 326 349 350 350 349 355 350 349 350 351 348 346 346 346 345 342 341 335 332 331 333 334 334 331 333 337 339 338 342 342 342 342 343 343 343 343 343 340 340 341 341 342 342 342 341 341 340
323 328 326 345 349 351 349 353 349 351 348 351 350 346 344 346 346 344 341 338 334 333 334 335 334 334 338 343 342 341 343 344 341 342 343 344 344 343 343 341 341 341 341 341 342 341 341 342 342
329 326 325 326 349 350 352 351 349 352 351 349 348 344 344 345 345 345 343 340 339 339 337 336 336 336 342 343 343 344 344 345 343 343 343 341 341 343 342 342 343 342 340 340 342 342 342 342 342
325 325 326 325 332 349 349 349 350 350 352 351 347 346 345 344 344 344 344 341 341 341 340 338 338 340 342 342 344 344 342 341 343 343 345 342 344 343 342 343 342 342 340 339 341 341 342 340 340
325 326 325 325 325 333 339 352 348 350 351 352 350 347 346 344 343 344 343 342 341 340 342 341 339 341 341 343 342 344 343 344 343 344 345 344 341 342 342 343 343 343 339 340 341 340 340 340 340
325 325 325 328 324 347 349 352 351 347 350 348 351 349 346 345 344 343 343 343 342 341 341 342 341 341 341 342 342 345 344 344 344 345 346 346 343 343 343 344 342 343 342 341 340 340 341 340 339
327 324 327 327 321 324 345 351 349 348 349 346 346 348 348 345 346 344 343 343 343 342 340 341 342 341 341 342 344 345 342 342 344 343 346 346 345 343 343 342 342 342 343 341 341 340 341 340 339
326 323 325 324 320 334 335 333 336 348 348 347 346 345 348 347 345 344 343 343 343 343 342 340 341 341 341 340 342 343 344 340 340 344 345 345 345 345 342 344 341 342 343 342 341 340 340 339 337
322 318 314 314 314 319 325 323 321 345 344 343 345 346 344 348 347 345 344 344 344 343 342 341 341 341 341 339 340 340 341 341 341 344 344 344 347 344 342 344 340 342 344 343 341 341 338 340 340
317 316 317 319 319 320 316 319 319 320 326 333 340 345 346 344 349 347 344 344 344 344 343 341 341 341 341 340 339 336 335 340 340 342 343 344 345 345 338 340 345 342 343 344 344 339 338 339 341
317 317 317 321 320 321 317 321 325 324 329 336 338 344 346 347 348 348 347 344 344 344 344 343 341 341 341 341 340 337 336 336 339 342 341 344 345 346 342 341 341 344 342 343 342 345 345 339 340
317 316 314 314 314 317 317 319 319 323 327 331 337 343 344 348 347 348 348 346 346 345 345 344 342 340 340 341 341 340 337 337 334 341 341 344 345 345 347 346 346 341 344 344 341 344 347 343 340
311 311 317 314 320 322 319 323 323 320 322 333 339 340 341 346 348 348 348 347 345 345 346 345 343 341 341 341 341 341 340 337 333 338 341 343 343 344 345 347 347 346 344 346 346 340 343 343 342
309 309 307 310 312 317 319 324 319 318 327 335 335 338 342 342 347 348 347 347 346 344 344 344 343 341 341 341 341 341 342 339 337 335 341 342 345 343 346 345 348 347 344 343 344 344 342 341 342
308 309 305 312 314 310 316 318 323 331 332 331 334 336 341 342 343 347 345 346 344 343 343 343 342 342 341 342 341 342 342 342 338 335 335 342 345 345 347 345 347 347 348 348 348 346 346 345 340

GFSSGP_850_thetae_075.txt.gz
Theta_e
332 332 343 345 348 351 355 357 351 354 350 344 341 341 342 341 347 350 338 335 336 338 338 336 339 331 330 334 332 328 330 333 335 330 327 325 338 336 330 337 339 336 336 340 340 342 345 343 341
332 339 345 349 353 360 358 352 354 353 347 342 344 342 348 348 345 340 339 338 337 337 337 335 334 333 332 336 335 330 330 334 336 335 340 337 334 338 337 330 339 340 335 341 340 341 340 341 341
335 346 350 354 356 359 354 353 353 350 343 345 349 348 349 346 344 340 339 339 337 337 337 337 335 334 335 337 338 336 335 334 338 342 342 340 342 341 341 336 336 337 336 341 341 336 339 343 342
347 346 348 355 358 355 351 351 351 345 348 350 349 350 346 345 341 340 338 338 339 339 338 338 336 334 336 338 338 338 335 337 337 340 338 336 341 337 339 337 339 338 338 337 338 341 343 344 342
346 347 355 358 357 353 348 348 350 350 351 350 349 347 345 343 340 338 338 339 339 339 339 338 337 338 339 338 339 337 335 337 339 341 339 336 340 339 337 337 335 338 337 338 338 341 343 342 339
349 349 357 359 356 351 350 348 349 352 351 348 347 347 348 342 337 338 338 339 339 340 340 339 338 338 339 338 337 339 338 339 340 338 334 338 338 338 331 330 336 338 336 337 339 342 341 339 337
349 353 356 356 355 353 353 350 349 350 350 348 346 349 347 345 337 338 337 338 340 340 340 339 338 341 340 341 340 339 338 338 337 337 336 336 338 337 338 338 336 334 338 338 341 342 341 339 338
349 352 356 355 355 351 351 351 350 350 349 347 348 349 346 344 338 339 337 340 341 341 341 338 333 336 338 341 340 338 337 335 339 336 336 337 336 337 337 337 335 333 333 337 339 341 340 340 340
350 355 357 354 355 355 351 350 349 348 348 347 348 346 345 343 340 342 342 342 342 341 340 339 339 341 341 341 339 337 337 335 337 339 338 336 337 337 341 337 330 332 337 340 341 341 342 341 340
351 356 353 350 352 354 351 351 350 348 349 350 349 348 344 344 343 343 342 342 343 343 341 340 340 344 343 345 341 339 334 340 340 338 337 335 331 332 338 338 331 338 340 342 342 341 341 342 343
351 356 350 350 352 352 351 351 350 347 350 349 350 349 346 344 343 343 344 341 341 335 337 336 339 338 340 337 330 334 335 338 335 335 335 333 332 330 333 331 333 337 340 340 341 341 341 340 341
352 348 348 349 352 352 352 351 351 351 349 348 349 347 346 345 345 345 345 344 333 332 335 338 339 338 335 327 334 337 333 332 332 333 334 333 333 331 331 333 338 339 340 340 340 340 341 342 340
347 347 344 344 351 351 352 351 351 351 347 349 349 348 348 347 345 346 344 341 331 332 335 334 337 337 329 336 337 336 336 335 335 334 333 334 334 333 337 339 340 340 341 341 341 340 342 342 342
339 340 336 337 343 352 352 352 350 350 347 348 348 348 347 347 345 343 340 333 330 332 334 334 335 336 328 338 337 339 337 338 339 339 337 334 335 337 338 340 341 341 342 341 341 342 342 342 341
336 334 341 349 346 350 350 354 353 350 347 347 347 347 345 344 344 337 333 333 329 331 333 335 336 333 329 340 341 342 339 341 342 343 343 340 337 337 339 339 341 341 342 342 341 341 342 342 341
329 329 332 352 350 350 350 355 350 350 348 348 347 347 347 346 344 344 339 336 329 330 332 334 335 331 329 337 340 342 342 342 343 343 343 343 342 342 339 341 341 339 340 342 343 342 341 341 340
330 337 331 353 351 352 353 354 350 352 350 350 348 347 346 346 345 343 343 337 330 329 332 333 333 330 335 339 337 340 342 341 342 342 343 344 343 343 343 342 340 341 341 342 342 341 342 341 341
337 332 330 343 354 352 354 353 351 350 350 351 350 348 347 346 346 345 344 341 333 329 333 334 333 331 336 338 338 339 342 343 340 342 343 341 343 342 341 341 341 341 340 340 342 342 341 340 340
329 330 331 329 345 347 348 351 354 353 350 351 350 349 347 347 347 347 345 342 334 330 333 333 333 332 337 342 340 342 343 344 343 343 344 342 343 343 343 342 342 343 340 340 341 341 340 339 340
329 331 331 329 332 335 339 350 352 352 352 351 350 348 347 346 346 346 346 344 337 333 336 336 335 334 340 342 342 343 339 340 343 343 343 342 341 342 343 342 342 342 341 338 340 340 340 340 340
330 332 330 330 328 351 351 355 353 351 352 352 349 347 347 346 346 345 345 345 341 339 339 338 337 337 340 341 343 344 344 342 343 343 344 345 342 342 343 343 344 343 341 339 340 340 341 341 340
334 328 329 330 330 330 350 346 353 353 353 351 352 349 348 347 346 345 344 344 345 340 340 341 340 339 340 341 344 343 344 343 342 343 343 346 345 342 342 343 343 342 343 342 341 340 340 339 339
332 328 329 330 329 334 345 342 344 352 354 352 349 351 350 347 346 346 345 344 344 342 341 341 341 341 341 342 342 343 344 343 340 342 344 346 345 344 344 343 341 343 342 343 341 341 340 340 338
327 325 323 323 325 330 340 334 331 338 336 336 346 348 350 349 346 346 345 345 343 343 343 341 341 342 341 341 341 342 343 345 342 339 343 345 345 345 344 342 345 340 344 343 343 341 341 340 340
326 327 328 328 327 332 324 331 334 334 335 339 342 340 348 350 349 346 345 345 344 343 343 343 341 341 342 341 341 340 342 344 344 340 341 344 344 345 344 342 343 340 342 344 344 342 339 339 340
327 327 328 330 329 329 323 330 332 328 334 341 343 344 343 349 349 348 345 345 345 343 343 344 343 341 341 341 341 340 340 341 342 340 339 343 343 343 344 340 340 344 342 344 344 343 344 344 339
321 326 321 324 321 328 326 326 325 332 338 338 339 341 344 347 346 348 348 345 345 345 344 344 344 343 341 341 341 340 340 339 336 340 340 342 342 344 346 345 345 343 342 340 341 342 344 343 339
319 316 325 325 329 329 327 330 329 338 336 336 337 339 341 344 348 348 349 346 346 346 345 344 344 344 344 342 341 341 340 340 336 338 338 339 341 345 345 346 348 346 345 344 346 345 340 342 343
317 319 319 323 323 328 329 329 334 334 332 334 335 336 338 344 347 349 348 346 346 347 346 345 344 344 344 343 341 341 341 341 340 338 336 337 341 343 342 344 345 347 347 342 343 344 344 341 341
313 314 314 327 326 322 327 327 329 331 329 329 332 333 335 338 342 346 348 346 346 346 345 346 345 345 345 344 342 341 341 341 341 341 338 335 339 342 344 342 345 346 348 346 345 345 345 345 345

GFSSGP_850_thetae_078.txt.gz
Theta_e
333 338 345 347 353 351 358 357 353 355 352 347 344 344 344 343 348 353 342 343 346 347 346 340 330 330 331 328 328 331 342 335 330 327 326 338 335 330 336 340 336 336 340 340 343 345 342 340 341
342 343 348 352 357 360 359 354 356 354 348 345 343 343 345 351 346 343 342 344 346 346 346 346 330 331 335 332 329 331 335 336 336 339 336 335 336 336 332 337 338 334 339 339 341 341 341 340 336
342 347 352 356 359 360 357 355 355 350 344 345 344 349 349 350 344 342 342 344 346 347 346 344 337 333 337 336 341 334 335 337 341 342 339 342 341 339 332 339 339 335 342 340 337 341 343 341 337
347 350 352 360 359 354 352 353 349 346 348 349 347 351 348 347 343 344 343 344 346 346 346 335 334 335 337 339 340 337 334 339 339 339 338 341 338 338 339 339 338 337 338 338 339 343 344 341 336
349 351 358 360 358 352 351 351 346 351 351 348 347 350 346 345 345 344 344 344 346 347 348 343 335 336 338 338 339 337 335 338 340 339 337 341 340 338 338 336 337 337 336 338 342 343 341 337 335
352 352 360 360 355 353 350 351 352 351 352 350 350 350 348 346 344 344 344 346 347 348 348 347 339 339 341 340 338 339 338 340 339 336 339 338 338 331 332 336 337 337 337 340 342 341 338 336 334
352 356 359 357 355 356 352 351 352 353 353 351 350 351 347 344 343 344 345 346 347 348 348 349 348 342 340 339 340 339 339 339 338 337 336 338 337 336 338 332 336 337 339 341 342 339 337 337 334
352 355 358 356 356 356 352 350 352 351 351 349 350 350 347 344 344 345 346 346 348 348 348 348 348 349 348 346 340 337 338 339 336 336 337 336 337 336 337 337 333 334 339 341 340 339 340 338 336
352 357 357 357 354 354 350 349 350 348 349 349 351 348 344 344 344 345 346 347 348 348 346 345 346 347 350 351 340 339 334 336 339 339 339 345 344 345 345 334 330 336 338 341 340 341 341 341 339
353 357 355 352 353 353 350 349 349 349 349 351 350 346 344 344 344 345 346 347 347 346 346 347 349 350 351 347 347 345 348 349 346 349 346 344 344 345 341 336 336 338 341 341 341 341 344 346 344
353 354 349 350 353 351 351 349 349 348 353 352 351 346 344 344 344 346 346 346 345 345 345 347 351 351 347 349 347 345 345 346 346 348 345 344 344 345 342 344 346 345 346 346 348 347 346 347 345
354 350 347 348 351 352 353 348 353 350 352 351 351 345 344 344 344 345 345 345 345 345 346 346 349 349 347 345 346 345 344 344 344 345 344 345 343 344 345 345 347 347 346 347 347 346 348 347 348
351 348 343 342 351 351 353 352 351 349 351 350 349 345 344 344 344 344 344 344 343 344 346 347 348 349 346 347 347 346 344 343 344 344 344 344 344 346 346 347 347 347 347 346 348 348 349 348 347
346 345 340 338 345 349 352 352 350 351 351 349 348 346 346 345 344 344 343 342 343 344 346 347 348 347 347 348 348 347 346 346 345 345 342 341 345 347 347 348 348 348 347 347 348 348 349 347 348
343 342 342 344 341 348 351 355 353 350 350 349 348 346 346 346 344 343 342 341 343 344 346 347 347 346 347 346 347 347 347 348 347 346 342 337 345 341 347 347 348 348 343 344 348 348 348 345 345
343 339 341 348 346 348 352 358 354 350 349 348 348 347 346 344 341 342 342 341 342 343 346 347 346 344 347 348 348 348 348 349 349 349 348 341 339 339 343 348 347 347 348 348 347 348 345 345 344
343 347 340 351 350 353 353 356 353 350 349 347 345 343 340 340 343 344 342 341 341 343 346 347 347 344 345 342 348 349 349 349 350 350 349 343 343 343 347 349 347 343 348 346 347 347 346 345 344
347 344 338 350 354 353 353 354 355 349 350 348 347 346 341 343 346 347 346 343 341 343 344 346 347 345 343 344 346 348 347 348 349 349 349 343 347 343 346 347 346 347 348 346 346 347 346 345 344
343 341 341 342 351 351 348 347 356 353 351 350 349 347 347 344 347 347 348 347 342 342 343 346 347 345 343 347 345 346 346 347 348 349 343 341 344 343 341 348 345 347 346 347 342 344 344 342 343
338 338 337 334 338 338 336 342 350 353 353 352 352 351 350 346 346 347 348 348 342 340 343 345 346 339 341 346 346 347 347 347 348 350 346 345 344 343 344 344 345 345 348 340 340 345 344 341 341
337 341 336 336 333 342 344 353 353 352 352 352 352 352 351 349 347 349 348 348 344 340 343 344 342 341 337 347 348 349 350 349 349 349 349 349 343 341 343 341 348 344 346 346 342 343 343 342 345
337 337 335 333 334 343 343 353 355 353 356 353 352 352 351 350 349 349 349 348 346 343 342 345 339 340 337 343 350 350 349 346 347 349 349 351 344 346 341 343 343 343 347 346 344 345 345 343 343
334 335 335 333 335 333 339 343 349 352 353 354 352 351 349 350 349 349 349 347 346 346 345 346 340 338 344 340 346 349 347 348 348 348 350 352 347 343 349 342 342 341 347 345 343 341 341 345 343
332 332 333 333 333 335 339 340 341 345 343 343 343 351 352 350 349 348 348 347 345 347 347 348 347 340 340 341 341 343 350 349 348 348 350 350 351 350 347 345 342 341 349 344 346 340 341 343 345
332 331 335 336 332 334 337 337 342 340 346 346 346 346 347 353 350 349 348 347 346 346 348 349 349 342 341 341 341 342 342 348 351 350 344 350 350 350 350 342 342 345 341 343 345 342 348 342 343
332 331 332 335 333 333 333 337 338 342 342 344 345 347 341 350 352 350 349 348 348 348 348 349 349 344 342 341 342 341 341 349 348 349 348 348 349 351 351 346 346 343 342 342 343 345 344 349 341
331 331 330 332 332 333 333 336 338 338 341 342 340 342 346 348 351 351 349 348 348 349 349 349 350 344 343 343 340 341 341 341 348 348 349 349 350 350 352 352 351 348 347 340 348 349 345 347 348
327 330 330 330 333 335 332 336 341 341 340 339 337 339 344 348 351 351 351 349 348 349 349 350 349 346 344 344 345 342 341 341 340 345 348 350 349 351 351 351 353 350 351 348 339 350 346 341 348
324 327 328 329 330 333 335 337 338 337 335 336 335 336 340 343 349 350 350 351 349 349 349 349 350 351 350 346 345 347 346 341 341 341 338 338 348 350 351 348 348 349 352 349 345 344 351 349 350
320 324 327 330 331 331 332 341 335 335 332 333 333 333 335 336 339 348 349 351 350 350 350 349 349 350 351 351 348 345 344 346 348 341 343 341 340 348 352 352 343 349 352 352 343 348 351 350 352

GFSSGP_850_thetae_081.txt.gz
Theta_e
333 336 347 349 355 350 356 357 354 355 350 347 345 345 346 349 352 354 345 348 348 347 345 337 328 327 327 331 330 343 335 330 327 328 338 333 332 339 339 336 337 341 341 345 344 340 341 340 340
343 343 348 352 358 360 357 355 358 354 349 346 344 344 350 350 347 345 345 348 348 346 345 343 330 332 330 339 332 337 336 341 342 336 339 338 335 337 338 337 339 340 339 342 341 340 337 337 336
346 346 351 357 361 361 362 356 355 348 346 345 347 348 351 345 344 345 346 347 346 348 346 334 333 335 334 342 333 342 339 342 342 340 342 341 336 332 340 338 335 340 339 341 342 341 338 336 332
345 350 352 362 360 354 356 356 350 346 347 346 348 351 349 344 344 345 346 347 346 347 349 333 334 337 338 343 339 338 339 340 341 338 340 338 338 338 336 335 336 340 337 339 343 343 339 336 335
348 351 359 359 359 351 353 350 348 351 349 347 349 350 345 346 344 345 346 347 346 349 348 346 339 338 339 340 340 338 338 340 339 335 339 340 337 337 337 338 338 337 341 343 342 340 338 333 333
351 354 361 361 358 353 352 349 351 350 348 350 349 348 348 346 344 345 345 346 348 347 348 345 341 338 339 339 339 336 339 340 337 337 337 339 332 336 338 339 338 338 341 342 340 337 335 332 331
352 359 360 358 358 357 355 353 353 351 349 351 351 350 347 346 345 345 346 348 347 350 346 348 348 343 342 337 339 339 339 337 336 335 337 336 335 334 333 340 340 340 342 339 337 337 334 331 331
352 357 359 356 360 359 354 353 353 351 354 350 351 348 347 345 345 345 347 348 348 347 346 349 348 348 349 346 338 338 337 335 335 336 334 335 337 337 336 336 338 341 341 339 339 338 335 327 328
353 360 359 359 357 355 352 353 352 353 351 352 351 346 344 344 344 345 346 348 347 347 347 348 349 351 348 346 339 335 336 337 336 341 344 345 344 345 345 339 338 339 340 340 341 343 344 331 334
355 358 357 354 353 355 350 351 349 351 352 352 350 345 344 345 344 344 347 347 346 344 344 347 348 347 348 345 347 346 347 346 346 344 345 346 346 342 341 335 339 340 341 341 342 345 347 346 348
354 354 351 354 353 351 350 348 349 350 353 352 348 346 344 344 344 344 345 344 344 344 348 349 347 347 348 345 345 347 345 347 344 345 343 340 344 343 344 341 342 345 345 348 347 347 344 345 343
355 351 349 354 352 351 351 349 350 350 353 353 349 346 344 344 343 343 343 343 343 344 345 350 347 346 345 345 346 345 345 344 345 344 344 344 343 344 345 346 343 346 347 347 347 346 346 346 344
353 349 345 348 349 353 352 352 353 352 352 352 349 346 344 343 343 343 342 343 343 344 345 348 347 349 345 348 344 345 343 345 344 346 346 344 346 346 346 347 346 346 346 345 347 347 349 346 346
349 350 343 343 344 354 353 352 353 351 353 353 348 346 344 342 342 342 341 342 343 344 345 348 347 347 347 348 348 346 345 344 345 344 346 348 346 347 347 347 348 347 347 347 348 347 347 347 344
347 347 343 345 347 351 352 356 353 352 351 350 348 346 344 342 341 342 342 342 342 344 346 347 347 347 350 347 346 348 346 345 345 346 348 348 348 352 348 346 348 348 342 345 348 349 346 346 345
348 347 347 346 347 350 353 359 354 353 351 350 348 346 344 343 342 342 341 340 341 344 346 347 345 346 348 349 346 346 348 347 347 346 346 348 345 349 348 348 346 345 349 347 347 347 344 345 344
347 349 346 349 348 352 354 359 353 352 350 350 347 346 345 343 341 340 341 339 341 344 347 347 347 345 348 350 349 348 348 349 349 348 348 351 350 341 349 347 347 347 346 345 346 347 346 345 344
347 347 345 350 351 352 354 355 355 351 349 348 347 345 344 342 341 342 341 340 342 344 347 348 346 345 349 349 349 349 347 348 348 348 351 344 351 351 347 347 346 349 347 346 347 347 347 345 344
340 343 347 349 348 353 352 355 355 351 350 350 346 344 342 340 343 345 344 343 343 344 346 348 348 347 347 348 347 344 345 347 348 349 347 349 351 351 343 348 345 348 347 347 347 345 344 343 340
341 343 340 345 347 353 354 355 357 352 350 349 348 348 342 342 346 347 347 345 342 343 345 348 349 349 348 348 347 345 345 344 347 349 351 352 352 349 348 350 347 348 348 344 349 347 345 339 342
342 343 340 339 343 342 339 348 355 352 352 349 347 347 348 344 347 348 349 347 342 341 343 347 349 350 350 349 348 350 349 350 347 350 349 351 351 352 352 344 352 347 347 347 342 342 343 347 341
341 339 338 338 339 344 343 357 352 356 354 353 352 351 351 349 347 347 349 348 343 342 344 347 349 350 348 349 347 348 347 345 346 347 348 351 352 351 351 351 351 344 349 352 343 343 347 346 345
334 337 339 337 337 342 345 352 350 354 356 354 351 353 353 351 347 347 348 349 344 342 344 349 351 351 347 345 350 350 350 348 348 347 351 349 350 351 351 352 351 343 348 345 350 347 342 345 346
333 336 337 337 336 339 338 344 352 352 355 355 350 352 352 350 349 349 349 349 345 343 343 347 351 351 350 348 344 352 352 349 350 346 350 349 351 350 350 351 352 347 351 352 348 351 344 344 348
334 337 339 339 337 337 335 343 348 347 348 348 346 347 351 350 351 350 350 350 345 345 345 347 351 349 350 351 351 348 352 351 354 353 348 350 350 350 350 344 349 349 343 352 353 346 350 344 345
334 335 336 337 336 334 335 345 349 346 346 345 347 346 348 351 349 350 349 349 346 344 346 349 352 354 348 348 351 352 353 351 348 350 348 346 349 349 353 349 351 351 351 352 349 350 349 347 348
334 335 332 333 334 333 340 346 345 344 345 342 343 348 350 344 352 350 350 349 348 346 346 349 351 354 355 353 351 350 352 347 348 348 349 349 350 350 354 350 351 352 352 352 351 350 352 351 348
330 333 333 332 336 334 340 346 347 345 345 340 339 342 347 352 353 352 351 350 349 349 347 348 351 353 355 356 355 355 355 354 345 351 350 349 350 351 350 352 351 353 352 352 350 350 350 348 350
330 332 333 332 334 335 341 348 345 343 341 339 337 338 340 342 344 348 350 350 351 350 350 349 351 352 355 355 355 355 355 355 355 353 352 351 350 352 351 354 352 354 354 353 351 347 352 354 351
327 331 332 333 335 333 334 348 339 340 339 336 335 336 337 339 337 344 347 350 349 350 350 349 349 351 353 355 356 355 355 355 354 355 354 353 352 351 351 352 355 354 353 355 353 352 350 351 353

GFSSGP_850_thetae_084.txt.gz
Theta_e
333 337 348 350 354 349 356 357 355 351 349 345 345 347 350 348 351 355 350 349 348 348 340 340 335 329 328 328 334 334 329 327 328 331 330 332 337 336 336 337 340 341 344 340 340 340 339 340 333
341 343 347 350 360 356 359 352 358 353 346 345 349 349 347 348 346 350 350 348 348 346 343 328 327 337 333 340 339 336 340 339 336 339 335 333 338 341 336 339 340 342 341 340 337 336 337 336 330
346 346 349 355 360 362 363 357 356 349 344 347 351 345 346 346 346 349 348 348 345 345 344 331 331 339 336 334 340 338 342 340 339 341 341 332 335 339 340 339 339 341 340 342 339 335 332 331 327
348 347 349 360 361 354 357 356 349 346 347 349 346 345 344 345 347 348 348 347 346 346 333 335 334 339 342 336 338 339 340 340 339 340 340 342 339 339 339 340 340 338 342 343 341 336 333 333 335
347 350 358 357 356 352 352 350 349 347 350 348 345 345 346 346 346 346 346 348 349 348 330 337 337 340 340 338 338 338 340 339 339 342 339 338 342 338 337 338 338 341 340 335 337 332 332 333 334
347 352 361 362 354 352 352 352 350 351 350 346 344 344 345 345 345 347 347 349 350 349 346 340 340 340 340 341 337 339 340 338 338 338 337 335 339 336 336 335 339 342 341 337 334 331 330 331 332
351 358 361 358 359 357 355 354 351 350 351 348 346 347 345 345 345 346 348 348 346 349 348 344 344 342 341 339 338 339 336 333 333 334 332 333 329 338 340 337 341 341 336 335 329 327 330 330 330
353 356 360 357 359 359 354 354 355 353 352 349 347 347 345 345 345 346 345 348 347 347 348 347 343 343 340 338 337 335 333 333 334 334 338 336 332 333 338 338 341 338 337 335 335 324 324 327 336
352 360 362 359 358 359 354 354 353 354 351 352 349 344 344 344 347 347 345 347 347 347 348 350 349 348 345 336 335 335 334 340 343 343 344 347 342 343 345 340 341 339 338 343 345 333 336 336 338
353 360 359 354 353 356 352 351 351 352 351 350 345 344 343 344 348 348 346 346 347 349 349 348 346 345 345 344 343 339 339 341 345 348 344 345 343 338 336 338 339 339 340 346 345 344 336 347 344
355 355 355 354 353 352 352 351 349 351 353 348 345 344 343 343 346 344 346 344 346 348 350 350 344 347 347 345 348 346 343 341 345 347 345 341 332 334 337 339 340 342 346 349 346 347 344 347 346
355 352 354 353 351 350 350 349 350 351 353 348 346 344 343 342 343 347 347 347 346 347 350 347 348 349 344 343 348 345 344 344 343 345 341 346 345 346 346 348 347 344 347 334 346 346 347 343 342
356 350 352 353 351 350 349 350 350 353 353 349 347 344 343 342 342 343 343 343 348 349 350 344 350 345 348 347 349 347 345 346 339 341 345 347 345 345 347 341 346 346 349 346 346 347 342 347 346
350 349 346 348 353 352 351 353 352 353 350 352 347 345 343 342 341 343 343 343 343 348 348 347 349 344 349 346 344 343 345 345 345 345 345 346 344 347 348 346 348 348 348 345 341 346 345 343 342
348 352 345 347 353 354 352 355 355 353 354 351 348 345 343 342 341 342 342 343 343 346 348 346 346 348 348 345 344 346 343 347 345 341 350 348 347 346 344 341 347 348 343 349 346 349 346 346 346
351 349 348 347 352 353 353 360 353 352 353 350 347 345 343 342 341 342 341 342 342 347 347 344 345 346 343 346 349 346 346 347 346 342 342 349 346 349 349 348 344 349 345 348 346 347 345 345 344
349 352 350 348 350 353 355 359 354 351 350 349 347 345 343 342 342 342 341 341 342 346 348 348 345 348 347 344 348 347 346 348 347 347 348 346 339 346 347 347 345 350 347 347 346 346 346 346 344
346 346 348 350 352 353 356 356 354 352 350 350 347 346 344 343 343 342 340 341 342 346 348 348 345 347 349 346 349 349 349 349 348 349 348 346 348 343 347 349 345 346 348 348 345 343 343 345 342
342 343 349 348 346 355 356 357 353 353 351 350 347 346 345 344 342 341 341 340 342 346 347 348 345 345 351 341 347 347 345 348 350 347 350 348 349 348 347 349 343 346 341 343 347 345 344 345 344
339 341 346 346 346 354 356 357 355 352 350 349 348 346 345 344 343 343 341 341 343 346 346 348 347 345 350 345 346 345 348 347 346 348 347 350 348 342 349 348 349 348 345 348 342 345 349 341 342
336 340 344 347 343 344 347 358 346 352 351 350 348 348 346 343 345 345 344 344 344 345 346 348 349 347 348 346 348 346 346 349 348 348 349 349 350 347 348 349 348 345 343 345 339 349 343 342 341
336 339 343 347 349 357 348 364 360 355 353 351 349 349 348 342 345 348 346 346 344 345 346 347 350 346 347 349 347 346 348 347 343 347 350 348 350 351 346 344 350 351 348 345 345 344 343 347 344
336 339 341 340 340 339 341 345 359 354 357 345 346 347 347 348 346 348 349 347 343 342 344 347 349 347 347 348 347 347 345 349 350 349 349 348 349 352 346 349 349 348 346 345 350 347 346 343 346
335 337 340 340 339 338 343 344 357 355 350 351 348 350 344 346 349 348 348 347 345 343 345 348 349 347 343 342 347 347 349 348 347 349 344 350 350 349 351 349 349 344 343 346 347 342 337 342 346
335 336 339 342 341 338 336 342 353 345 353 352 350 350 343 346 349 349 349 347 348 343 345 349 349 345 341 336 347 347 348 349 352 350 346 350 341 350 348 345 341 343 341 349 349 344 340 336 340
334 334 338 340 338 337 336 342 353 343 349 349 347 351 344 344 343 349 349 349 348 343 344 347 349 342 341 341 338 339 339 340 350 352 351 348 348 350 351 349 345 345 349 345 348 345 340 344 338
334 335 336 337 336 335 347 351 349 347 345 345 347 351 351 353 351 351 350 350 347 345 345 346 347 344 342 342 345 345 343 342 338 345 347 347 351 350 350 351 350 344 351 348 348 344 346 348 350
334 333 335 336 339 338 350 352 352 350 346 342 343 343 343 344 351 352 350 350 349 348 345 348 347 349 347 349 348 347 345 343 348 348 348 351 352 351 346 350 350 349 351 351 347 347 348 350 345
333 333 334 334 335 336 350 353 347 348 344 342 340 340 341 341 346 349 349 350 350 348 348 349 350 348 352 355 355 355 352 349 346 346 344 346 348 352 351 339 350 348 350 349 349 345 352 351 347
331 333 333 335 339 336 348 351 342 343 340 339 337 338 341 340 342 344 347 347 348 349 349 348 351 351 353 357 356 356 356 355 354 349 346 344 340 338 349 352 352 353 350 350 351 347 348 350 348

GFSSGP_850_thetae_087.txt.gz
Theta_e
334 338 344 349 353 350 355 355 353 350 350 347 348 347 348 348 348 352 346 346 344 344 343 343 337 332 327 328 332 330 327 327 328 328 334 334 332 333 338 336 340 341 339 339 337 335 330 337 337
335 344 345 349 357 356 356 351 355 353 349 346 346 347 350 351 349 349 349 348 343 342 340 331 327 328 340 335 334 338 335 337 337 333 333 336 337 335 334 339 342 339 337 334 335 333 330 340 338
344 345 347 352 357 360 359 354 355 351 347 344 346 346 349 350 350 349 348 346 337 331 327 329 335 331 339 339 338 341 338 337 340 338 331 336 337 336 338 338 339 341 339 337 332 330 326 340 342
349 349 349 356 355 354 355 352 352 346 344 344 345 346 349 349 348 347 347 343 338 329 330 334 338 331 334 336 338 340 338 338 339 340 339 339 338 337 339 338 339 342 342 335 332 332 333 336 340
349 349 355 357 354 352 353 353 350 348 345 344 346 348 349 346 346 347 345 344 341 332 333 337 341 338 335 336 336 338 336 337 339 337 341 340 337 335 337 337 341 341 339 333 331 332 333 339 339
347 350 360 360 354 354 352 350 348 345 344 346 346 346 348 349 348 346 346 346 337 330 335 338 339 338 336 335 337 339 337 335 337 336 336 338 340 341 334 340 342 338 334 331 330 330 329 334 341
349 356 360 353 354 357 355 352 353 344 344 345 346 346 346 348 347 347 348 347 344 332 335 337 338 339 337 337 338 334 332 334 335 332 330 335 339 334 336 341 340 334 327 324 329 328 328 336 343
350 354 360 356 358 358 354 354 354 348 346 345 344 345 346 347 348 349 348 348 345 338 338 336 337 336 337 337 333 331 332 333 334 333 332 330 337 336 340 340 335 334 335 323 326 328 336 337 339
352 357 361 358 357 357 354 354 353 353 350 345 345 345 346 347 348 347 347 348 348 347 346 346 345 341 335 331 331 334 336 337 341 341 341 336 335 337 340 337 336 340 342 331 336 335 338 340 340
352 357 360 354 354 356 354 353 352 352 351 348 345 345 346 346 346 347 346 347 349 349 349 346 346 337 332 335 333 341 343 344 344 345 343 338 338 339 340 338 340 343 343 344 338 342 343 340 340
353 358 354 353 354 353 352 350 350 351 351 344 344 344 346 344 347 345 345 347 348 348 345 345 344 345 345 340 341 339 342 345 345 343 344 339 335 338 338 339 340 344 339 344 347 344 344 344 339
356 352 353 353 353 351 351 350 350 353 351 344 343 344 347 346 343 344 345 348 349 348 345 344 344 348 347 345 342 338 343 344 341 342 339 338 339 340 344 343 340 344 337 341 342 343 344 344 340
345 350 353 352 351 350 348 350 352 351 350 345 342 343 347 346 342 342 345 348 349 349 345 346 342 345 346 346 344 345 343 340 342 344 346 347 343 346 343 343 344 346 342 340 339 343 342 344 342
351 350 353 351 350 349 349 350 350 349 349 348 343 343 343 344 345 345 347 348 347 348 346 346 346 348 348 347 347 346 344 339 343 345 345 346 345 345 340 345 344 346 345 340 341 344 344 343 341
349 352 349 352 351 351 350 353 353 347 349 351 344 343 342 342 346 346 347 348 348 347 349 346 344 348 345 345 346 345 345 345 340 344 346 344 343 340 341 344 345 345 346 342 346 345 345 344 339
348 350 355 351 352 353 353 360 354 347 348 350 345 343 342 342 343 343 346 348 348 347 345 345 339 346 343 345 345 345 347 347 345 341 346 344 344 346 344 344 344 343 344 345 343 345 344 344 344
346 352 352 350 353 353 352 358 352 353 353 349 346 344 342 340 342 343 342 346 348 348 343 343 343 344 345 341 346 345 347 346 344 342 342 346 347 348 344 345 346 344 344 345 345 346 346 346 345
346 350 351 351 354 353 354 352 351 352 352 349 347 345 343 341 341 341 342 342 347 347 344 345 342 340 346 345 347 346 346 346 348 348 348 344 343 347 345 346 346 346 345 343 344 343 345 343 343
337 342 350 350 351 356 353 355 355 352 351 348 346 345 343 342 341 341 341 341 347 348 344 345 344 340 344 347 347 346 345 345 348 349 347 345 343 345 347 347 343 346 345 345 341 343 344 344 341
332 339 346 350 351 350 342 352 354 352 351 348 347 346 343 343 342 340 341 341 343 345 343 345 345 343 346 344 347 345 347 345 347 348 346 346 347 347 346 342 342 345 341 347 346 345 345 343 342
330 335 339 349 349 345 345 352 353 353 351 350 348 346 346 343 341 340 342 342 343 345 342 349 345 344 341 343 347 350 348 347 348 349 348 347 348 343 347 348 348 344 338 341 346 344 343 341 342
326 331 335 344 346 349 347 359 350 352 353 350 348 348 347 346 341 342 341 342 342 344 343 345 348 346 338 345 347 348 349 348 348 345 348 346 349 347 346 346 348 345 343 336 346 345 344 343 344
328 333 342 344 344 348 345 354 351 352 355 352 348 347 347 347 346 343 342 343 343 345 345 343 343 347 339 345 347 347 350 350 349 348 348 348 348 349 350 347 343 345 342 343 342 348 345 344 344
329 328 340 340 344 348 345 346 359 356 355 352 348 348 345 347 347 347 344 346 345 345 345 345 342 344 344 347 346 345 346 347 348 347 350 347 346 350 347 347 348 344 343 344 346 348 341 343 345
326 327 337 341 342 341 333 347 354 352 352 346 344 347 347 347 346 348 348 347 346 345 343 343 344 341 342 348 344 347 345 346 347 349 347 348 347 348 347 350 348 344 340 343 344 339 339 340 342
325 330 333 342 341 336 335 353 351 347 348 349 344 346 347 345 344 345 348 349 346 342 342 342 345 334 338 342 345 347 343 348 349 349 348 350 348 346 350 348 346 344 339 347 345 343 337 337 335
328 331 330 330 333 332 352 350 347 346 346 348 349 347 341 340 343 344 347 349 349 343 343 342 344 338 338 334 334 345 343 345 345 351 348 350 347 348 348 350 347 346 348 343 340 343 341 344 344
328 331 330 328 336 336 356 354 357 349 344 344 343 344 344 344 344 345 344 347 350 346 345 342 342 338 339 339 337 338 339 340 340 348 347 349 347 348 349 346 346 344 346 345 344 346 346 349 345
331 332 331 328 331 333 353 354 348 344 342 340 341 342 343 345 351 348 347 347 349 348 348 346 345 341 340 340 340 341 341 341 343 342 345 350 348 350 350 346 348 346 348 346 345 344 348 350 350
332 331 330 329 331 335 347 352 342 340 338 338 340 341 342 343 347 348 349 349 349 347 349 348 348 347 349 347 344 344 346 346 343 343 343 345 349 349 348 345 344 349 346 349 350 346 344 348 348

GFSSGP_850_thetae_090.txt.gz
Theta_e
336 334 344 348 351 349 353 354 349 350 349 346 340 341 339 340 343 347 342 339 340 342 343 341 336 334 327 329 331 329 328 327 335 338 329 332 336 335 333 339 338 339 337 333 329 336 334 336 341
336 344 347 348 354 355 353 352 354 349 346 347 347 348 346 347 346 347 344 343 342 342 342 338 330 327 332 331 333 332 336 332 329 332 335 338 339 340 341 341 340 341 337 335 334 337 338 339 341
338 344 347 351 354 357 357 352 352 347 346 346 348 349 349 349 346 346 343 343 342 341 332 326 332 339 334 338 338 333 335 339 334 333 336 333 337 339 341 339 339 335 332 330 331 339 337 339 341
346 349 349 355 355 354 354 351 350 345 345 346 346 349 349 348 348 344 343 341 337 328 329 329 334 335 336 338 340 338 340 340 335 334 337 337 336 336 339 340 339 338 332 331 326 338 340 340 342
349 347 353 356 354 352 351 350 347 345 347 347 347 349 348 347 344 343 340 332 327 328 334 333 332 335 336 336 338 337 339 339 343 340 339 336 340 337 340 341 341 334 330 332 331 334 337 340 341
348 348 356 358 355 353 351 350 349 346 348 349 347 347 347 345 345 342 335 328 330 330 337 338 337 334 336 336 339 335 337 336 334 340 337 335 337 337 339 340 335 334 330 331 333 339 337 342 342
348 352 358 353 355 354 353 348 346 347 347 347 347 346 347 346 344 343 343 331 332 332 336 337 337 335 334 338 338 334 333 332 330 334 334 337 340 338 341 335 331 327 330 330 331 336 340 342 342
348 353 354 354 356 356 352 352 346 346 346 347 347 348 346 346 345 345 345 333 332 335 335 336 336 336 337 335 331 330 332 331 330 328 334 335 334 340 337 333 328 324 328 328 330 335 341 342 342
350 356 358 357 355 355 352 352 347 345 345 345 345 348 346 346 346 347 345 338 336 338 336 337 336 335 332 330 331 332 334 333 332 328 333 335 338 339 336 339 330 327 329 334 337 338 339 340 341
351 356 354 352 349 354 353 353 353 346 344 345 347 348 347 347 348 346 347 344 343 344 344 345 336 330 330 332 335 338 342 342 339 337 337 336 340 337 337 343 342 340 338 339 339 339 340 340 341
351 357 350 349 352 354 353 352 351 349 352 345 346 348 349 348 347 347 347 347 347 346 342 338 337 333 333 341 341 343 344 343 340 337 337 338 340 338 340 339 337 341 343 343 341 342 345 341 340
353 353 354 350 354 352 352 350 353 351 348 345 346 347 348 348 346 347 347 348 347 344 342 343 345 339 336 339 341 344 341 340 339 336 335 337 338 338 340 341 341 335 339 342 345 343 341 342 340
354 351 353 352 351 351 350 352 352 349 345 346 346 347 347 346 345 346 347 348 347 343 343 343 343 345 343 340 342 341 341 342 342 342 339 339 342 342 342 342 343 340 340 337 343 340 343 341 341
348 353 353 351 349 349 350 352 349 349 344 345 346 346 344 344 344 346 347 348 348 344 342 344 344 345 343 343 343 342 340 343 344 344 345 344 343 340 343 343 344 343 337 342 344 344 343 342 341
347 351 351 350 350 349 349 352 351 348 345 344 347 346 345 344 345 343 347 348 347 345 344 344 345 346 346 347 346 340 341 342 345 345 344 343 342 342 344 344 345 345 340 342 343 343 343 340 342
350 352 355 351 350 350 348 355 349 347 347 346 343 346 346 344 345 345 347 346 346 344 344 345 348 345 342 345 346 344 343 343 344 344 343 343 341 342 343 343 342 341 345 342 342 343 343 341 342
337 352 353 355 351 351 352 350 349 346 348 347 343 342 342 346 345 346 348 347 347 346 344 341 345 344 344 344 345 345 346 345 344 345 345 342 343 344 344 345 344 343 344 343 344 344 344 345 344
332 348 350 352 354 352 351 352 353 347 349 348 343 342 342 343 346 346 347 347 347 346 342 339 344 343 346 346 346 345 347 345 345 342 341 343 344 344 345 346 344 346 344 344 345 344 345 342 343
327 329 334 351 350 345 350 350 350 352 349 349 345 343 342 343 344 346 348 347 347 344 342 340 342 343 344 345 345 345 346 345 347 347 347 344 344 345 344 344 344 344 344 343 343 344 345 342 341
328 330 346 352 345 346 346 348 343 349 351 350 347 345 342 341 342 346 348 348 346 344 344 344 342 341 344 344 345 345 345 347 346 346 346 345 341 343 347 345 341 344 343 342 344 345 342 341 342
326 329 334 352 345 344 345 345 345 348 350 349 347 346 342 341 342 343 344 346 346 345 344 344 343 342 342 344 346 346 347 347 346 348 344 345 346 343 346 341 345 346 340 341 343 344 343 341 343
323 326 328 350 349 351 343 351 349 351 352 349 348 346 343 341 341 341 342 343 343 342 344 342 343 344 343 341 346 348 348 347 345 343 345 345 347 345 345 345 344 342 338 342 345 344 343 343 343
324 326 327 346 345 345 346 353 349 350 355 350 348 348 345 343 340 341 341 341 341 341 342 341 342 345 343 340 345 347 349 347 346 345 349 345 346 348 345 345 344 345 341 338 345 344 345 344 343
324 327 336 342 344 348 343 348 353 350 353 351 348 347 347 344 343 341 342 342 341 341 342 342 341 342 345 340 346 347 349 348 348 348 347 348 345 347 349 346 343 344 343 342 339 342 344 343 344
322 323 330 338 345 346 338 346 349 347 350 350 349 347 347 345 343 346 344 344 344 343 343 344 343 342 340 340 346 346 347 348 347 346 346 348 347 345 349 345 345 343 342 343 345 340 342 340 343
321 322 329 339 341 342 345 349 353 347 349 350 348 347 347 346 345 346 347 346 346 344 344 345 344 343 339 337 344 346 347 345 345 345 348 348 346 344 342 346 345 342 340 341 344 341 335 336 337
322 326 324 331 335 331 351 348 346 346 347 346 344 347 347 345 345 346 346 347 347 347 346 344 342 339 336 333 342 344 346 346 344 348 346 349 347 346 346 348 349 347 342 341 344 343 340 334 333
324 325 329 324 332 334 351 351 350 350 349 346 347 344 343 344 343 344 346 346 347 347 346 345 342 340 331 333 336 340 344 344 344 348 348 348 348 347 347 346 349 341 340 346 342 340 340 340 342
325 327 325 324 325 332 350 351 346 344 343 344 343 343 344 344 341 342 344 344 343 347 346 347 345 344 341 336 332 334 341 339 338 338 348 348 349 346 348 350 346 345 337 342 344 344 344 344 342
326 327 325 326 328 332 346 352 341 340 340 341 342 342 343 346 348 348 344 343 345 347 346 347 346 344 342 340 339 336 337 339 340 340 345 345 346 349 348 350 346 343 345 347 346 348 342 345 348

GFSSGP_850_thetae_093.txt.gz
Theta_e
334 336 345 346 350 347 354 354 349 350 344 338 335 338 338 341 343 343 339 339 340 341 341 341 341 338 335 329 329 329 336 338 330 331 333 336 332 339 341 339 341 339 332 332 336 328 330 332 335
334 341 347 347 351 354 353 351 353 350 346 337 343 342 346 347 345 341 340 339 340 342 340 336 335 328 330 329 328 327 328 340 342 338 338 336 333 338 338 341 342 335 329 334 339 339 342 340 341
342 344 346 349 353 355 355 351 350 347 343 339 349 348 349 348 344 342 339 339 341 342 337 330 328 333 333 335 342 338 332 331 339 336 338 340 338 340 340 339 335 334 331 338 340 340 339 342 341
341 347 349 353 354 352 353 351 349 347 346 347 348 348 348 346 345 340 340 341 342 339 327 328 337 339 341 338 339 343 340 332 336 339 335 339 341 338 339 336 338 333 330 338 337 338 341 340 339
348 347 352 356 353 352 351 349 348 346 346 347 347 348 347 346 343 341 341 341 337 326 327 337 337 340 340 340 340 341 342 336 339 339 340 337 340 339 340 339 331 332 328 336 340 338 338 338 337
348 347 350 358 354 352 351 349 351 348 348 347 347 346 347 345 342 341 340 334 326 329 329 332 337 336 340 338 336 337 339 341 342 340 337 339 337 339 340 337 332 331 330 331 337 337 341 341 338
347 351 356 354 355 355 352 349 350 348 345 345 345 346 347 344 340 338 330 327 328 334 336 335 337 340 336 339 336 335 334 335 342 341 335 338 336 340 337 335 331 330 331 334 336 339 341 341 340
348 351 354 353 356 355 350 348 347 346 347 344 343 345 346 345 339 332 328 330 331 337 337 336 335 335 339 340 335 334 333 335 340 339 338 334 340 336 328 326 329 329 330 332 336 340 341 341 340
350 355 356 356 355 353 351 346 346 347 346 344 346 343 344 343 342 339 331 332 334 338 337 337 336 337 336 332 332 332 330 330 332 339 342 339 339 333 326 325 327 329 330 334 338 341 342 341 341
350 355 354 351 350 352 350 347 346 347 346 347 345 345 345 344 344 343 333 333 336 336 337 336 336 334 332 330 333 334 335 329 328 338 337 339 336 337 332 334 330 334 336 336 338 339 340 341 341
350 356 350 348 349 349 351 350 345 345 348 346 346 346 345 345 345 341 335 339 341 341 343 337 331 330 332 334 340 342 342 335 336 336 338 339 336 340 341 341 339 337 339 340 340 342 342 341 341
352 349 350 350 349 352 351 350 344 345 346 346 346 346 346 345 346 344 343 345 344 340 336 334 332 332 339 342 343 343 341 338 337 338 339 339 337 340 339 340 342 341 343 343 344 344 340 340 340
352 351 353 352 352 352 350 351 348 350 346 347 347 346 346 347 346 346 346 346 342 340 342 337 336 337 338 343 342 341 340 337 334 336 337 338 338 338 339 340 340 338 340 342 340 340 340 340 340
351 351 352 351 351 350 351 350 349 347 345 347 347 347 348 347 346 347 346 346 342 341 343 344 342 340 339 342 340 342 342 342 342 339 340 342 342 343 342 342 340 338 339 342 339 342 342 341 341
351 354 351 349 348 350 349 352 350 347 346 347 347 347 347 346 346 346 346 346 342 340 342 344 343 342 340 342 339 340 342 343 342 344 344 343 342 340 343 343 342 340 341 342 343 343 342 340 343
351 352 355 351 350 349 347 354 349 345 346 346 346 346 346 345 346 346 346 346 345 341 341 343 343 344 345 345 340 339 342 342 344 344 343 342 341 341 342 342 341 343 342 343 343 343 343 340 343
338 356 353 354 350 349 347 350 349 346 346 346 346 345 344 344 344 345 346 347 346 343 342 343 345 341 344 346 343 341 343 343 344 344 342 343 341 342 343 342 343 343 341 342 343 343 343 344 343
333 344 351 353 352 350 351 346 348 348 346 347 345 346 345 344 344 345 347 346 346 343 342 345 346 344 342 344 343 344 345 345 343 343 342 341 342 343 343 345 342 342 343 344 344 344 344 342 342
327 328 341 354 349 348 348 349 350 348 347 347 344 341 343 344 345 344 347 346 346 344 344 345 346 343 342 344 346 344 346 344 344 343 342 342 342 343 343 345 344 344 344 343 343 344 345 343 341
328 329 353 349 347 349 349 349 346 347 347 348 345 342 344 345 347 346 347 347 345 345 344 343 345 343 344 344 345 344 346 346 346 347 348 345 341 343 345 343 343 344 343 341 343 343 341 342 342
326 328 347 350 346 345 345 346 344 345 348 348 345 347 343 344 348 348 347 346 347 344 341 340 343 341 344 344 344 345 346 346 346 346 345 344 343 344 343 345 341 344 343 343 343 344 342 343 342
326 326 328 349 347 351 344 350 346 344 350 349 346 347 340 342 346 346 347 346 346 344 343 342 342 339 341 342 344 345 345 345 345 345 346 346 345 345 343 345 342 345 342 343 342 342 343 344 343
325 327 325 346 342 344 346 351 347 349 353 350 349 348 344 341 344 347 346 344 346 344 343 343 343 342 343 340 344 343 345 345 346 343 344 345 345 344 344 344 344 345 342 339 344 341 344 343 345
324 324 332 339 341 344 343 348 351 352 352 351 348 348 346 340 342 347 346 347 346 345 344 343 343 342 343 341 344 344 345 345 345 346 347 346 345 346 346 347 344 343 346 342 339 342 341 343 344
321 321 326 342 343 344 340 346 345 346 348 349 348 348 344 340 341 345 346 346 346 345 342 343 343 343 343 342 339 344 345 346 346 347 347 347 346 344 343 346 342 341 344 342 342 338 340 342 342
318 318 325 339 340 340 341 344 343 345 344 348 348 347 346 345 341 342 343 345 346 345 342 342 342 342 342 343 339 342 345 347 346 347 345 346 347 347 345 343 342 340 342 343 341 342 341 339 340
321 320 320 328 330 333 343 345 345 347 346 346 347 347 347 345 343 342 344 342 343 345 343 343 343 343 342 340 340 342 344 344 345 344 343 347 347 345 344 344 346 346 341 340 341 343 343 339 336
320 320 325 322 336 337 343 349 347 350 348 345 344 344 345 345 345 345 346 345 345 345 344 345 344 344 344 343 339 339 344 344 344 345 347 346 347 347 345 347 347 349 347 342 340 341 341 341 338
323 325 322 321 325 333 342 344 345 345 344 345 341 343 344 344 343 344 345 346 346 346 346 346 346 345 345 344 341 337 342 343 345 343 347 349 347 347 345 347 348 347 345 341 344 343 343 343 343
321 321 322 324 327 335 339 343 340 341 340 342 341 340 343 343 343 342 343 345 345 346 346 346 346 346 344 342 344 338 338 343 344 342 339 340 347 347 345 347 347 346 346 344 345 344 344 343 343

GFSSGP_850_thetae_096.txt.gz
Theta_e
334 336 344 347 347 346 351 352 348 338 335 336 330 335 335 342 343 338 338 337 337 338 339 341 342 342 340 331 328 339 331 335 336 337 336 335 339 338 338 340 340 333 339 341 328 331 329 330 335
336 342 346 347 351 351 351 350 351 346 338 332 337 340 346 346 342 338 339 338 339 340 340 341 338 333 329 329 329 334 341 334 333 334 334 332 339 339 342 340 340 337 340 337 340 340 338 336 334
341 345 346 346 352 355 353 352 349 343 335 335 348 346 347 346 340 340 339 339 341 340 338 335 328 330 329 332 331 328 336 342 336 341 340 337 339 340 340 341 339 338 340 340 340 341 342 340 339
343 347 349 352 351 350 352 350 345 338 337 348 348 348 346 346 339 340 339 340 341 337 332 328 332 335 339 339 337 336 332 338 337 337 337 339 339 340 335 335 340 336 340 338 338 339 337 335 334
348 347 352 354 351 352 350 349 348 346 346 347 347 346 345 345 342 339 339 341 341 331 326 334 338 340 340 342 343 338 332 338 338 336 339 340 340 339 341 340 333 331 337 337 337 339 337 337 337
349 346 351 358 353 352 350 349 349 348 347 346 344 344 347 345 339 340 341 341 335 326 338 339 340 339 341 341 341 342 340 340 339 339 338 338 340 340 334 334 340 328 335 335 338 339 340 338 337
348 351 356 354 355 354 351 349 349 347 345 345 344 345 346 344 342 341 340 332 329 329 332 339 341 340 340 340 339 337 340 342 339 336 338 337 339 340 339 332 334 330 332 334 339 340 339 339 340
347 350 354 353 356 355 350 349 347 344 344 345 343 345 345 345 341 339 332 327 333 335 337 337 342 339 339 340 337 337 337 340 339 336 339 339 341 339 332 330 330 331 334 336 339 339 340 340 340
350 354 356 354 354 351 350 347 346 345 343 345 345 344 343 342 340 332 328 329 335 338 337 336 335 337 338 340 338 338 333 339 338 338 339 340 332 326 328 329 328 330 334 339 340 341 341 341 341
350 353 355 350 350 351 348 347 346 343 346 344 343 344 343 340 331 328 330 331 336 336 336 336 336 334 331 332 334 332 336 332 339 339 340 336 332 327 328 329 332 333 336 338 340 340 340 341 340
350 353 349 349 347 349 347 346 346 345 346 343 344 344 341 339 335 332 331 334 335 336 336 336 333 330 331 333 336 338 330 330 337 337 338 336 335 338 336 335 336 337 338 339 340 342 341 340 341
351 350 351 349 348 349 349 347 346 345 346 340 341 341 342 343 343 336 333 337 337 340 339 332 330 331 334 339 341 340 338 336 336 339 336 337 341 340 340 340 338 340 341 342 343 341 338 339 341
351 350 351 351 349 350 350 347 345 347 345 342 343 344 344 344 341 335 339 341 340 340 333 330 332 339 341 343 340 338 337 337 337 339 337 337 339 339 341 340 338 341 342 342 342 341 340 340 339
350 350 353 351 350 350 350 348 345 347 345 345 345 345 345 345 343 341 343 342 337 338 333 334 337 338 342 341 337 336 335 335 336 337 337 337 339 341 341 340 339 338 341 340 341 341 341 341 341
351 352 351 351 351 350 350 350 349 348 346 346 346 345 345 345 345 345 344 342 340 339 340 339 338 338 340 340 341 341 341 342 341 341 342 342 341 343 341 342 340 340 340 342 342 342 341 340 342
351 350 354 351 350 349 349 356 350 347 347 347 347 346 346 346 345 346 345 344 341 343 342 341 340 339 341 339 341 340 341 343 343 343 342 342 342 342 342 342 342 342 342 342 343 343 342 340 342
335 353 353 354 349 349 348 353 348 347 347 347 346 347 346 346 346 346 345 345 341 342 343 343 343 343 343 342 338 340 342 342 343 342 342 341 342 341 342 342 342 343 342 342 343 343 343 343 342
333 345 351 353 352 349 348 348 347 346 346 347 346 346 346 345 345 344 345 346 343 341 342 343 343 344 345 345 342 340 343 344 342 343 343 342 342 342 342 343 341 342 342 343 343 344 343 342 341
327 332 348 351 349 350 350 349 349 347 346 346 346 344 344 344 344 342 345 347 346 343 342 342 344 342 343 343 343 343 344 344 341 342 340 341 341 342 344 343 342 343 343 343 343 344 343 341 340
327 344 353 349 348 347 348 349 347 348 346 345 347 344 344 343 344 344 344 346 346 343 342 343 344 343 342 342 344 344 345 345 344 344 346 346 341 344 342 341 342 344 343 340 343 343 341 342 341
325 330 350 351 345 345 344 346 346 345 345 347 346 346 343 343 344 344 344 345 346 344 343 343 343 343 342 343 344 344 346 345 345 346 346 344 342 340 341 344 343 343 343 341 343 343 341 342 342
325 328 344 347 345 344 343 345 345 344 349 347 346 344 345 344 344 344 344 345 346 345 343 342 343 344 342 343 343 344 345 345 346 346 344 344 344 345 342 344 341 344 344 342 342 342 341 343 343
325 328 340 346 342 343 344 348 345 343 345 349 348 346 344 344 346 344 344 346 346 345 343 341 341 344 343 342 342 343 343 343 344 343 344 345 343 343 343 343 343 342 343 339 342 342 342 341 344
324 326 335 337 336 344 342 344 345 350 344 347 348 347 345 344 344 345 345 346 346 346 343 341 342 342 340 342 341 343 343 343 344 344 344 346 345 345 345 344 344 342 344 340 339 343 340 343 343
321 325 331 345 345 343 337 346 343 346 346 346 348 345 346 346 342 346 346 347 346 346 344 343 342 341 341 342 341 343 343 342 343 345 346 347 345 345 343 345 345 342 342 345 342 341 339 340 342
317 321 327 341 343 341 340 345 341 345 346 348 348 347 346 346 341 344 346 346 346 345 345 343 343 342 342 343 339 340 343 342 343 346 346 345 346 346 346 344 343 342 341 342 343 342 339 338 340
318 318 319 325 327 338 340 340 342 346 346 347 347 346 345 343 341 343 346 345 344 344 345 345 344 343 343 343 342 341 339 343 344 343 345 344 346 347 344 342 343 345 344 341 340 340 343 343 338
319 318 322 320 332 338 334 344 340 350 347 345 346 345 345 343 342 344 345 343 342 342 343 345 344 344 343 344 344 343 341 342 343 343 343 344 345 347 347 345 345 346 347 348 343 341 342 341 341
321 321 319 320 326 332 335 337 342 344 346 346 344 344 345 344 342 342 344 342 342 342 344 345 345 344 344 344 345 344 343 343 345 344 345 345 347 345 345 344 345 347 347 345 340 341 342 340 342
322 321 319 323 326 328 330 335 340 342 344 342 342 343 343 344 344 343 344 345 344 342 345 346 345 342 345 345 346 345 342 341 343 344 343 344 344 346 345 344 345 347 346 346 341 342 342 340 343

GFSSGP_850_thetae_099.txt.gz
Theta_e
335 341 346 347 350 351 356 354 348 335 334 332 331 332 339 345 343 338 336 336 336 337 340 339 340 341 339 334 331 328 331 336 335 335 336 337 337 338 338 339 333 337 327 335 334 334 336 337 338
338 345 346 347 354 357 356 350 342 334 334 331 335 336 345 349 342 337 339 337 337 338 341 342 342 341 332 328 334 339 331 333 334 333 331 338 338 341 340 338 340 336 335 336 338 337 333 331 328
343 346 348 349 353 357 356 351 344 341 334 333 344 347 348 346 339 342 338 337 339 340 341 339 332 329 329 329 329 338 339 335 337 335 332 338 340 341 339 337 339 338 339 340 341 339 338 337 337
345 348 348 350 352 350 353 351 344 335 340 349 345 348 346 344 343 339 338 340 340 339 336 328 331 330 341 340 331 331 340 334 340 338 339 340 340 340 340 339 339 339 337 338 338 336 334 333 334
348 347 353 350 351 351 350 348 340 337 343 348 348 346 344 344 341 339 340 341 338 333 329 334 340 341 337 342 340 332 337 337 334 338 339 339 338 342 342 336 337 338 337 338 337 336 336 336 332
349 346 352 355 351 351 350 350 343 343 347 346 346 344 345 345 340 340 341 341 335 326 333 340 340 341 341 342 340 338 339 338 338 340 339 341 341 334 339 338 332 336 336 339 338 338 338 336 335
348 351 352 354 353 353 351 350 348 347 347 346 344 344 346 348 340 340 341 340 327 337 339 338 338 340 340 340 341 341 341 339 338 338 339 341 340 338 339 339 331 335 336 338 338 338 339 339 338
348 350 354 353 355 353 350 349 347 346 346 344 343 345 345 347 341 342 341 329 330 333 339 344 340 340 340 338 336 337 341 338 336 338 338 340 339 337 339 336 331 332 337 339 339 340 340 340 340
349 356 357 356 351 352 349 348 347 345 344 345 345 343 344 342 342 341 333 336 335 336 337 338 338 339 339 338 339 339 338 338 338 339 341 339 338 340 341 330 330 334 338 340 341 341 341 340 340
350 355 355 350 350 350 349 347 344 345 345 346 345 345 343 342 342 339 332 336 343 338 336 336 337 338 337 339 336 333 338 337 337 340 336 328 327 330 334 331 334 338 339 340 340 340 340 340 341
351 354 350 349 349 349 347 347 343 345 346 345 345 345 344 344 340 336 338 337 340 337 336 336 334 332 332 332 332 331 331 338 338 339 333 328 331 334 336 336 337 338 339 341 340 339 340 340 341
352 350 349 346 348 349 347 346 344 344 345 343 344 341 342 340 335 334 338 340 336 337 336 334 331 332 334 339 336 328 331 336 338 336 334 338 339 338 337 338 339 341 341 340 340 339 339 339 340
349 350 349 346 348 350 347 346 344 348 343 344 344 343 342 340 339 333 336 336 337 340 334 330 331 334 339 341 337 336 336 337 338 336 339 339 339 341 341 339 341 342 342 341 341 340 340 339 340
349 350 351 351 350 349 348 346 344 347 343 344 344 344 344 343 341 336 339 339 340 339 330 332 337 340 343 339 337 337 337 338 339 336 337 338 339 339 341 339 339 340 341 340 341 341 341 342 342
349 352 350 349 350 349 347 346 349 347 344 345 345 345 345 344 343 340 340 339 338 334 331 336 339 342 341 338 337 336 336 337 337 338 338 339 342 342 341 342 338 340 341 340 342 341 340 342 342
352 350 356 351 350 349 348 352 347 347 345 346 346 346 346 346 345 343 341 339 339 336 335 337 338 340 339 341 341 341 341 342 342 343 341 340 341 343 343 342 341 341 341 342 342 341 340 341 342
347 356 354 356 350 351 344 349 348 346 347 347 347 347 347 347 347 346 344 342 341 340 340 337 338 339 339 341 340 341 342 343 342 342 341 341 341 341 342 341 343 342 342 343 343 342 342 342 341
345 351 352 355 352 347 346 347 348 348 347 347 347 347 347 346 346 346 345 344 341 342 341 341 340 341 340 338 339 342 343 343 343 343 342 342 342 341 343 342 342 342 343 343 343 343 342 340 339
331 339 352 354 349 350 350 351 350 347 347 347 346 347 347 346 346 347 347 345 342 342 343 343 343 344 344 342 339 341 343 343 342 341 341 342 342 343 343 344 342 343 343 343 343 343 341 340 340
338 348 353 352 349 349 350 351 350 348 347 347 347 346 346 345 346 346 347 346 346 341 341 343 344 343 344 341 342 343 344 344 343 342 343 343 341 343 341 342 343 342 342 341 343 342 341 341 341
328 335 350 352 347 344 347 349 348 349 347 347 346 347 346 344 346 347 345 346 346 345 342 342 343 343 342 342 342 345 344 345 344 345 346 343 342 339 341 340 342 344 343 341 343 342 341 342 342
328 329 348 349 347 348 346 353 349 349 350 347 345 346 346 345 346 347 346 343 346 345 343 342 343 343 342 342 344 343 344 344 345 344 343 343 342 343 342 343 341 342 344 342 342 342 342 344 343
328 329 345 347 347 347 347 350 348 349 351 350 347 346 347 345 345 347 347 343 344 346 344 342 343 343 343 343 344 343 344 344 345 345 343 343 343 344 341 343 340 342 342 340 342 342 341 343 343
328 339 342 342 345 348 342 344 352 351 350 347 347 346 346 346 345 346 348 346 344 346 344 343 341 342 344 343 343 343 344 343 344 344 343 345 344 344 343 344 342 342 343 342 340 344 340 342 343
325 332 342 343 342 341 342 347 343 347 346 343 348 347 346 346 345 347 347 345 347 345 345 343 341 340 344 343 343 343 341 343 343 343 345 346 345 343 343 344 343 342 341 344 340 338 341 340 342
326 328 337 344 344 342 345 348 346 345 347 345 344 347 347 347 345 347 347 345 345 345 345 344 342 341 343 341 343 342 342 343 342 343 345 346 346 346 346 344 343 342 341 342 343 342 340 338 338
323 326 329 336 336 343 347 344 342 348 348 347 345 348 348 347 345 343 347 346 347 346 344 344 343 342 342 340 342 342 341 343 342 343 346 345 345 346 346 345 343 343 341 342 341 342 341 342 342
324 325 326 328 338 341 342 347 343 353 351 350 349 347 347 346 346 346 343 345 346 346 345 345 345 343 343 341 342 343 342 339 341 344 344 344 345 346 347 347 345 345 345 346 346 342 341 341 342
325 325 326 327 331 335 338 342 345 349 349 350 350 349 348 346 345 347 344 344 346 343 343 343 344 345 344 343 343 343 343 343 340 343 343 344 346 345 345 345 344 346 347 346 343 341 340 341 339
326 326 327 328 331 332 334 337 344 345 347 347 348 347 347 347 346 345 345 345 346 343 342 342 342 344 345 344 345 345 343 342 342 341 343 343 345 346 346 345 344 345 345 346 344 340 341 341 340

GFSSGP_850_thetae_102.txt.gz
Theta_e
336 343 347 349 355 351 353 354 340 338 337 336 334 335 341 346 343 344 338 342 344 345 345 338 340 341 336 331 331 331 334 330 333 336 336 337 338 339 335 338 332 341 339 338 336 338 339 335 321
343 345 348 350 356 351 354 348 340 338 335 334 335 339 345 348 340 338 341 343 344 346 346 347 342 340 333 334 336 329 330 332 332 331 337 338 341 340 337 339 331 333 338 339 335 333 331 332 332
345 347 353 351 355 352 355 347 339 336 333 335 340 342 348 341 339 340 342 344 346 347 349 343 340 331 329 329 336 336 329 333 333 332 339 340 340 338 337 338 338 340 340 340 338 338 337 337 333
347 351 351 352 355 354 352 346 341 336 333 345 346 349 343 338 343 343 344 346 348 349 348 329 329 330 335 327 329 340 334 340 338 338 340 340 341 340 339 339 338 337 338 335 334 334 333 335 335
350 350 355 354 355 353 350 348 338 336 347 348 348 349 340 345 344 345 347 347 346 343 341 340 337 339 338 338 331 338 335 337 337 339 340 339 338 340 340 339 339 338 338 335 336 336 334 332 329
349 349 354 357 354 353 351 345 340 341 350 349 347 342 346 346 346 347 345 343 340 341 346 346 340 341 342 336 332 338 336 334 340 339 340 341 337 341 332 336 336 336 338 337 338 337 337 336 333
350 351 353 355 356 356 353 344 343 346 348 348 345 344 347 346 347 346 345 341 339 343 346 348 347 341 341 341 339 340 339 339 340 340 341 340 335 339 338 333 334 338 338 338 339 337 338 337 334
349 352 353 355 357 356 351 350 349 349 349 346 345 345 348 348 347 347 344 340 345 346 346 346 347 348 347 346 340 341 338 338 338 339 340 340 337 339 334 331 333 338 339 340 340 340 340 337 334
349 357 359 356 355 355 351 350 349 348 347 346 346 343 345 346 347 345 340 342 344 346 348 346 346 347 348 346 339 339 337 336 339 340 341 344 346 344 345 335 334 338 341 341 341 340 340 342 339
351 358 356 353 350 353 350 349 348 348 348 346 345 345 346 346 345 341 341 342 344 345 345 345 346 346 346 345 349 346 346 349 347 348 344 343 344 344 344 337 339 340 340 340 340 340 341 346 345
352 356 353 350 350 351 350 348 347 347 349 348 347 346 346 345 342 339 341 343 344 345 344 344 344 344 344 345 344 344 345 346 347 344 343 344 345 345 344 344 345 344 344 345 345 346 345 348 347
353 352 350 348 350 350 350 347 345 344 345 346 345 344 343 342 339 338 342 344 344 345 344 343 343 344 344 343 342 342 345 345 344 342 345 347 346 346 346 345 346 346 345 342 347 345 345 346 346
351 352 348 348 350 349 348 346 346 346 345 345 344 342 340 340 338 338 341 344 344 343 343 342 343 346 345 345 342 342 344 346 344 344 347 347 346 348 347 347 348 347 346 345 347 347 346 344 345
349 350 348 348 350 350 349 346 345 345 345 344 342 340 340 338 338 339 341 344 346 343 343 343 345 345 345 345 345 345 345 346 344 345 344 345 347 348 347 348 347 347 347 346 347 347 345 344 343
349 354 351 349 352 348 348 350 349 344 343 342 342 342 341 341 341 342 342 343 344 343 343 345 346 347 346 345 345 345 346 345 344 345 338 342 347 343 348 347 347 348 343 344 347 347 346 343 343
352 353 358 351 351 348 347 355 349 345 342 344 344 343 344 344 343 344 344 344 344 343 344 345 344 345 345 345 346 346 346 345 345 346 346 344 343 343 348 347 347 347 347 348 346 345 343 345 344
355 359 356 356 349 347 343 352 347 347 344 345 346 345 345 346 345 346 345 345 345 345 345 345 345 344 346 346 347 347 345 348 347 347 348 341 342 342 348 348 349 347 348 347 345 345 345 344 344
352 354 355 356 350 342 343 348 346 348 345 345 346 346 345 345 347 348 346 346 345 346 346 346 345 347 348 347 347 348 348 349 348 348 348 343 345 342 345 348 348 348 348 347 347 344 346 343 344
343 349 355 354 346 344 345 347 348 347 349 347 346 346 346 346 346 347 348 347 347 347 347 347 347 348 348 347 347 348 347 349 349 349 342 342 348 345 346 349 347 349 349 346 348 348 345 343 343
345 351 357 352 349 351 350 351 348 346 347 347 346 346 345 345 346 347 348 348 347 348 348 349 349 341 347 348 348 348 346 347 347 348 348 349 348 342 345 349 349 349 349 345 344 343 346 345 343
338 344 351 355 349 348 345 348 351 346 345 346 346 346 346 346 345 347 348 348 349 348 349 349 350 346 348 349 350 346 350 349 350 348 348 349 348 349 344 342 348 344 347 348 347 346 344 345 348
336 338 344 352 350 351 347 354 348 351 351 345 342 346 346 347 347 345 347 349 349 349 349 349 349 343 344 343 350 350 347 348 350 350 349 348 345 349 346 342 343 343 349 345 347 348 349 347 347
331 333 338 342 343 345 349 348 348 349 354 352 345 345 346 346 346 347 347 348 349 350 350 349 350 344 348 342 349 345 348 348 349 350 347 348 344 347 351 346 341 342 348 342 344 348 347 349 348
335 340 340 338 339 345 343 345 354 352 351 352 348 348 346 346 345 346 347 348 349 350 350 350 351 343 342 343 342 348 347 350 349 349 349 348 348 347 347 346 341 340 350 343 344 342 342 346 348
333 336 343 347 344 346 344 346 346 350 349 350 350 348 346 346 347 345 348 350 349 350 350 349 350 342 343 343 344 343 348 346 345 348 348 351 351 349 345 348 343 347 342 343 342 341 346 346 348
333 332 339 345 347 341 344 346 348 346 346 346 348 348 348 347 347 347 347 349 350 350 351 349 349 350 346 349 348 342 343 346 345 346 352 348 350 349 352 348 349 343 343 345 344 349 347 349 345
331 334 334 336 339 341 343 342 345 345 348 347 346 346 349 347 347 347 348 350 350 350 351 350 350 350 350 349 349 344 346 347 349 349 344 351 345 352 345 349 349 348 343 342 344 349 344 347 342
327 328 333 335 339 340 342 343 343 351 350 349 346 347 349 348 346 347 348 349 348 349 351 351 350 351 350 348 349 349 348 347 344 346 343 347 346 347 347 346 348 350 349 345 345 349 345 340 348
326 327 327 329 332 334 339 340 347 349 350 351 348 348 349 349 348 347 347 349 350 351 350 348 351 352 351 349 348 348 349 348 348 348 347 349 343 344 345 346 343 345 345 348 347 345 351 349 350
328 327 328 328 330 332 335 341 347 349 350 350 350 348 348 347 348 348 345 345 349 350 347 346 346 349 351 350 350 344 347 349 347 348 348 349 344 347 344 345 344 343 345 345 346 350 349 349 349

GFSSGP_850_thetae_105.txt.gz
Theta_e
337 346 349 351 359 356 352 346 342 340 340 338 336 340 346 345 344 346 341 344 345 345 343 338 339 337 331 331 332 336 334 335 335 338 338 339 339 336 331 341 341 340 339 339 340 339 326 322 329
346 346 351 353 363 352 350 342 341 340 337 335 338 343 345 343 339 341 344 345 345 345 346 345 341 337 335 334 329 334 336 334 335 338 338 341 339 342 329 331 335 337 336 333 331 331 338 331 328
348 348 354 353 359 352 349 343 341 337 336 339 341 346 342 340 340 342 344 344 346 347 350 342 339 330 329 338 336 331 334 332 331 337 340 339 339 340 338 340 340 340 338 338 337 337 337 331 329
348 351 352 355 356 350 346 343 338 337 339 345 346 342 339 342 341 343 343 347 348 348 348 332 329 329 328 332 339 335 338 334 335 339 340 340 340 338 338 338 338 338 340 337 335 337 335 333 328
350 349 356 355 352 347 344 341 337 340 346 347 344 341 342 343 343 344 347 346 347 344 341 338 339 339 332 330 337 334 338 338 339 340 340 339 340 339 338 338 338 336 336 335 335 332 330 328 329
348 350 353 357 353 349 348 341 338 345 348 349 343 344 344 343 345 346 346 346 340 341 345 347 338 341 336 332 336 333 336 340 340 340 341 340 339 338 337 336 337 337 337 337 337 337 334 331 328
349 352 356 354 356 354 348 341 343 349 348 347 342 346 344 346 345 342 341 338 342 347 346 347 348 341 339 338 339 337 339 340 340 341 338 336 339 330 334 335 337 338 339 337 336 336 333 331 328
351 352 357 354 356 356 347 344 344 347 348 346 344 346 346 346 343 343 339 340 345 346 347 348 347 348 349 346 340 338 338 338 340 340 339 335 336 330 333 336 338 338 340 340 340 338 336 332 326
348 357 360 355 355 355 349 350 349 349 348 347 347 345 346 344 343 342 339 346 345 345 347 346 346 347 346 347 340 336 337 337 338 342 345 345 347 345 347 340 338 340 341 340 340 341 343 344 339
353 360 357 353 351 354 351 350 350 348 348 347 346 346 345 345 342 341 342 343 345 346 346 346 346 346 346 345 345 346 349 350 346 347 346 348 345 343 342 338 340 340 340 340 341 342 345 346 348
353 358 354 353 352 349 349 349 346 346 347 346 348 347 346 344 342 340 341 343 344 344 343 346 344 345 345 344 344 345 347 346 345 345 344 344 344 345 343 342 344 343 344 347 344 347 346 343 346
354 353 352 352 352 350 349 348 346 344 346 347 347 345 344 343 340 340 342 344 344 343 343 343 343 344 344 342 343 345 345 346 344 345 347 347 344 345 346 344 343 347 345 346 346 343 346 345 345
352 352 349 348 351 350 348 347 347 345 346 346 346 344 342 340 339 340 342 343 343 343 343 342 344 344 345 344 341 345 345 345 344 347 348 347 346 345 347 347 347 345 345 344 345 344 344 345 345
350 351 351 351 352 350 348 347 345 344 346 345 344 342 340 339 339 341 342 342 343 342 342 343 346 345 346 344 345 344 346 344 346 346 346 349 346 347 346 346 344 346 347 346 346 348 343 343 342
351 353 351 350 352 351 349 348 346 344 344 344 342 338 339 339 339 341 343 343 345 343 343 346 347 345 345 344 344 346 344 345 345 347 348 348 348 347 346 345 347 346 343 346 347 344 345 343 342
354 352 357 351 352 350 352 354 346 344 344 341 340 339 339 340 341 341 342 343 344 344 344 344 345 344 344 346 346 345 346 346 345 346 347 349 347 349 348 347 346 345 348 346 345 343 342 343 344
354 360 356 356 349 349 350 354 346 342 341 342 341 341 341 342 343 343 343 343 344 345 345 345 345 345 346 346 347 345 347 346 346 347 348 351 350 346 348 349 345 349 347 345 344 341 346 343 344
353 356 357 357 347 347 348 352 350 343 342 343 342 343 343 343 344 344 343 344 344 346 346 345 345 346 346 349 346 346 349 346 346 347 349 347 350 350 350 348 347 350 348 347 347 349 344 344 345
351 356 357 353 345 346 349 350 348 349 347 345 344 344 344 345 345 345 345 343 344 346 346 345 347 346 348 346 347 347 348 347 348 349 348 349 350 350 348 350 347 350 348 348 349 351 344 343 341
342 353 354 350 345 346 348 349 346 345 349 347 345 345 345 345 346 346 346 346 344 346 346 346 349 348 349 347 347 347 347 347 348 349 350 351 350 351 347 350 350 350 350 351 353 348 350 343 343
342 352 351 351 349 347 348 347 347 345 345 347 348 347 345 346 345 346 347 347 347 346 347 348 349 349 349 348 349 350 348 350 347 348 350 350 351 350 353 350 355 344 349 349 352 346 349 345 343
340 349 350 346 352 351 347 352 348 347 347 346 344 347 346 343 344 346 347 347 347 347 347 350 350 352 346 354 348 349 349 347 348 349 348 350 350 351 350 351 352 349 352 349 346 348 348 351 344
337 338 349 350 349 344 350 350 348 350 351 347 344 345 348 345 344 343 346 345 346 348 347 348 351 351 351 350 350 351 347 350 350 349 350 352 351 350 349 351 352 351 349 347 352 346 352 348 349
336 340 341 343 344 346 349 349 349 350 354 349 342 342 343 347 346 346 345 346 345 348 347 348 351 351 351 352 352 351 350 350 350 349 350 351 349 351 350 350 351 350 350 348 348 352 344 353 350
339 343 346 346 344 344 345 346 351 348 348 350 348 343 341 345 347 345 346 346 346 349 349 347 351 351 351 352 351 352 352 351 350 349 349 350 351 348 349 351 351 350 344 353 351 345 354 345 351
337 339 346 350 348 345 346 345 352 348 347 349 349 345 341 344 348 346 346 348 347 347 348 347 351 351 351 351 351 351 351 349 347 349 351 351 351 349 350 350 351 350 352 352 352 349 342 349 348
333 338 338 342 343 347 347 348 348 348 348 348 349 349 346 347 343 347 345 348 346 347 347 349 352 352 351 352 352 351 350 348 349 348 350 353 351 349 354 351 351 351 351 352 352 349 351 354 349
331 332 335 337 341 346 343 346 351 349 349 348 348 349 350 348 345 347 347 347 346 349 349 350 350 351 350 349 349 350 350 350 351 351 349 346 351 349 353 352 353 353 353 353 350 350 348 350 350
327 329 331 334 335 337 339 343 348 351 349 350 349 348 349 349 348 346 349 349 348 350 350 351 350 350 350 350 349 349 347 347 347 347 348 351 348 343 348 348 352 351 354 354 349 349 350 353 351
328 327 328 330 333 333 335 350 347 347 347 348 348 347 350 350 349 347 344 348 353 352 351 352 353 352 349 350 351 350 350 348 347 347 348 350 350 351 347 355 354 351 353 352 351 352 351 351 351

GFSSGP_850_thetae_111.txt.gz
Theta_e
342 348 348 350 355 357 345 343 344 346 347 343 342 342 343 343 344 346 342 344 340 339 340 341 338 334 335 335 335 337 337 338 340 333 328 339 338 338 338 336 337 338 331 321 323 333 330 336 342
347 349 348 353 357 353 344 341 339 347 344 341 342 343 342 344 343 345 346 345 339 335 334 331 330 330 331 333 336 336 336 338 339 338 330 339 337 338 336 333 326 323 335 337 328 327 331 340 341
348 350 352 354 355 352 344 339 337 343 343 341 342 343 345 344 344 345 346 345 335 337 337 336 334 335 334 333 333 332 336 338 339 338 331 331 337 339 337 337 335 334 332 332 327 329 331 339 341
348 351 346 350 356 352 341 338 337 343 340 340 341 343 346 345 346 347 347 345 346 344 339 329 329 334 333 332 335 334 337 340 338 338 338 338 338 337 337 336 335 334 333 331 331 327 325 336 342
345 346 349 352 354 342 339 338 342 342 342 341 343 346 347 346 346 345 341 346 344 341 331 329 328 332 336 338 335 336 339 339 339 338 340 339 341 335 339 336 338 330 328 329 329 328 325 336 342
344 344 353 355 349 342 338 344 343 342 342 343 343 347 347 347 348 347 347 345 340 330 336 331 329 333 334 338 337 337 339 338 338 339 338 340 339 338 335 333 331 330 329 327 325 324 325 333 342
349 344 350 353 351 343 345 347 347 343 343 344 344 347 347 347 347 347 345 342 342 338 337 337 331 333 335 333 338 338 338 339 334 336 335 333 335 334 334 333 332 330 327 326 325 325 327 331 341
346 347 354 355 354 346 345 347 342 342 343 342 343 346 343 344 345 345 344 346 347 345 342 341 334 337 334 336 339 338 339 335 336 335 329 331 335 335 336 333 331 328 327 326 325 330 335 337 338
348 353 356 354 353 346 347 350 348 344 343 342 344 341 344 345 346 345 344 345 347 347 344 343 343 341 337 336 336 338 338 337 336 337 333 333 336 336 338 339 338 335 339 343 342 341 341 340 338
351 354 355 351 352 350 349 349 345 347 346 345 344 343 345 345 346 345 347 344 346 345 347 344 344 341 334 337 335 340 344 344 342 343 346 346 338 337 340 339 339 340 342 345 345 344 345 343 341
352 353 346 347 350 348 349 348 346 348 347 345 344 343 341 340 342 344 346 345 345 345 346 344 344 343 340 344 346 341 343 345 344 342 343 340 338 339 339 342 343 342 341 344 345 332 344 345 342
353 349 347 345 347 347 350 349 346 347 346 344 342 343 341 339 341 344 344 347 347 345 345 346 343 344 342 346 345 342 342 343 342 343 341 341 336 335 339 341 339 342 341 342 343 336 341 343 342
351 345 343 345 347 349 349 347 346 347 345 343 342 342 341 339 344 346 344 344 343 345 345 344 341 345 344 346 348 344 345 346 343 344 344 344 344 339 335 342 336 341 344 341 343 341 345 344 344
351 348 347 349 351 352 348 346 348 348 347 344 343 341 341 339 345 344 344 345 344 346 346 344 341 342 345 346 346 345 345 343 341 342 343 344 344 341 339 343 341 342 344 343 342 343 343 342 342
349 354 352 352 353 351 350 348 348 347 347 345 344 341 340 342 344 343 344 345 345 346 344 342 341 343 345 346 345 344 345 345 343 340 343 343 346 346 343 345 346 340 342 344 344 346 344 343 343
355 352 355 351 352 348 351 352 346 346 345 345 342 342 339 340 343 344 342 343 344 344 342 342 339 342 343 343 344 345 345 347 346 342 342 343 347 346 344 342 343 345 346 345 344 345 346 344 346
348 353 346 349 349 346 350 349 345 345 344 343 342 341 339 341 342 343 343 343 344 343 339 343 342 341 341 342 345 345 344 345 345 347 344 344 343 345 344 346 346 347 345 346 345 344 344 344 345
353 350 347 348 350 349 352 349 347 344 343 342 340 340 340 341 342 343 343 343 343 341 343 344 344 342 343 346 347 346 347 344 347 347 347 343 346 344 348 346 345 345 346 345 344 343 345 345 345
347 349 353 349 348 350 350 351 349 347 343 341 339 340 341 341 341 341 345 344 345 340 344 345 343 342 341 346 348 347 344 346 348 348 346 344 347 347 347 343 338 347 345 344 340 345 344 343 343
349 350 348 348 346 347 349 349 348 346 346 346 346 340 342 343 342 342 345 346 346 340 344 344 344 342 342 344 346 346 345 347 346 347 347 345 346 347 347 344 345 347 345 341 346 350 350 343 342
348 349 349 349 345 344 348 348 346 346 344 344 346 348 343 343 342 344 345 345 346 341 346 344 343 341 343 347 348 347 346 348 347 346 345 346 346 345 346 348 347 347 348 343 347 347 349 342 345
350 346 346 346 346 350 345 352 345 345 344 343 343 346 345 345 344 345 346 346 345 343 341 345 344 342 343 348 348 347 347 347 347 348 346 346 345 345 346 346 347 345 348 348 347 348 350 350 350
346 341 347 345 345 349 347 352 348 343 345 344 341 343 347 346 345 345 345 345 344 345 343 343 343 343 345 347 348 348 347 349 348 347 347 347 347 347 346 345 346 345 348 345 347 346 345 350 349
345 348 346 345 346 352 348 351 346 348 345 343 341 342 346 347 346 346 346 345 346 345 343 342 341 343 344 346 348 345 344 349 347 348 345 347 347 349 347 348 346 346 346 348 344 345 343 346 346
343 345 348 351 352 353 346 351 350 344 343 342 340 340 342 346 346 347 346 347 346 347 346 345 343 342 339 344 346 345 347 344 343 343 341 347 346 345 348 348 348 345 342 348 339 339 340 344 343
342 342 345 349 352 352 349 355 351 341 342 340 342 339 342 346 346 346 346 346 347 347 347 347 347 343 340 342 342 346 347 348 346 344 342 348 347 349 348 348 347 344 344 345 344 342 342 339 339
333 338 334 343 343 341 349 348 350 345 343 343 342 341 341 345 346 346 345 347 347 347 348 348 347 346 342 340 345 344 351 349 349 348 347 346 341 346 347 348 347 349 348 348 347 343 347 347 345
332 331 331 333 348 350 348 346 352 346 347 344 342 339 341 343 346 345 346 347 345 347 348 350 347 347 343 340 344 346 347 349 349 347 347 345 340 338 345 347 349 349 349 345 346 345 346 346 342
326 326 328 328 331 342 352 348 344 342 344 344 345 344 342 341 342 341 344 347 348 348 348 348 351 348 346 345 343 345 344 344 349 346 343 341 340 344 338 348 350 347 349 349 349 345 345 349 347
325 325 326 328 329 331 336 344 338 340 343 342 340 344 346 344 342 340 341 346 346 345 346 349 349 343 347 342 349 348 346 341 344 343 344 343 347 344 344 347 349 348 348 346 345 347 343 347 347

GFSSGP_850_thetae_114.txt.gz
Theta_e
339 342 348 349 352 351 345 349 345 346 344 342 342 342 340 341 340 342 336 337 339 339 339 340 335 335 334 336 336 336 339 338 334 326 329 337 336 337 336 336 337 332 328 333 329 329 340 343 343
341 349 350 351 352 344 346 346 347 343 342 342 342 342 342 344 341 338 340 341 339 339 341 337 334 335 334 333 340 337 339 338 331 340 338 338 338 338 339 338 325 328 326 331 330 337 341 341 342
348 350 351 348 351 351 341 347 343 342 342 343 343 343 343 345 342 341 341 342 339 338 332 330 331 332 333 334 334 336 339 338 338 339 337 336 333 336 336 329 335 331 326 327 331 338 339 341 343
346 350 345 350 354 352 339 343 341 341 342 344 345 345 345 344 345 343 341 337 334 335 335 332 335 333 331 331 331 336 339 339 333 333 337 337 336 336 336 333 332 332 330 327 331 335 340 341 340
344 345 348 350 353 343 341 340 340 341 344 346 345 346 346 346 345 344 339 339 341 339 330 331 334 332 333 335 333 338 338 337 336 337 337 336 336 338 338 332 331 330 329 327 326 333 341 341 342
347 342 351 351 346 342 342 341 341 344 346 347 346 346 346 345 343 345 345 346 342 333 329 330 335 334 335 334 337 339 338 338 339 338 337 337 336 337 333 329 327 326 325 325 325 329 341 342 341
345 344 350 351 351 348 343 341 342 344 344 345 346 346 346 344 342 345 345 341 330 334 330 329 334 333 336 336 337 338 338 339 338 336 336 336 334 333 331 331 329 327 325 324 324 329 340 342 343
346 344 350 352 353 350 348 344 342 343 344 345 345 347 345 346 346 344 342 338 336 338 333 330 333 331 334 337 337 338 334 338 338 334 333 334 334 330 328 327 325 325 324 329 333 331 336 342 342
347 352 354 353 354 350 345 343 343 343 345 344 345 346 346 345 344 343 346 345 343 340 338 333 335 332 337 338 339 337 334 334 328 330 334 334 335 337 338 335 338 340 339 336 336 337 338 339 339
349 352 353 349 348 351 343 346 344 342 342 344 343 345 345 345 343 345 346 344 344 343 343 339 336 335 335 338 338 337 338 340 336 337 338 335 336 338 338 338 339 342 344 345 343 341 339 337 338
349 351 344 344 346 348 346 341 345 344 345 341 345 346 345 345 344 345 345 343 343 343 343 339 334 337 336 338 342 343 338 337 344 344 339 337 339 339 340 338 339 342 339 341 338 344 344 341 339
350 343 342 343 343 346 348 347 346 346 344 341 344 345 346 345 345 344 343 343 345 343 342 342 341 342 346 341 342 343 341 344 344 342 338 338 338 339 341 341 336 338 341 340 339 342 344 343 343
347 346 344 345 344 346 347 351 348 346 343 343 344 344 345 345 346 343 344 345 345 346 342 343 343 343 346 344 341 344 342 344 343 339 337 333 338 336 338 337 338 341 343 342 341 343 344 343 343
348 346 344 344 347 351 351 348 347 346 343 343 341 341 343 343 345 344 346 346 344 344 341 344 344 344 345 344 343 344 345 344 342 342 342 342 338 338 339 335 339 342 343 345 343 344 345 344 343
347 349 347 349 349 352 350 349 347 344 342 342 341 340 338 341 345 345 344 343 344 342 341 343 343 343 344 345 345 344 343 341 340 343 344 344 340 342 343 343 343 341 340 343 345 345 344 341 343
346 351 357 349 349 348 350 353 346 343 342 343 340 340 340 344 344 344 344 343 344 344 343 341 340 343 345 345 345 343 343 344 342 340 342 345 343 344 343 343 343 343 344 344 345 345 344 343 343
347 354 349 349 348 347 350 350 348 345 343 343 341 341 342 344 344 344 344 344 344 343 342 341 340 343 343 345 345 345 343 345 345 343 340 342 342 342 344 345 344 342 345 345 344 345 344 344 344
352 349 347 348 349 349 350 349 348 344 344 343 341 341 340 344 344 343 343 345 344 341 342 341 340 342 342 344 344 345 345 344 346 346 345 342 342 344 344 340 342 346 344 345 345 346 347 345 345
347 349 352 349 348 350 350 348 347 347 344 341 341 340 341 343 343 342 343 344 343 340 343 339 341 340 341 345 346 344 345 345 347 347 346 342 343 346 348 344 342 344 344 345 345 347 343 342 344
348 348 347 347 348 348 348 350 346 344 346 344 343 339 341 343 343 343 343 343 343 342 342 339 342 341 345 345 347 346 346 345 347 347 346 345 345 346 345 340 344 345 340 343 347 349 345 343 345
348 348 346 349 344 344 347 349 346 343 344 344 344 346 340 341 344 344 343 343 344 341 344 343 340 340 340 346 347 346 344 345 346 345 346 344 345 345 346 342 344 344 340 344 348 349 346 347 345
349 345 346 346 345 346 345 352 345 342 343 344 343 345 341 340 342 344 344 345 344 342 343 343 342 341 342 345 346 347 346 347 345 345 344 346 345 344 345 346 344 344 346 343 345 347 350 349 349
342 344 345 344 346 346 346 347 345 343 344 345 342 344 346 342 342 344 345 345 344 342 341 342 342 341 342 346 347 347 347 346 347 345 344 346 346 346 345 345 345 343 348 347 344 345 346 349 347
340 346 345 343 346 349 345 350 348 343 344 343 343 343 346 344 344 345 345 345 345 343 340 343 342 343 341 344 348 346 348 346 347 347 346 346 346 346 347 347 347 345 341 344 344 345 343 347 345
343 342 350 349 349 350 345 349 347 342 340 339 340 342 345 346 344 345 346 346 345 344 343 341 341 344 342 342 346 345 347 345 347 347 347 346 345 346 346 348 346 344 344 345 342 340 342 343 344
342 339 347 352 352 350 348 352 349 343 341 341 340 342 342 346 345 345 345 346 345 344 344 341 339 343 341 342 343 347 345 345 346 343 344 340 345 345 340 345 344 350 343 341 341 340 344 342 342
341 341 337 339 341 344 348 344 345 343 340 340 340 341 341 342 346 345 346 345 345 345 345 345 343 342 341 339 340 343 345 346 347 345 345 346 346 346 348 347 345 345 346 347 347 345 341 340 343
334 332 332 331 345 346 349 346 349 346 345 340 339 341 340 341 344 346 346 346 347 346 346 346 345 345 342 341 339 340 343 343 346 346 346 343 343 342 343 346 346 347 347 345 345 344 343 345 339
323 324 324 326 335 340 347 345 343 343 344 345 342 340 340 343 343 345 345 346 346 346 347 346 346 347 346 342 340 339 341 345 345 346 344 343 342 340 338 346 346 348 348 349 349 348 344 347 347
322 323 321 323 327 327 337 333 338 340 340 343 344 343 339 340 344 345 345 345 346 346 347 347 347 347 347 345 342 340 344 343 341 344 344 341 338 341 341 342 347 346 347 350 346 345 345 343 344

GFSSGP_850_thetae_117.txt.gz
Theta_e
339 339 347 348 348 343 347 348 344 340 340 339 339 341 340 342 337 337 337 338 337 337 338 338 338 339 336 336 337 338 336 325 330 333 335 336 334 335 338 334 338 340 334 333 337 340 342 341 341
339 348 349 350 346 347 349 346 346 342 341 341 341 339 343 343 340 337 337 338 337 338 339 335 341 335 337 337 336 338 333 327 328 334 339 336 336 337 339 330 324 330 333 327 336 342 342 342 342
346 350 348 345 348 342 350 344 343 342 342 342 343 342 344 344 337 336 337 338 338 339 338 333 334 333 332 334 336 338 333 334 338 337 339 339 334 332 327 336 340 329 330 332 340 340 341 341 340
344 349 344 348 351 346 344 343 342 343 343 343 343 344 343 340 338 338 338 338 339 339 333 332 332 331 331 332 336 338 337 337 338 336 336 335 336 338 333 332 330 326 328 333 339 339 342 342 339
344 345 348 350 350 344 342 342 342 344 345 344 343 345 346 344 342 340 339 338 336 332 332 332 339 331 338 333 337 338 338 334 336 339 340 335 335 334 332 331 330 331 328 331 337 341 341 341 340
345 342 349 351 345 343 340 341 344 345 346 345 345 346 346 344 341 340 335 335 336 335 331 334 334 332 334 333 338 338 337 336 337 337 334 335 334 339 328 327 327 329 328 327 338 341 342 341 340
343 346 349 349 346 345 343 343 346 346 346 345 344 345 346 344 342 338 342 343 339 329 330 333 337 336 334 337 339 338 338 338 336 336 336 333 331 329 329 327 326 325 325 326 335 341 342 342 343
342 345 351 349 349 348 343 343 345 345 345 345 343 346 345 343 345 346 346 338 331 329 329 334 335 336 337 339 338 338 338 337 335 333 331 331 330 329 327 325 325 325 325 324 330 341 341 343 341
346 349 352 350 351 350 344 344 343 344 345 344 345 344 343 343 344 342 336 335 336 334 330 334 333 336 337 338 338 334 336 334 332 333 334 332 333 333 330 331 332 330 334 335 333 336 340 341 340
348 348 352 348 348 349 342 343 344 344 344 345 344 345 343 345 343 342 341 340 336 333 333 335 331 337 337 338 335 334 330 329 332 333 335 337 338 335 338 342 342 342 341 338 337 337 338 338 339
349 348 345 345 346 346 349 344 342 343 345 345 345 344 345 345 343 344 342 341 341 340 339 335 335 337 338 337 336 339 339 335 335 335 335 337 338 337 338 341 341 342 340 339 343 341 340 340 340
349 347 345 345 345 346 347 347 342 342 344 343 345 344 345 344 344 343 342 342 342 340 334 334 335 335 338 341 340 338 340 343 339 336 337 338 339 340 340 340 338 338 341 339 342 343 344 342 340
349 345 344 344 345 345 346 348 345 344 342 343 344 345 344 344 344 344 342 343 341 341 338 339 345 342 341 342 342 342 343 340 339 337 337 337 337 338 338 335 339 341 342 341 341 343 344 343 341
347 346 345 344 345 346 350 350 350 345 342 343 344 344 344 343 344 344 343 343 343 342 342 341 343 345 343 341 343 342 343 340 340 341 338 341 337 338 335 340 340 341 341 343 344 344 344 344 343
347 349 345 347 347 346 348 350 347 344 343 344 345 345 345 344 344 343 343 344 345 342 343 342 343 343 344 342 343 344 342 342 342 343 342 342 338 342 341 341 339 339 340 344 345 344 342 341 344
347 348 352 347 345 346 347 352 346 343 342 344 344 345 345 345 345 344 343 342 342 341 342 343 343 343 344 344 344 343 341 341 340 342 341 341 343 342 338 339 340 344 344 344 344 344 343 342 343
347 352 348 348 342 348 349 351 346 343 342 341 340 340 343 344 345 345 342 341 342 341 342 343 342 344 345 344 344 343 343 344 341 342 341 342 341 343 339 341 341 341 345 344 344 344 343 344 344
350 351 348 349 345 348 348 350 347 342 342 340 339 340 342 344 344 344 343 342 343 343 342 340 342 342 343 344 345 345 345 345 344 344 342 343 342 340 343 341 341 342 347 344 346 346 345 344 344
346 349 350 347 345 349 349 349 348 345 344 341 339 341 344 344 344 344 344 343 343 343 341 340 341 341 343 344 344 344 343 344 345 345 345 343 341 345 343 343 342 345 345 343 348 347 342 343 344
346 348 348 346 347 348 348 349 347 344 345 343 343 337 343 343 343 344 344 344 343 341 341 340 341 341 341 343 344 343 343 344 346 344 344 343 343 343 345 341 341 344 341 342 346 347 342 343 345
345 348 347 348 345 344 347 350 349 345 343 343 344 341 341 343 343 343 344 344 343 341 341 339 339 339 339 345 346 344 346 345 346 347 346 345 343 343 344 341 343 344 340 340 347 348 344 341 346
348 344 344 346 345 347 346 350 347 347 343 342 343 344 340 343 343 343 344 344 341 342 341 338 339 338 344 345 346 346 345 345 344 345 345 345 343 343 345 342 342 344 343 341 343 347 349 348 345
340 343 343 343 346 344 346 348 344 346 348 344 340 344 342 342 343 343 343 343 342 343 342 340 339 340 340 345 346 345 346 345 345 343 344 345 345 345 345 344 345 343 347 344 344 345 347 347 345
342 342 342 343 342 346 344 348 347 346 346 344 339 343 344 339 343 343 343 343 343 343 343 343 342 342 340 342 345 345 346 346 346 345 345 345 346 345 346 345 344 344 343 346 344 343 343 346 346
342 342 346 348 349 347 346 347 344 341 340 341 339 343 344 341 343 343 343 343 344 343 342 343 342 340 341 343 345 346 346 346 345 346 346 345 345 345 345 346 346 344 346 343 346 342 344 341 344
340 339 344 349 351 348 348 350 345 341 339 339 341 343 344 344 342 343 343 344 344 344 342 341 342 341 342 340 341 345 345 346 344 344 345 344 346 345 344 344 348 346 343 343 344 342 339 342 342
341 340 335 340 340 344 349 346 340 342 340 339 338 340 343 345 343 343 342 344 344 344 343 342 340 340 341 340 340 341 344 343 343 346 343 342 341 346 345 342 345 345 345 343 343 342 341 342 342
336 333 338 335 343 345 346 346 346 345 342 339 339 339 341 344 344 344 344 344 344 344 344 344 343 339 338 341 339 340 342 343 343 346 344 344 345 346 345 347 346 346 343 345 346 345 344 342 344
323 325 323 327 332 337 344 342 340 340 341 339 339 340 341 342 345 345 345 345 345 345 344 344 344 343 341 341 340 339 339 340 344 345 344 344 343 342 341 341 344 346 345 347 345 346 343 345 344
323 322 319 323 326 326 330 325 335 340 340 343 343 340 340 343 344 345 345 345 345 345 344 344 345 345 344 344 342 340 339 342 343 344 345 342 341 340 338 339 344 346 347 347 348 348 347 343 345

GFSSGP_850_thetae_120.txt.gz
Theta_e
341 340 347 348 343 340 347 345 340 338 339 338 338 337 340 342 337 337 336 335 335 336 338 338 338 338 338 339 338 333 328 336 326 326 332 333 336 337 337 338 339 340 336 338 339 339 338 338 337
342 348 349 349 341 345 347 345 340 338 338 339 339 341 343 342 338 337 337 335 336 337 338 338 339 337 336 338 338 335 325 333 332 336 335 333 335 337 339 335 338 339 333 340 342 341 341 341 341
346 349 349 342 343 346 347 344 343 341 341 342 343 343 343 342 337 336 336 336 337 338 336 340 336 336 336 337 339 330 332 330 336 337 336 337 337 335 332 335 332 331 329 341 340 341 341 339 338
343 348 344 344 348 342 344 343 342 343 343 342 342 344 341 338 337 337 336 337 338 338 333 336 337 336 334 337 337 332 337 336 337 336 334 332 329 329 339 330 327 329 337 339 338 341 340 336 337
343 344 348 348 346 343 342 342 342 344 344 343 342 344 342 340 337 337 337 337 339 337 331 332 336 332 334 335 337 337 339 336 336 336 335 335 336 335 334 333 331 331 332 337 340 340 339 339 339
343 343 349 347 345 342 341 342 344 345 344 344 343 342 345 344 338 338 338 338 334 331 330 336 336 336 331 337 338 336 335 338 338 338 336 339 340 336 338 333 337 337 328 336 340 341 340 340 340
341 346 349 347 344 343 342 344 346 345 343 344 343 345 345 344 340 337 335 335 336 333 331 335 336 337 340 340 337 336 336 336 338 336 337 339 334 330 329 327 327 327 326 335 340 341 342 343 341
342 346 350 348 345 345 342 344 345 344 345 343 340 344 344 343 338 336 339 339 337 331 333 335 340 339 341 339 338 338 337 335 335 336 336 337 332 335 329 327 326 324 325 331 341 341 342 342 341
345 347 352 350 348 347 343 345 344 345 344 342 345 342 343 342 339 343 344 338 331 329 333 334 338 336 337 338 338 338 338 333 333 333 333 330 329 326 326 326 330 333 329 330 337 341 342 340 339
345 348 351 347 347 349 343 343 344 344 344 344 344 342 342 343 344 341 336 333 333 330 333 333 335 337 337 338 335 336 337 332 333 333 333 334 333 337 339 338 339 339 337 337 337 338 338 338 338
348 347 346 346 346 346 348 343 343 344 345 344 343 342 343 344 342 336 335 337 333 331 335 332 337 337 338 335 333 331 329 332 333 334 336 336 335 338 341 342 342 341 342 341 340 338 338 338 337
348 348 345 346 345 345 347 345 342 343 344 342 343 343 342 343 342 340 340 338 335 336 335 333 336 338 338 336 339 338 336 334 334 334 336 337 338 339 339 339 337 339 339 342 344 344 343 340 339
348 346 345 345 344 345 346 347 343 343 344 341 343 344 343 343 343 342 341 342 341 337 334 334 335 337 339 339 338 340 340 336 335 336 338 339 339 338 338 335 340 341 341 341 342 343 343 342 340
347 345 344 345 345 345 345 348 345 343 343 342 342 344 344 342 343 342 342 341 339 334 338 342 337 341 342 342 341 342 339 337 336 336 336 336 336 338 337 339 341 341 342 343 343 343 343 343 342
346 348 346 346 346 346 345 349 350 344 343 344 343 344 344 343 343 342 341 342 340 338 341 344 342 341 341 341 341 341 339 339 342 339 341 337 338 339 341 340 340 340 343 343 343 343 340 342 343
349 347 352 347 345 346 346 350 346 343 344 344 344 344 344 343 343 343 342 343 342 341 340 342 344 344 341 341 341 342 340 342 343 341 341 340 341 339 338 339 340 342 344 344 344 343 342 342 342
345 349 348 348 343 346 347 349 344 344 344 344 344 344 344 343 343 344 343 342 342 340 340 342 342 343 344 343 343 341 342 341 341 341 340 341 343 341 338 341 342 344 343 344 344 343 343 344 343
348 348 345 346 344 347 348 349 345 343 344 344 344 344 344 344 343 344 343 342 340 340 341 342 343 344 344 344 344 342 344 343 342 342 342 341 341 340 340 340 340 343 343 344 345 344 344 344 344
345 348 347 347 345 348 348 349 346 343 342 341 339 341 342 344 343 344 343 342 342 341 343 341 342 344 344 344 343 344 344 344 344 345 344 342 342 344 342 341 341 342 344 343 346 343 343 343 344
346 348 349 347 345 347 348 349 347 345 345 340 338 339 339 343 343 344 344 342 342 342 343 341 342 342 342 343 342 343 344 344 345 344 343 343 342 343 346 341 341 344 341 342 345 345 342 342 344
346 347 347 348 346 344 347 348 349 346 344 344 341 339 340 340 342 343 344 342 342 343 343 341 340 342 341 342 342 344 343 343 345 345 345 345 344 344 344 344 343 342 343 339 344 346 343 341 345
346 342 345 346 343 351 345 353 347 348 346 342 342 342 341 342 343 344 344 343 343 343 342 341 340 342 341 343 343 343 343 343 344 345 344 343 343 344 346 342 341 344 343 338 342 347 345 345 344
343 342 342 343 344 343 347 349 343 346 349 346 341 343 340 342 343 343 343 343 342 343 340 341 339 340 340 339 345 344 345 343 344 344 344 345 342 343 342 343 344 343 344 344 342 343 346 347 345
339 340 340 340 339 344 344 347 345 347 346 346 343 341 342 340 342 343 342 343 343 343 341 340 339 338 339 343 345 345 345 344 344 344 343 342 344 343 344 344 343 343 343 346 345 343 344 345 346
339 336 341 343 346 349 344 347 341 339 341 344 343 342 343 340 341 343 343 343 343 342 342 341 339 340 342 342 341 345 343 345 345 345 345 345 344 344 344 343 345 344 344 344 344 343 343 342 343
338 334 339 347 350 347 347 350 342 338 340 343 344 343 341 343 339 342 343 342 343 342 343 342 341 340 340 340 340 342 344 345 345 345 346 346 346 345 346 345 344 344 345 344 342 343 340 340 341
339 338 334 337 339 342 343 344 338 340 338 339 342 341 341 344 340 340 342 342 342 342 343 342 341 341 341 340 341 343 344 345 345 345 343 344 343 345 345 345 344 344 345 343 342 343 343 342 342
335 334 336 334 344 344 340 345 343 341 341 337 337 339 341 344 342 341 342 342 342 342 344 343 341 340 340 340 341 341 340 342 343 343 343 346 342 341 346 345 344 342 345 344 343 345 345 344 343
330 334 324 329 333 338 339 332 340 342 339 339 338 339 339 343 344 341 341 342 341 342 343 343 342 341 340 339 338 342 341 341 341 343 344 345 345 344 343 345 345 345 346 345 344 345 345 344 345
323 322 319 327 326 326 327 325 341 343 343 341 341 340 339 342 344 343 341 341 341 342 343 344 343 343 342 340 338 340 340 340 341 341 343 345 345 342 341 341 341 340 346 346 346 345 347 346 345

GFSSGP_850_thetae_123.txt.gz
Theta_e
342 343 349 349 349 347 346 343 341 341 340 339 339 339 341 342 340 344 338 336 336 337 337 339 338 338 339 340 334 338 337 327 337 336 335 336 337 337 337 339 339 339 338 338 338 338 338 339 337
347 349 349 348 349 347 347 343 342 341 339 339 340 342 343 342 339 338 338 336 336 338 338 339 338 338 339 339 332 338 333 334 332 333 336 338 337 338 337 339 338 336 340 341 341 341 341 340 340
346 348 349 350 349 349 348 345 341 340 339 341 343 344 343 340 338 338 336 334 336 338 337 338 337 337 338 339 329 333 332 336 335 335 336 338 332 331 336 332 331 337 341 340 341 339 338 337 335
343 348 345 349 349 345 347 344 342 342 342 343 342 342 340 338 338 336 334 335 337 337 338 335 335 337 337 339 331 337 335 337 337 339 335 331 335 339 336 333 331 336 339 339 340 336 337 335 328
344 345 351 350 347 345 344 342 343 344 344 344 343 342 341 339 337 335 336 337 338 335 335 342 335 334 336 339 334 338 336 335 335 336 336 337 335 333 334 335 334 337 337 339 339 338 338 335 330
345 344 348 349 347 345 343 344 345 345 345 343 340 341 344 342 337 336 337 338 339 333 332 337 333 331 336 338 337 338 335 337 336 336 337 336 332 335 336 339 338 331 335 339 339 339 339 339 339
345 349 350 346 347 346 344 345 345 344 343 342 341 343 345 343 337 337 338 337 333 331 332 337 334 337 338 338 336 336 339 338 338 337 338 338 336 335 331 330 328 326 336 339 340 342 340 340 339
344 349 349 346 348 347 344 346 345 344 345 342 341 343 344 343 338 338 337 335 335 330 332 336 336 339 343 340 338 337 335 337 335 337 337 334 336 337 332 326 324 325 335 339 341 341 339 339 338
344 351 351 347 346 345 344 346 345 345 343 343 345 342 343 339 338 337 337 338 333 330 333 339 338 339 341 339 338 337 335 336 334 334 335 329 326 329 341 331 331 327 330 338 341 340 339 338 337
345 352 351 347 348 345 343 344 345 343 343 345 345 344 338 337 339 343 342 339 330 330 335 338 336 337 338 339 338 337 338 334 331 331 329 330 335 337 337 338 339 337 336 336 339 338 338 338 339
347 350 347 347 347 347 344 344 344 343 343 345 343 345 342 342 344 346 343 336 332 331 335 335 336 337 337 335 335 335 332 332 333 333 334 338 340 341 342 341 341 341 342 338 337 337 338 338 338
350 347 346 346 346 347 346 346 344 343 343 343 344 344 343 344 345 343 338 336 332 332 334 335 337 338 336 334 330 329 332 333 335 336 335 335 339 339 338 337 339 339 341 342 343 342 342 340 340
349 347 346 345 346 347 347 347 343 343 344 343 344 344 344 345 344 339 339 336 332 335 333 336 338 337 336 338 339 338 335 334 334 336 337 339 339 338 335 340 341 341 341 342 343 343 343 341 340
346 346 345 345 346 346 348 348 344 345 344 345 344 344 344 344 344 342 340 340 338 337 334 335 337 337 337 337 339 340 338 336 336 337 338 338 337 336 338 340 340 341 342 342 343 343 343 342 340
346 348 346 346 346 346 346 350 347 345 344 345 345 345 344 344 345 343 341 340 334 333 335 335 337 340 340 339 341 339 337 336 337 338 338 337 338 341 340 340 340 342 343 342 343 341 341 342 340
347 345 353 343 345 345 347 352 349 346 344 345 345 345 344 344 345 345 341 341 335 340 343 339 340 341 341 339 341 338 338 342 342 340 338 340 340 340 339 338 341 343 344 344 344 342 341 342 341
348 349 350 347 342 346 349 350 347 346 344 345 345 345 345 345 345 346 343 342 340 338 344 344 343 342 340 341 341 340 341 342 342 341 341 342 341 338 341 342 342 343 344 344 343 343 343 343 343
347 350 346 347 343 346 348 349 347 346 344 345 345 345 345 344 344 345 344 342 343 341 339 343 343 343 342 342 342 341 342 340 341 341 339 340 341 339 342 341 342 343 342 344 344 343 344 344 344
339 348 346 343 342 345 348 350 348 345 345 345 345 345 345 345 344 345 345 343 342 342 342 342 343 343 343 343 343 342 344 342 342 342 341 340 342 343 340 341 340 343 342 342 345 343 344 343 345
344 349 349 347 343 345 348 349 348 346 345 344 345 345 345 345 344 344 344 343 341 340 341 342 343 343 344 343 342 343 343 344 344 344 344 341 341 344 344 341 342 343 342 342 343 344 342 343 344
345 346 348 349 347 345 347 349 347 346 346 344 343 343 344 344 344 344 344 344 342 341 340 342 341 344 344 344 343 343 344 343 345 344 342 342 343 341 344 343 342 343 342 339 342 345 343 342 345
343 342 345 347 349 352 346 354 348 348 347 345 343 341 342 343 344 344 344 344 342 342 342 342 341 342 343 343 343 343 342 344 343 343 343 344 344 343 346 341 343 343 343 341 340 347 346 344 344
343 343 345 344 346 348 349 351 349 346 350 348 345 343 341 342 342 342 344 344 342 342 342 343 342 341 342 342 343 342 343 341 342 344 344 342 342 344 346 343 343 342 344 343 340 343 347 347 345
342 343 343 343 345 350 346 349 347 350 351 347 346 344 343 341 342 342 343 345 344 342 342 343 342 341 341 342 341 344 345 343 344 344 344 344 343 342 343 343 343 343 342 343 344 342 344 345 346
341 344 348 350 350 350 344 348 346 342 344 346 345 345 344 341 342 343 345 345 343 343 342 342 341 340 339 340 340 343 345 344 343 343 344 343 343 343 343 344 344 342 342 342 343 345 343 343 343
340 335 341 347 350 347 347 350 346 342 340 341 345 344 344 343 341 343 344 343 343 342 343 342 341 339 338 337 339 344 344 344 344 344 345 345 345 345 344 345 344 343 343 344 343 342 343 341 342
341 339 337 340 341 342 343 345 344 342 342 343 343 344 343 343 342 342 344 344 342 342 342 342 342 340 339 339 342 341 341 343 344 345 345 345 344 345 345 346 345 345 345 345 345 343 342 341 340
340 338 343 341 344 342 340 345 348 349 348 343 343 344 343 343 342 342 341 343 342 342 342 342 343 341 340 340 339 339 340 343 345 345 345 345 345 344 342 342 344 345 343 344 344 344 342 342 342
340 341 336 335 338 340 340 339 345 347 346 345 340 342 344 343 343 342 341 340 341 342 342 342 343 342 341 340 341 339 340 341 341 342 342 344 343 345 343 344 345 345 345 344 345 343 343 344 345
332 336 338 338 336 336 337 336 342 343 343 343 343 341 340 342 343 341 342 340 340 342 341 342 343 343 341 341 340 339 340 341 340 340 340 343 344 344 345 342 342 343 343 345 346 344 344 343 343